<?xml version='1.0' encoding='UTF-8'?>
<gpx version="1.1" creator="https://www.komoot.de" xmlns="http://www.topografix.com/GPX/1/1" xmlns:xsi="http://www.w3.org/2001/XMLSchema-instance" xsi:schemaLocation="http://www.topografix.com/GPX/1/1 http://www.topografix.com/GPX/1/1/gpx.xsd">
  <metadata>
    <name>TL2025-5_Dürren-Berg</name>
    <author>
      <link href="https://www.komoot.de">
        <text>komoot</text>
        <type>text/html</type>
      </link>
    </author>
  </metadata>
  <trk>
    <name>TL2025-5_Dürren-Berg</name>
    <trkseg>
      <trkpt lat="47.730231" lon="9.880278">
        <ele>595.459671</ele>
        <time>2025-05-18T15:52:05.484Z</time>
      </trkpt>
      <trkpt lat="47.730300" lon="9.880368">
        <ele>595.459671</ele>
        <time>2025-05-18T15:52:07.394Z</time>
      </trkpt>
      <trkpt lat="47.730361" lon="9.880448">
        <ele>595.459671</ele>
        <time>2025-05-18T15:52:09.081Z</time>
      </trkpt>
      <trkpt lat="47.730094" lon="9.880828">
        <ele>595.459671</ele>
        <time>2025-05-18T15:52:16.724Z</time>
      </trkpt>
      <trkpt lat="47.730051" lon="9.880888">
        <ele>595.459671</ele>
        <time>2025-05-18T15:52:20.860Z</time>
      </trkpt>
      <trkpt lat="47.730845" lon="9.882043">
        <ele>595.890630</ele>
        <time>2025-05-18T15:52:44.475Z</time>
      </trkpt>
      <trkpt lat="47.730967" lon="9.882112">
        <ele>595.959801</ele>
        <time>2025-05-18T15:52:47.349Z</time>
      </trkpt>
      <trkpt lat="47.731128" lon="9.882096">
        <ele>596.045309</ele>
        <time>2025-05-18T15:52:50.889Z</time>
      </trkpt>
      <trkpt lat="47.731174" lon="9.882076">
        <ele>596.070706</ele>
        <time>2025-05-18T15:52:51.956Z</time>
      </trkpt>
      <trkpt lat="47.731124" lon="9.881639">
        <ele>596.228705</ele>
        <time>2025-05-18T15:52:58.598Z</time>
      </trkpt>
      <trkpt lat="47.731122" lon="9.881273">
        <ele>596.359164</ele>
        <time>2025-05-18T15:53:04.126Z</time>
      </trkpt>
      <trkpt lat="47.731193" lon="9.880665">
        <ele>596.976368</ele>
        <time>2025-05-18T15:53:13.552Z</time>
      </trkpt>
      <trkpt lat="47.731374" lon="9.879601">
        <ele>598.302000</ele>
        <time>2025-05-18T15:53:30.524Z</time>
      </trkpt>
      <trkpt lat="47.731391" lon="9.879066">
        <ele>598.948926</ele>
        <time>2025-05-18T15:53:39.093Z</time>
      </trkpt>
      <trkpt lat="47.731373" lon="9.878742">
        <ele>599.341606</ele>
        <time>2025-05-18T15:53:44.319Z</time>
      </trkpt>
      <trkpt lat="47.731326" lon="9.878407">
        <ele>599.819734</ele>
        <time>2025-05-18T15:53:49.780Z</time>
      </trkpt>
      <trkpt lat="47.731245" lon="9.878073">
        <ele>600.496315</ele>
        <time>2025-05-18T15:53:55.428Z</time>
      </trkpt>
      <trkpt lat="47.731203" lon="9.877894">
        <ele>600.857578</ele>
        <time>2025-05-18T15:53:58.427Z</time>
      </trkpt>
      <trkpt lat="47.731043" lon="9.877488">
        <ele>601.754275</ele>
        <time>2025-05-18T15:54:05.845Z</time>
      </trkpt>
      <trkpt lat="47.730837" lon="9.877103">
        <ele>602.691766</ele>
        <time>2025-05-18T15:54:13.609Z</time>
      </trkpt>
      <trkpt lat="47.730440" lon="9.876581">
        <ele>604.193299</ele>
        <time>2025-05-18T15:54:26.291Z</time>
      </trkpt>
      <trkpt lat="47.730314" lon="9.876209">
        <ele>605.238921</ele>
        <time>2025-05-18T15:54:33.415Z</time>
      </trkpt>
      <trkpt lat="47.730387" lon="9.875672">
        <ele>607.341891</ele>
        <time>2025-05-18T15:54:43.473Z</time>
      </trkpt>
      <trkpt lat="47.730438" lon="9.875477">
        <ele>608.144999</ele>
        <time>2025-05-18T15:54:47.571Z</time>
      </trkpt>
      <trkpt lat="47.730644" lon="9.875022">
        <ele>610.250328</ele>
        <time>2025-05-18T15:54:58.802Z</time>
      </trkpt>
      <trkpt lat="47.730871" lon="9.874696">
        <ele>612.051460</ele>
        <time>2025-05-18T15:55:08.441Z</time>
      </trkpt>
      <trkpt lat="47.731122" lon="9.874429">
        <ele>613.812763</ele>
        <time>2025-05-18T15:55:17.580Z</time>
      </trkpt>
      <trkpt lat="47.731480" lon="9.874172">
        <ele>615.598882</ele>
        <time>2025-05-18T15:55:28.316Z</time>
      </trkpt>
      <trkpt lat="47.731631" lon="9.874123">
        <ele>616.086129</ele>
        <time>2025-05-18T15:55:32.138Z</time>
      </trkpt>
      <trkpt lat="47.731695" lon="9.874279">
        <ele>616.473596</ele>
        <time>2025-05-18T15:55:35.079Z</time>
      </trkpt>
      <trkpt lat="47.731691" lon="9.874484">
        <ele>616.908469</ele>
        <time>2025-05-18T15:55:38.333Z</time>
      </trkpt>
      <trkpt lat="47.731624" lon="9.874599">
        <ele>617.231081</ele>
        <time>2025-05-18T15:55:40.717Z</time>
      </trkpt>
      <trkpt lat="47.731335" lon="9.874714">
        <ele>618.174246</ele>
        <time>2025-05-18T15:55:47.577Z</time>
      </trkpt>
      <trkpt lat="47.731137" lon="9.874861">
        <ele>618.871958</ele>
        <time>2025-05-18T15:55:52.639Z</time>
      </trkpt>
      <trkpt lat="47.731039" lon="9.875028">
        <ele>619.341906</ele>
        <time>2025-05-18T15:55:56.099Z</time>
      </trkpt>
      <trkpt lat="47.731016" lon="9.875147">
        <ele>619.604453</ele>
        <time>2025-05-18T15:55:58.029Z</time>
      </trkpt>
      <trkpt lat="47.731039" lon="9.875269">
        <ele>619.873120</ele>
        <time>2025-05-18T15:56:00.057Z</time>
      </trkpt>
      <trkpt lat="47.731144" lon="9.875584">
        <ele>620.618591</ele>
        <time>2025-05-18T15:56:05.800Z</time>
      </trkpt>
      <trkpt lat="47.731363" lon="9.875982">
        <ele>622.483207</ele>
        <time>2025-05-18T15:56:14.758Z</time>
      </trkpt>
      <trkpt lat="47.731560" lon="9.876160">
        <ele>623.753421</ele>
        <time>2025-05-18T15:56:21.208Z</time>
      </trkpt>
      <trkpt lat="47.731934" lon="9.876391">
        <ele>625.984928</ele>
        <time>2025-05-18T15:56:33.073Z</time>
      </trkpt>
      <trkpt lat="47.732413" lon="9.876758">
        <ele>628.954080</ele>
        <time>2025-05-18T15:56:48.872Z</time>
      </trkpt>
      <trkpt lat="47.732773" lon="9.877177">
        <ele>631.495982</ele>
        <time>2025-05-18T15:57:01.432Z</time>
      </trkpt>
      <trkpt lat="47.733129" lon="9.877774">
        <ele>634.528577</ele>
        <time>2025-05-18T15:57:16.132Z</time>
      </trkpt>
      <trkpt lat="47.733360" lon="9.878220">
        <ele>636.668185</ele>
        <time>2025-05-18T15:57:26.479Z</time>
      </trkpt>
      <trkpt lat="47.733403" lon="9.878274">
        <ele>636.986270</ele>
        <time>2025-05-18T15:57:28.002Z</time>
      </trkpt>
      <trkpt lat="47.733443" lon="9.878279">
        <ele>637.213117</ele>
        <time>2025-05-18T15:57:29.083Z</time>
      </trkpt>
      <trkpt lat="47.733827" lon="9.878343">
        <ele>639.396785</ele>
        <time>2025-05-18T15:57:39.462Z</time>
      </trkpt>
      <trkpt lat="47.734016" lon="9.878715">
        <ele>641.301129</ele>
        <time>2025-05-18T15:57:48.261Z</time>
      </trkpt>
      <trkpt lat="47.734170" lon="9.878696">
        <ele>642.449547</ele>
        <time>2025-05-18T15:57:52.791Z</time>
      </trkpt>
      <trkpt lat="47.734185" lon="9.878694">
        <ele>642.561470</ele>
        <time>2025-05-18T15:57:53.255Z</time>
      </trkpt>
      <trkpt lat="47.734363" lon="9.879166">
        <ele>645.266253</ele>
        <time>2025-05-18T15:58:04.464Z</time>
      </trkpt>
      <trkpt lat="47.734559" lon="9.879404">
        <ele>647.146915</ele>
        <time>2025-05-18T15:58:12.395Z</time>
      </trkpt>
      <trkpt lat="47.734823" lon="9.879583">
        <ele>649.303261</ele>
        <time>2025-05-18T15:58:21.503Z</time>
      </trkpt>
      <trkpt lat="47.736162" lon="9.880311">
        <ele>657.772606</ele>
        <time>2025-05-18T15:59:07.615Z</time>
      </trkpt>
      <trkpt lat="47.736344" lon="9.880370">
        <ele>658.647994</ele>
        <time>2025-05-18T15:59:12.868Z</time>
      </trkpt>
      <trkpt lat="47.736522" lon="9.880370">
        <ele>659.484492</ele>
        <time>2025-05-18T15:59:17.580Z</time>
      </trkpt>
      <trkpt lat="47.737067" lon="9.880063">
        <ele>662.223313</ele>
        <time>2025-05-18T15:59:31.307Z</time>
      </trkpt>
      <trkpt lat="47.737763" lon="9.879928">
        <ele>659.797291</ele>
        <time>2025-05-18T15:59:43.082Z</time>
      </trkpt>
      <trkpt lat="47.737953" lon="9.879998">
        <ele>658.934218</ele>
        <time>2025-05-18T15:59:46.035Z</time>
      </trkpt>
      <trkpt lat="47.738016" lon="9.880104">
        <ele>658.514747</ele>
        <time>2025-05-18T15:59:47.453Z</time>
      </trkpt>
      <trkpt lat="47.738259" lon="9.880509">
        <ele>656.905342</ele>
        <time>2025-05-18T15:59:52.801Z</time>
      </trkpt>
      <trkpt lat="47.738387" lon="9.880804">
        <ele>655.864334</ele>
        <time>2025-05-18T15:59:56.204Z</time>
      </trkpt>
      <trkpt lat="47.738389" lon="9.880813">
        <ele>655.836228</ele>
        <time>2025-05-18T15:59:56.296Z</time>
      </trkpt>
      <trkpt lat="47.738549" lon="9.881483">
        <ele>653.542595</ele>
        <time>2025-05-18T16:00:03.127Z</time>
      </trkpt>
      <trkpt lat="47.738670" lon="9.881817">
        <ele>652.188434</ele>
        <time>2025-05-18T16:00:06.766Z</time>
      </trkpt>
      <trkpt lat="47.738781" lon="9.882027">
        <ele>651.235044</ele>
        <time>2025-05-18T16:00:09.369Z</time>
      </trkpt>
      <trkpt lat="47.739293" lon="9.882734">
        <ele>647.526532</ele>
        <time>2025-05-18T16:00:19.837Z</time>
      </trkpt>
      <trkpt lat="47.739362" lon="9.882767">
        <ele>647.141833</ele>
        <time>2025-05-18T16:00:20.957Z</time>
      </trkpt>
      <trkpt lat="47.739434" lon="9.882756">
        <ele>646.757675</ele>
        <time>2025-05-18T16:00:22.085Z</time>
      </trkpt>
      <trkpt lat="47.740023" lon="9.882252">
        <ele>644.636433</ele>
        <time>2025-05-18T16:00:33.042Z</time>
      </trkpt>
      <trkpt lat="47.740186" lon="9.882169">
        <ele>644.422041</ele>
        <time>2025-05-18T16:00:36.052Z</time>
      </trkpt>
      <trkpt lat="47.740266" lon="9.882210">
        <ele>644.316745</ele>
        <time>2025-05-18T16:00:37.634Z</time>
      </trkpt>
      <trkpt lat="47.740323" lon="9.882323">
        <ele>644.198540</ele>
        <time>2025-05-18T16:00:39.473Z</time>
      </trkpt>
      <trkpt lat="47.740427" lon="9.882783">
        <ele>643.792431</ele>
        <time>2025-05-18T16:00:46.237Z</time>
      </trkpt>
      <trkpt lat="47.740848" lon="9.884283">
        <ele>643.172685</ele>
        <time>2025-05-18T16:01:10.394Z</time>
      </trkpt>
      <trkpt lat="47.740984" lon="9.884721">
        <ele>643.479042</ele>
        <time>2025-05-18T16:01:17.952Z</time>
      </trkpt>
      <trkpt lat="47.741264" lon="9.885470">
        <ele>644.023224</ele>
        <time>2025-05-18T16:01:31.464Z</time>
      </trkpt>
      <trkpt lat="47.741718" lon="9.886242">
        <ele>644.651794</ele>
        <time>2025-05-18T16:01:47.682Z</time>
      </trkpt>
      <trkpt lat="47.741985" lon="9.886757">
        <ele>644.988470</ele>
        <time>2025-05-18T16:01:57.796Z</time>
      </trkpt>
      <trkpt lat="47.742179" lon="9.887236">
        <ele>645.277971</ele>
        <time>2025-05-18T16:02:06.378Z</time>
      </trkpt>
      <trkpt lat="47.742609" lon="9.888401">
        <ele>645.967419</ele>
        <time>2025-05-18T16:02:26.800Z</time>
      </trkpt>
      <trkpt lat="47.742711" lon="9.888782">
        <ele>646.189848</ele>
        <time>2025-05-18T16:02:32.917Z</time>
      </trkpt>
      <trkpt lat="47.742731" lon="9.888960">
        <ele>646.287734</ele>
        <time>2025-05-18T16:02:35.624Z</time>
      </trkpt>
      <trkpt lat="47.742732" lon="9.889636">
        <ele>646.654396</ele>
        <time>2025-05-18T16:02:45.794Z</time>
      </trkpt>
      <trkpt lat="47.742798" lon="9.889883">
        <ele>646.798558</ele>
        <time>2025-05-18T16:02:49.804Z</time>
      </trkpt>
      <trkpt lat="47.742898" lon="9.890095">
        <ele>646.939015</ele>
        <time>2025-05-18T16:02:53.725Z</time>
      </trkpt>
      <trkpt lat="47.743851" lon="9.891864">
        <ele>647.859516</ele>
        <time>2025-05-18T16:03:27.529Z</time>
      </trkpt>
      <trkpt lat="47.744111" lon="9.892301">
        <ele>648.050845</ele>
        <time>2025-05-18T16:03:35.996Z</time>
      </trkpt>
      <trkpt lat="47.744425" lon="9.892706">
        <ele>648.253527</ele>
        <time>2025-05-18T16:03:44.827Z</time>
      </trkpt>
      <trkpt lat="47.744887" lon="9.893154">
        <ele>649.319972</ele>
        <time>2025-05-18T16:03:56.617Z</time>
      </trkpt>
      <trkpt lat="47.745371" lon="9.893689">
        <ele>650.522403</ele>
        <time>2025-05-18T16:04:10.289Z</time>
      </trkpt>
      <trkpt lat="47.745963" lon="9.893565">
        <ele>651.714441</ele>
        <time>2025-05-18T16:04:25.281Z</time>
      </trkpt>
      <trkpt lat="47.747255" lon="9.893625">
        <ele>657.650731</ele>
        <time>2025-05-18T16:05:02.291Z</time>
      </trkpt>
      <trkpt lat="47.747475" lon="9.893706">
        <ele>658.724412</ele>
        <time>2025-05-18T16:05:08.475Z</time>
      </trkpt>
      <trkpt lat="47.747801" lon="9.893897">
        <ele>660.374114</ele>
        <time>2025-05-18T16:05:17.527Z</time>
      </trkpt>
      <trkpt lat="47.748662" lon="9.894405">
        <ele>661.290686</ele>
        <time>2025-05-18T16:05:39.512Z</time>
      </trkpt>
      <trkpt lat="47.748812" lon="9.894465">
        <ele>661.444389</ele>
        <time>2025-05-18T16:05:42.864Z</time>
      </trkpt>
      <trkpt lat="47.748947" lon="9.894462">
        <ele>661.577989</ele>
        <time>2025-05-18T16:05:45.664Z</time>
      </trkpt>
      <trkpt lat="47.749270" lon="9.894360">
        <ele>661.904730</ele>
        <time>2025-05-18T16:05:52.611Z</time>
      </trkpt>
      <trkpt lat="47.749474" lon="9.894304">
        <ele>662.110001</ele>
        <time>2025-05-18T16:05:57.002Z</time>
      </trkpt>
      <trkpt lat="47.749619" lon="9.894304">
        <ele>662.095108</ele>
        <time>2025-05-18T16:06:00.097Z</time>
      </trkpt>
      <trkpt lat="47.749848" lon="9.894363">
        <ele>661.968932</ele>
        <time>2025-05-18T16:06:05.084Z</time>
      </trkpt>
      <trkpt lat="47.750028" lon="9.894316">
        <ele>661.869716</ele>
        <time>2025-05-18T16:06:09.018Z</time>
      </trkpt>
      <trkpt lat="47.750169" lon="9.894200">
        <ele>661.782237</ele>
        <time>2025-05-18T16:06:12.495Z</time>
      </trkpt>
      <trkpt lat="47.750734" lon="9.893560">
        <ele>661.396668</ele>
        <time>2025-05-18T16:06:27.575Z</time>
      </trkpt>
      <trkpt lat="47.751194" lon="9.893175">
        <ele>660.938646</ele>
        <time>2025-05-18T16:06:38.444Z</time>
      </trkpt>
      <trkpt lat="47.751418" lon="9.893037">
        <ele>660.457792</ele>
        <time>2025-05-18T16:06:43.214Z</time>
      </trkpt>
      <trkpt lat="47.751660" lon="9.892960">
        <ele>659.966983</ele>
        <time>2025-05-18T16:06:47.903Z</time>
      </trkpt>
      <trkpt lat="47.752134" lon="9.893186">
        <ele>658.979795</ele>
        <time>2025-05-18T16:06:56.958Z</time>
      </trkpt>
      <trkpt lat="47.752529" lon="9.893213">
        <ele>658.195579</ele>
        <time>2025-05-18T16:07:03.931Z</time>
      </trkpt>
      <trkpt lat="47.752600" lon="9.893257">
        <ele>658.043034</ele>
        <time>2025-05-18T16:07:05.283Z</time>
      </trkpt>
      <trkpt lat="47.752825" lon="9.893564">
        <ele>657.476670</ele>
        <time>2025-05-18T16:07:10.611Z</time>
      </trkpt>
      <trkpt lat="47.753333" lon="9.893968">
        <ele>656.597467</ele>
        <time>2025-05-18T16:07:20.931Z</time>
      </trkpt>
      <trkpt lat="47.753668" lon="9.894480">
        <ele>655.864364</ele>
        <time>2025-05-18T16:07:30.198Z</time>
      </trkpt>
      <trkpt lat="47.753774" lon="9.894546">
        <ele>655.688979</ele>
        <time>2025-05-18T16:07:32.514Z</time>
      </trkpt>
      <trkpt lat="47.753899" lon="9.894531">
        <ele>655.497578</ele>
        <time>2025-05-18T16:07:35.078Z</time>
      </trkpt>
      <trkpt lat="47.754160" lon="9.894381">
        <ele>655.070527</ele>
        <time>2025-05-18T16:07:40.889Z</time>
      </trkpt>
      <trkpt lat="47.754306" lon="9.894409">
        <ele>654.864805</ele>
        <time>2025-05-18T16:07:44.008Z</time>
      </trkpt>
      <trkpt lat="47.754375" lon="9.894304">
        <ele>654.886834</ele>
        <time>2025-05-18T16:07:46.095Z</time>
      </trkpt>
      <trkpt lat="47.754470" lon="9.894227">
        <ele>654.910978</ele>
        <time>2025-05-18T16:07:48.415Z</time>
      </trkpt>
      <trkpt lat="47.754867" lon="9.894174">
        <ele>654.999930</ele>
        <time>2025-05-18T16:07:57.119Z</time>
      </trkpt>
      <trkpt lat="47.755330" lon="9.894056">
        <ele>655.104761</ele>
        <time>2025-05-18T16:08:07.731Z</time>
      </trkpt>
      <trkpt lat="47.755876" lon="9.894065">
        <ele>655.226616</ele>
        <time>2025-05-18T16:08:20.258Z</time>
      </trkpt>
      <trkpt lat="47.756162" lon="9.893982">
        <ele>655.192863</ele>
        <time>2025-05-18T16:08:26.922Z</time>
      </trkpt>
      <trkpt lat="47.756394" lon="9.893870">
        <ele>655.054332</ele>
        <time>2025-05-18T16:08:32.460Z</time>
      </trkpt>
      <trkpt lat="47.756582" lon="9.893692">
        <ele>654.927762</ele>
        <time>2025-05-18T16:08:37.514Z</time>
      </trkpt>
      <trkpt lat="47.756808" lon="9.893360">
        <ele>654.747359</ele>
        <time>2025-05-18T16:08:44.598Z</time>
      </trkpt>
      <trkpt lat="47.757452" lon="9.892196">
        <ele>653.963745</ele>
        <time>2025-05-18T16:09:04.290Z</time>
      </trkpt>
      <trkpt lat="47.757784" lon="9.891801">
        <ele>653.009525</ele>
        <time>2025-05-18T16:09:11.739Z</time>
      </trkpt>
      <trkpt lat="47.758170" lon="9.891188">
        <ele>651.742177</ele>
        <time>2025-05-18T16:09:21.750Z</time>
      </trkpt>
      <trkpt lat="47.758289" lon="9.890918">
        <ele>651.255023</ele>
        <time>2025-05-18T16:09:25.624Z</time>
      </trkpt>
      <trkpt lat="47.758566" lon="9.889987">
        <ele>649.889359</ele>
        <time>2025-05-18T16:09:38.199Z</time>
      </trkpt>
      <trkpt lat="47.759018" lon="9.888967">
        <ele>648.692434</ele>
        <time>2025-05-18T16:09:53.576Z</time>
      </trkpt>
      <trkpt lat="47.759092" lon="9.888755">
        <ele>648.458399</ele>
        <time>2025-05-18T16:09:56.594Z</time>
      </trkpt>
      <trkpt lat="47.759097" lon="9.888314">
        <ele>648.026273</ele>
        <time>2025-05-18T16:10:02.249Z</time>
      </trkpt>
      <trkpt lat="47.759227" lon="9.888323">
        <ele>647.836605</ele>
        <time>2025-05-18T16:10:04.897Z</time>
      </trkpt>
      <trkpt lat="47.759495" lon="9.888430">
        <ele>647.709474</ele>
        <time>2025-05-18T16:10:10.817Z</time>
      </trkpt>
      <trkpt lat="47.759616" lon="9.888436">
        <ele>647.855743</ele>
        <time>2025-05-18T16:10:13.456Z</time>
      </trkpt>
      <trkpt lat="47.759730" lon="9.888142">
        <ele>648.131400</ele>
        <time>2025-05-18T16:10:18.533Z</time>
      </trkpt>
      <trkpt lat="47.759836" lon="9.887868">
        <ele>648.388156</ele>
        <time>2025-05-18T16:10:23.366Z</time>
      </trkpt>
      <trkpt lat="47.760137" lon="9.887431">
        <ele>648.896306</ele>
        <time>2025-05-18T16:10:33.293Z</time>
      </trkpt>
      <trkpt lat="47.760174" lon="9.887301">
        <ele>649.010962</ele>
        <time>2025-05-18T16:10:35.575Z</time>
      </trkpt>
      <trkpt lat="47.760560" lon="9.887686">
        <ele>649.572441</ele>
        <time>2025-05-18T16:10:46.898Z</time>
      </trkpt>
      <trkpt lat="47.760769" lon="9.887790">
        <ele>649.893964</ele>
        <time>2025-05-18T16:10:52.341Z</time>
      </trkpt>
      <trkpt lat="47.761590" lon="9.887777">
        <ele>651.555784</ele>
        <time>2025-05-18T16:11:12.246Z</time>
      </trkpt>
      <trkpt lat="47.762148" lon="9.887956">
        <ele>652.711152</ele>
        <time>2025-05-18T16:11:25.950Z</time>
      </trkpt>
      <trkpt lat="47.762914" lon="9.888236">
        <ele>653.694610</ele>
        <time>2025-05-18T16:11:44.514Z</time>
      </trkpt>
      <trkpt lat="47.763342" lon="9.888465">
        <ele>653.995218</ele>
        <time>2025-05-18T16:11:55.044Z</time>
      </trkpt>
      <trkpt lat="47.764283" lon="9.889104">
        <ele>654.515917</ele>
        <time>2025-05-18T16:12:18.300Z</time>
      </trkpt>
      <trkpt lat="47.765176" lon="9.889809">
        <ele>654.010328</ele>
        <time>2025-05-18T16:12:39.125Z</time>
      </trkpt>
      <trkpt lat="47.765934" lon="9.890476">
        <ele>653.775314</ele>
        <time>2025-05-18T16:12:57.412Z</time>
      </trkpt>
      <trkpt lat="47.766657" lon="9.891241">
        <ele>654.112746</ele>
        <time>2025-05-18T16:13:17.391Z</time>
      </trkpt>
      <trkpt lat="47.766826" lon="9.891582">
        <ele>654.221054</ele>
        <time>2025-05-18T16:13:23.983Z</time>
      </trkpt>
      <trkpt lat="47.766919" lon="9.891523">
        <ele>654.259507</ele>
        <time>2025-05-18T16:13:26.276Z</time>
      </trkpt>
      <trkpt lat="47.767293" lon="9.891275">
        <ele>654.428532</ele>
        <time>2025-05-18T16:13:35.484Z</time>
      </trkpt>
      <trkpt lat="47.767791" lon="9.890999">
        <ele>654.690916</ele>
        <time>2025-05-18T16:13:47.341Z</time>
      </trkpt>
      <trkpt lat="47.768666" lon="9.890644">
        <ele>655.138706</ele>
        <time>2025-05-18T16:14:06.917Z</time>
      </trkpt>
      <trkpt lat="47.769929" lon="9.890350">
        <ele>655.469614</ele>
        <time>2025-05-18T16:14:34.351Z</time>
      </trkpt>
      <trkpt lat="47.770980" lon="9.890258">
        <ele>655.590642</ele>
        <time>2025-05-18T16:14:56.959Z</time>
      </trkpt>
      <trkpt lat="47.771375" lon="9.890293">
        <ele>655.543524</ele>
        <time>2025-05-18T16:15:05.355Z</time>
      </trkpt>
      <trkpt lat="47.771481" lon="9.890333">
        <ele>655.530502</ele>
        <time>2025-05-18T16:15:07.634Z</time>
      </trkpt>
      <trkpt lat="47.771566" lon="9.890443">
        <ele>655.517088</ele>
        <time>2025-05-18T16:15:09.977Z</time>
      </trkpt>
      <trkpt lat="47.771641" lon="9.890452">
        <ele>655.508128</ele>
        <time>2025-05-18T16:15:11.550Z</time>
      </trkpt>
      <trkpt lat="47.771709" lon="9.890406">
        <ele>655.499233</ele>
        <time>2025-05-18T16:15:13.094Z</time>
      </trkpt>
      <trkpt lat="47.771755" lon="9.890318">
        <ele>655.490311</ele>
        <time>2025-05-18T16:15:14.656Z</time>
      </trkpt>
      <trkpt lat="47.772227" lon="9.890292">
        <ele>655.434068</ele>
        <time>2025-05-18T16:15:24.320Z</time>
      </trkpt>
      <trkpt lat="47.772709" lon="9.890325">
        <ele>655.232638</ele>
        <time>2025-05-18T16:15:34.083Z</time>
      </trkpt>
      <trkpt lat="47.773153" lon="9.890405">
        <ele>654.955997</ele>
        <time>2025-05-18T16:15:43.186Z</time>
      </trkpt>
      <trkpt lat="47.773592" lon="9.890546">
        <ele>654.678200</ele>
        <time>2025-05-18T16:15:52.377Z</time>
      </trkpt>
      <trkpt lat="47.774141" lon="9.890815">
        <ele>654.320680</ele>
        <time>2025-05-18T16:16:03.916Z</time>
      </trkpt>
      <trkpt lat="47.774372" lon="9.890962">
        <ele>654.076812</ele>
        <time>2025-05-18T16:16:08.646Z</time>
      </trkpt>
      <trkpt lat="47.774868" lon="9.891364">
        <ele>653.495277</ele>
        <time>2025-05-18T16:16:18.634Z</time>
      </trkpt>
      <trkpt lat="47.775576" lon="9.892153">
        <ele>652.584531</ele>
        <time>2025-05-18T16:16:35.724Z</time>
      </trkpt>
      <trkpt lat="47.775799" lon="9.892388">
        <ele>652.545450</ele>
        <time>2025-05-18T16:16:41.274Z</time>
      </trkpt>
      <trkpt lat="47.776163" lon="9.892688">
        <ele>652.841397</ele>
        <time>2025-05-18T16:16:50.215Z</time>
      </trkpt>
      <trkpt lat="47.776534" lon="9.892893">
        <ele>653.122869</ele>
        <time>2025-05-18T16:16:59.298Z</time>
      </trkpt>
      <trkpt lat="47.776998" lon="9.893201">
        <ele>653.484227</ele>
        <time>2025-05-18T16:17:10.959Z</time>
      </trkpt>
      <trkpt lat="47.777306" lon="9.893565">
        <ele>653.716092</ele>
        <time>2025-05-18T16:17:19.736Z</time>
      </trkpt>
      <trkpt lat="47.777417" lon="9.893745">
        <ele>653.686691</ele>
        <time>2025-05-18T16:17:23.351Z</time>
      </trkpt>
      <trkpt lat="47.777814" lon="9.894256">
        <ele>653.592687</ele>
        <time>2025-05-18T16:17:34.731Z</time>
      </trkpt>
      <trkpt lat="47.777957" lon="9.894399">
        <ele>653.561832</ele>
        <time>2025-05-18T16:17:38.365Z</time>
      </trkpt>
      <trkpt lat="47.778199" lon="9.894560">
        <ele>653.514359</ele>
        <time>2025-05-18T16:17:43.824Z</time>
      </trkpt>
      <trkpt lat="47.778218" lon="9.894402">
        <ele>653.495042</ele>
        <time>2025-05-18T16:17:46.016Z</time>
      </trkpt>
      <trkpt lat="47.778273" lon="9.894337">
        <ele>653.482464</ele>
        <time>2025-05-18T16:17:47.393Z</time>
      </trkpt>
      <trkpt lat="47.778634" lon="9.894264">
        <ele>653.417220</ele>
        <time>2025-05-18T16:17:54.524Z</time>
      </trkpt>
      <trkpt lat="47.778889" lon="9.894171">
        <ele>653.017644</ele>
        <time>2025-05-18T16:17:59.435Z</time>
      </trkpt>
      <trkpt lat="47.779113" lon="9.894006">
        <ele>652.500526</ele>
        <time>2025-05-18T16:18:03.983Z</time>
      </trkpt>
      <trkpt lat="47.779182" lon="9.893861">
        <ele>652.253501</ele>
        <time>2025-05-18T16:18:06.133Z</time>
      </trkpt>
      <trkpt lat="47.779278" lon="9.893371">
        <ele>651.543879</ele>
        <time>2025-05-18T16:18:12.124Z</time>
      </trkpt>
      <trkpt lat="47.779427" lon="9.892892">
        <ele>650.810025</ele>
        <time>2025-05-18T16:18:18.174Z</time>
      </trkpt>
      <trkpt lat="47.779862" lon="9.891957">
        <ele>649.199645</ele>
        <time>2025-05-18T16:18:30.989Z</time>
      </trkpt>
      <trkpt lat="47.779889" lon="9.891633">
        <ele>648.716410</ele>
        <time>2025-05-18T16:18:34.723Z</time>
      </trkpt>
      <trkpt lat="47.779797" lon="9.891287">
        <ele>648.165651</ele>
        <time>2025-05-18T16:18:39.001Z</time>
      </trkpt>
      <trkpt lat="47.779844" lon="9.891218">
        <ele>648.020229</ele>
        <time>2025-05-18T16:18:40.135Z</time>
      </trkpt>
      <trkpt lat="47.780340" lon="9.890735">
        <ele>646.714606</ele>
        <time>2025-05-18T16:18:50.426Z</time>
      </trkpt>
      <trkpt lat="47.780926" lon="9.890176">
        <ele>645.439044</ele>
        <time>2025-05-18T16:19:02.854Z</time>
      </trkpt>
      <trkpt lat="47.781146" lon="9.890013">
        <ele>645.156396</ele>
        <time>2025-05-18T16:19:07.279Z</time>
      </trkpt>
      <trkpt lat="47.782028" lon="9.889503">
        <ele>644.068123</ele>
        <time>2025-05-18T16:19:25.061Z</time>
      </trkpt>
      <trkpt lat="47.782118" lon="9.889460">
        <ele>643.959410</ele>
        <time>2025-05-18T16:19:26.927Z</time>
      </trkpt>
      <trkpt lat="47.784129" lon="9.888324">
        <ele>643.661827</ele>
        <time>2025-05-18T16:20:12.474Z</time>
      </trkpt>
      <trkpt lat="47.784336" lon="9.888094">
        <ele>643.723729</ele>
        <time>2025-05-18T16:20:18.083Z</time>
      </trkpt>
      <trkpt lat="47.784658" lon="9.887449">
        <ele>643.853106</ele>
        <time>2025-05-18T16:20:29.686Z</time>
      </trkpt>
      <trkpt lat="47.785018" lon="9.886768">
        <ele>643.992620</ele>
        <time>2025-05-18T16:20:42.078Z</time>
      </trkpt>
      <trkpt lat="47.785969" lon="9.885819">
        <ele>645.191690</ele>
        <time>2025-05-18T16:21:07.106Z</time>
      </trkpt>
      <trkpt lat="47.786649" lon="9.885083">
        <ele>646.350941</ele>
        <time>2025-05-18T16:21:26.764Z</time>
      </trkpt>
      <trkpt lat="47.786867" lon="9.884802">
        <ele>646.763224</ele>
        <time>2025-05-18T16:21:33.722Z</time>
      </trkpt>
      <trkpt lat="47.786946" lon="9.884672">
        <ele>646.937736</ele>
        <time>2025-05-18T16:21:36.528Z</time>
      </trkpt>
      <trkpt lat="47.787223" lon="9.884835">
        <ele>647.379105</ele>
        <time>2025-05-18T16:21:43.565Z</time>
      </trkpt>
      <trkpt lat="47.787543" lon="9.885077">
        <ele>647.910973</ele>
        <time>2025-05-18T16:21:51.923Z</time>
      </trkpt>
      <trkpt lat="47.787724" lon="9.884493">
        <ele>648.551268</ele>
        <time>2025-05-18T16:22:01.750Z</time>
      </trkpt>
      <trkpt lat="47.787784" lon="9.884271">
        <ele>648.789497</ele>
        <time>2025-05-18T16:22:05.418Z</time>
      </trkpt>
      <trkpt lat="47.787822" lon="9.883821">
        <ele>649.215874</ele>
        <time>2025-05-18T16:22:12.120Z</time>
      </trkpt>
      <trkpt lat="47.787744" lon="9.883171">
        <ele>649.169627</ele>
        <time>2025-05-18T16:22:21.171Z</time>
      </trkpt>
      <trkpt lat="47.787711" lon="9.882738">
        <ele>649.139104</ele>
        <time>2025-05-18T16:22:27.253Z</time>
      </trkpt>
      <trkpt lat="47.787687" lon="9.882334">
        <ele>649.110697</ele>
        <time>2025-05-18T16:22:32.999Z</time>
      </trkpt>
      <trkpt lat="47.787689" lon="9.882035">
        <ele>649.089754</ele>
        <time>2025-05-18T16:22:37.089Z</time>
      </trkpt>
      <trkpt lat="47.787647" lon="9.881538">
        <ele>649.054669</ele>
        <time>2025-05-18T16:22:43.977Z</time>
      </trkpt>
      <trkpt lat="47.787609" lon="9.881433">
        <ele>649.046315</ele>
        <time>2025-05-18T16:22:45.612Z</time>
      </trkpt>
      <trkpt lat="47.787628" lon="9.880995">
        <ele>649.048958</ele>
        <time>2025-05-18T16:22:51.613Z</time>
      </trkpt>
      <trkpt lat="47.787771" lon="9.880983">
        <ele>649.068521</ele>
        <time>2025-05-18T16:22:54.646Z</time>
      </trkpt>
      <trkpt lat="47.787817" lon="9.880932">
        <ele>649.076356</ele>
        <time>2025-05-18T16:22:55.897Z</time>
      </trkpt>
      <trkpt lat="47.788007" lon="9.880722">
        <ele>649.108680</ele>
        <time>2025-05-18T16:23:01.047Z</time>
      </trkpt>
      <trkpt lat="47.788053" lon="9.880834">
        <ele>649.120727</ele>
        <time>2025-05-18T16:23:02.923Z</time>
      </trkpt>
      <trkpt lat="47.788294" lon="9.880736">
        <ele>649.154850</ele>
        <time>2025-05-18T16:23:08.231Z</time>
      </trkpt>
      <trkpt lat="47.788463" lon="9.880677">
        <ele>649.178560</ele>
        <time>2025-05-18T16:23:11.983Z</time>
      </trkpt>
      <trkpt lat="47.788675" lon="9.880605">
        <ele>649.208261</ele>
        <time>2025-05-18T16:23:16.632Z</time>
      </trkpt>
      <trkpt lat="47.788725" lon="9.880795">
        <ele>649.226986</ele>
        <time>2025-05-18T16:23:26.187Z</time>
      </trkpt>
      <trkpt lat="47.788727" lon="9.880941">
        <ele>649.240387</ele>
        <time>2025-05-18T16:23:33.001Z</time>
      </trkpt>
      <trkpt lat="47.788696" lon="9.880998">
        <ele>649.247117</ele>
        <time>2025-05-18T16:23:36.424Z</time>
      </trkpt>
      <trkpt lat="47.788597" lon="9.881056">
        <ele>649.261649</ele>
        <time>2025-05-18T16:23:43.867Z</time>
      </trkpt>
      <trkpt lat="47.788583" lon="9.881096">
        <ele>649.265788</ele>
        <time>2025-05-18T16:23:45.963Z</time>
      </trkpt>
      <trkpt lat="47.788539" lon="9.881224">
        <ele>649.285347</ele>
        <time>2025-05-18T16:23:52.669Z</time>
      </trkpt>
      <trkpt lat="47.788438" lon="9.881521">
        <ele>649.375034</ele>
        <time>2025-05-18T16:24:08.182Z</time>
      </trkpt>
      <trkpt lat="47.788446" lon="9.881604">
        <ele>649.397626</ele>
        <time>2025-05-18T16:24:12.124Z</time>
      </trkpt>
      <trkpt lat="47.788715" lon="9.881469">
        <ele>649.511466</ele>
        <time>2025-05-18T16:24:18.434Z</time>
      </trkpt>
      <trkpt lat="47.788747" lon="9.881644">
        <ele>649.560331</ele>
        <time>2025-05-18T16:24:26.897Z</time>
      </trkpt>
      <trkpt lat="47.788824" lon="9.882079">
        <ele>649.681532</ele>
        <time>2025-05-18T16:24:47.870Z</time>
      </trkpt>
      <trkpt lat="47.788874" lon="9.882365">
        <ele>649.761155</ele>
        <time>2025-05-18T16:25:01.702Z</time>
      </trkpt>
      <trkpt lat="47.788912" lon="9.882617">
        <ele>649.830740</ele>
        <time>2025-05-18T16:25:13.724Z</time>
      </trkpt>
      <trkpt lat="47.788774" lon="9.882739">
        <ele>649.895106</ele>
        <time>2025-05-18T16:25:24.828Z</time>
      </trkpt>
      <trkpt lat="47.788865" lon="9.882901">
        <ele>649.951999</ele>
        <time>2025-05-18T16:25:27.792Z</time>
      </trkpt>
      <trkpt lat="47.788916" lon="9.883047">
        <ele>649.996334</ele>
        <time>2025-05-18T16:25:30.099Z</time>
      </trkpt>
      <trkpt lat="47.789113" lon="9.883339">
        <ele>649.998176</ele>
        <time>2025-05-18T16:25:35.815Z</time>
      </trkpt>
      <trkpt lat="47.789400" lon="9.883571">
        <ele>649.999591</ele>
        <time>2025-05-18T16:25:42.591Z</time>
      </trkpt>
      <trkpt lat="47.789507" lon="9.883651">
        <ele>650.000109</ele>
        <time>2025-05-18T16:25:45.066Z</time>
      </trkpt>
      <trkpt lat="47.789817" lon="9.883782">
        <ele>650.001505</ele>
        <time>2025-05-18T16:25:51.865Z</time>
      </trkpt>
      <trkpt lat="47.789910" lon="9.883798">
        <ele>650.001910</ele>
        <time>2025-05-18T16:25:53.845Z</time>
      </trkpt>
      <trkpt lat="47.790335" lon="9.883815">
        <ele>650.003751</ele>
        <time>2025-05-18T16:26:02.991Z</time>
      </trkpt>
      <trkpt lat="47.791052" lon="9.883754">
        <ele>649.801994</ele>
        <time>2025-05-18T16:26:18.279Z</time>
      </trkpt>
      <trkpt lat="47.791172" lon="9.883739">
        <ele>649.751470</ele>
        <time>2025-05-18T16:26:20.819Z</time>
      </trkpt>
      <trkpt lat="47.791722" lon="9.883654">
        <ele>649.519472</ele>
        <time>2025-05-18T16:26:31.987Z</time>
      </trkpt>
      <trkpt lat="47.791985" lon="9.883470">
        <ele>649.397547</ele>
        <time>2025-05-18T16:26:37.700Z</time>
      </trkpt>
      <trkpt lat="47.792100" lon="9.883317">
        <ele>649.332834</ele>
        <time>2025-05-18T16:26:40.773Z</time>
      </trkpt>
      <trkpt lat="47.792145" lon="9.883225">
        <ele>649.300757</ele>
        <time>2025-05-18T16:26:42.290Z</time>
      </trkpt>
      <trkpt lat="47.792165" lon="9.883183">
        <ele>649.286246</ele>
        <time>2025-05-18T16:26:42.959Z</time>
      </trkpt>
      <trkpt lat="47.792197" lon="9.882952">
        <ele>649.210087</ele>
        <time>2025-05-18T16:26:46.065Z</time>
      </trkpt>
      <trkpt lat="47.792183" lon="9.882675">
        <ele>649.106835</ele>
        <time>2025-05-18T16:26:49.683Z</time>
      </trkpt>
      <trkpt lat="47.792073" lon="9.882278">
        <ele>648.947212</ele>
        <time>2025-05-18T16:26:55.227Z</time>
      </trkpt>
      <trkpt lat="47.792096" lon="9.882291">
        <ele>648.933600</ele>
        <time>2025-05-18T16:26:56.884Z</time>
      </trkpt>
      <trkpt lat="47.792041" lon="9.882020">
        <ele>648.828374</ele>
        <time>2025-05-18T16:27:10.126Z</time>
      </trkpt>
      <trkpt lat="47.791955" lon="9.881211">
        <ele>648.523926</ele>
        <time>2025-05-18T16:27:21.062Z</time>
      </trkpt>
      <trkpt lat="47.791865" lon="9.880359">
        <ele>648.239604</ele>
        <time>2025-05-18T16:27:33.494Z</time>
      </trkpt>
      <trkpt lat="47.792315" lon="9.880164">
        <ele>648.162341</ele>
        <time>2025-05-18T16:27:43.272Z</time>
      </trkpt>
      <trkpt lat="47.792476" lon="9.880038">
        <ele>648.132354</ele>
        <time>2025-05-18T16:27:47.062Z</time>
      </trkpt>
      <trkpt lat="47.792655" lon="9.879899">
        <ele>648.099072</ele>
        <time>2025-05-18T16:27:51.237Z</time>
      </trkpt>
      <trkpt lat="47.792877" lon="9.879705">
        <ele>648.056633</ele>
        <time>2025-05-18T16:27:56.548Z</time>
      </trkpt>
      <trkpt lat="47.792933" lon="9.879650">
        <ele>648.045573</ele>
        <time>2025-05-18T16:27:57.886Z</time>
      </trkpt>
      <trkpt lat="47.793398" lon="9.879029">
        <ele>647.913026</ele>
        <time>2025-05-18T16:28:10.889Z</time>
      </trkpt>
      <trkpt lat="47.793578" lon="9.878816">
        <ele>647.804622</ele>
        <time>2025-05-18T16:28:15.667Z</time>
      </trkpt>
      <trkpt lat="47.793867" lon="9.878582">
        <ele>647.649527</ele>
        <time>2025-05-18T16:28:22.190Z</time>
      </trkpt>
      <trkpt lat="47.793929" lon="9.878533">
        <ele>647.616434</ele>
        <time>2025-05-18T16:28:23.596Z</time>
      </trkpt>
      <trkpt lat="47.794091" lon="9.879162">
        <ele>647.403089</ele>
        <time>2025-05-18T16:28:32.676Z</time>
      </trkpt>
      <trkpt lat="47.794460" lon="9.878954">
        <ele>647.217077</ele>
        <time>2025-05-18T16:28:40.549Z</time>
      </trkpt>
      <trkpt lat="47.794700" lon="9.878842">
        <ele>647.105524</ele>
        <time>2025-05-18T16:28:45.751Z</time>
      </trkpt>
      <trkpt lat="47.794793" lon="9.878851">
        <ele>647.087194</ele>
        <time>2025-05-18T16:28:47.720Z</time>
      </trkpt>
      <trkpt lat="47.795055" lon="9.879075">
        <ele>647.027770</ele>
        <time>2025-05-18T16:28:53.882Z</time>
      </trkpt>
      <trkpt lat="47.795097" lon="9.879126">
        <ele>647.017110</ele>
        <time>2025-05-18T16:28:54.960Z</time>
      </trkpt>
      <trkpt lat="47.795172" lon="9.879183">
        <ele>647.000548</ele>
        <time>2025-05-18T16:28:56.597Z</time>
      </trkpt>
      <trkpt lat="47.795257" lon="9.879269">
        <ele>646.980334</ele>
        <time>2025-05-18T16:28:58.647Z</time>
      </trkpt>
      <trkpt lat="47.795294" lon="9.879305">
        <ele>646.971641</ele>
        <time>2025-05-18T16:28:59.530Z</time>
      </trkpt>
      <trkpt lat="47.795378" lon="9.879460">
        <ele>646.945328</ele>
        <time>2025-05-18T16:29:02.255Z</time>
      </trkpt>
      <trkpt lat="47.795419" lon="9.879599">
        <ele>646.925271</ele>
        <time>2025-05-18T16:29:05.788Z</time>
      </trkpt>
      <trkpt lat="47.795383" lon="9.879640">
        <ele>646.916356</ele>
        <time>2025-05-18T16:29:07.368Z</time>
      </trkpt>
      <trkpt lat="47.795421" lon="9.879871">
        <ele>646.884934</ele>
        <time>2025-05-18T16:29:12.902Z</time>
      </trkpt>
      <trkpt lat="47.795702" lon="9.883349">
        <ele>646.718084</ele>
        <time>2025-05-18T16:30:34.266Z</time>
      </trkpt>
      <trkpt lat="47.795934" lon="9.883974">
        <ele>646.444444</ele>
        <time>2025-05-18T16:30:44.279Z</time>
      </trkpt>
      <trkpt lat="47.796016" lon="9.884068">
        <ele>646.371061</ele>
        <time>2025-05-18T16:30:46.422Z</time>
      </trkpt>
      <trkpt lat="47.796339" lon="9.884198">
        <ele>646.133819</ele>
        <time>2025-05-18T16:30:53.289Z</time>
      </trkpt>
      <trkpt lat="47.797103" lon="9.884445">
        <ele>645.579486</ele>
        <time>2025-05-18T16:31:09.119Z</time>
      </trkpt>
      <trkpt lat="47.798571" lon="9.884900">
        <ele>644.752403</ele>
        <time>2025-05-18T16:31:39.149Z</time>
      </trkpt>
      <trkpt lat="47.799209" lon="9.884871">
        <ele>644.458781</ele>
        <time>2025-05-18T16:31:52.315Z</time>
      </trkpt>
      <trkpt lat="47.799393" lon="9.884816">
        <ele>644.416503</ele>
        <time>2025-05-18T16:31:56.232Z</time>
      </trkpt>
      <trkpt lat="47.799926" lon="9.884702">
        <ele>644.295199</ele>
        <time>2025-05-18T16:32:07.445Z</time>
      </trkpt>
      <trkpt lat="47.800270" lon="9.884662">
        <ele>644.217469</ele>
        <time>2025-05-18T16:32:14.632Z</time>
      </trkpt>
      <trkpt lat="47.800917" lon="9.884625">
        <ele>644.085326</ele>
        <time>2025-05-18T16:32:27.932Z</time>
      </trkpt>
      <trkpt lat="47.801568" lon="9.884641">
        <ele>644.079858</ele>
        <time>2025-05-18T16:32:41.092Z</time>
      </trkpt>
      <trkpt lat="47.802453" lon="9.884382">
        <ele>644.072283</ele>
        <time>2025-05-18T16:33:00.023Z</time>
      </trkpt>
      <trkpt lat="47.802806" lon="9.884387">
        <ele>644.293172</ele>
        <time>2025-05-18T16:33:07.897Z</time>
      </trkpt>
      <trkpt lat="47.803119" lon="9.884463">
        <ele>644.706530</ele>
        <time>2025-05-18T16:33:15.024Z</time>
      </trkpt>
      <trkpt lat="47.803236" lon="9.884546">
        <ele>644.875457</ele>
        <time>2025-05-18T16:33:17.975Z</time>
      </trkpt>
      <trkpt lat="47.803596" lon="9.885029">
        <ele>645.507106</ele>
        <time>2025-05-18T16:33:29.126Z</time>
      </trkpt>
      <trkpt lat="47.803812" lon="9.885190">
        <ele>645.821956</ele>
        <time>2025-05-18T16:33:34.768Z</time>
      </trkpt>
      <trkpt lat="47.803930" lon="9.885185">
        <ele>645.975821</ele>
        <time>2025-05-18T16:33:37.512Z</time>
      </trkpt>
      <trkpt lat="47.804016" lon="9.885143">
        <ele>646.093791</ele>
        <time>2025-05-18T16:33:39.622Z</time>
      </trkpt>
      <trkpt lat="47.804314" lon="9.884945">
        <ele>646.498213</ele>
        <time>2025-05-18T16:33:47.157Z</time>
      </trkpt>
      <trkpt lat="47.804659" lon="9.884745">
        <ele>646.883715</ele>
        <time>2025-05-18T16:33:55.554Z</time>
      </trkpt>
      <trkpt lat="47.805054" lon="9.884604">
        <ele>647.306666</ele>
        <time>2025-05-18T16:34:04.646Z</time>
      </trkpt>
      <trkpt lat="47.805110" lon="9.884590">
        <ele>647.365792</ele>
        <time>2025-05-18T16:34:05.905Z</time>
      </trkpt>
      <trkpt lat="47.805364" lon="9.884538">
        <ele>647.632759</ele>
        <time>2025-05-18T16:34:11.827Z</time>
      </trkpt>
      <trkpt lat="47.805569" lon="9.884541">
        <ele>647.846226</ele>
        <time>2025-05-18T16:34:16.609Z</time>
      </trkpt>
      <trkpt lat="47.805766" lon="9.884585">
        <ele>648.053648</ele>
        <time>2025-05-18T16:34:21.242Z</time>
      </trkpt>
      <trkpt lat="47.806280" lon="9.884792">
        <ele>648.379828</ele>
        <time>2025-05-18T16:34:33.576Z</time>
      </trkpt>
      <trkpt lat="47.806488" lon="9.884938">
        <ele>648.448538</ele>
        <time>2025-05-18T16:34:38.858Z</time>
      </trkpt>
      <trkpt lat="47.806523" lon="9.884979">
        <ele>648.461845</ele>
        <time>2025-05-18T16:34:39.865Z</time>
      </trkpt>
      <trkpt lat="47.806619" lon="9.885154">
        <ele>648.507190</ele>
        <time>2025-05-18T16:34:43.196Z</time>
      </trkpt>
      <trkpt lat="47.806902" lon="9.885515">
        <ele>648.618540</ele>
        <time>2025-05-18T16:34:51.285Z</time>
      </trkpt>
      <trkpt lat="47.807258" lon="9.885747">
        <ele>648.734655</ele>
        <time>2025-05-18T16:34:59.626Z</time>
      </trkpt>
      <trkpt lat="47.807510" lon="9.885983">
        <ele>648.823608</ele>
        <time>2025-05-18T16:35:05.663Z</time>
      </trkpt>
      <trkpt lat="47.808518" lon="9.886941">
        <ele>648.600297</ele>
        <time>2025-05-18T16:35:28.995Z</time>
      </trkpt>
      <trkpt lat="47.808715" lon="9.887356">
        <ele>648.535726</ele>
        <time>2025-05-18T16:35:36.211Z</time>
      </trkpt>
      <trkpt lat="47.808842" lon="9.887780">
        <ele>648.571598</ele>
        <time>2025-05-18T16:35:43.082Z</time>
      </trkpt>
      <trkpt lat="47.809821" lon="9.893430">
        <ele>656.560031</ele>
        <time>2025-05-18T16:37:15.364Z</time>
      </trkpt>
      <trkpt lat="47.809912" lon="9.893674">
        <ele>656.860793</ele>
        <time>2025-05-18T16:37:19.742Z</time>
      </trkpt>
      <trkpt lat="47.810132" lon="9.894116">
        <ele>657.453653</ele>
        <time>2025-05-18T16:37:28.357Z</time>
      </trkpt>
      <trkpt lat="47.811321" lon="9.896527">
        <ele>659.469027</ele>
        <time>2025-05-18T16:38:13.772Z</time>
      </trkpt>
      <trkpt lat="47.811457" lon="9.896840">
        <ele>659.603811</ele>
        <time>2025-05-18T16:38:19.069Z</time>
      </trkpt>
      <trkpt lat="47.811481" lon="9.897086">
        <ele>659.693685</ele>
        <time>2025-05-18T16:38:22.522Z</time>
      </trkpt>
      <trkpt lat="47.811559" lon="9.897643">
        <ele>659.708831</ele>
        <time>2025-05-18T16:38:30.239Z</time>
      </trkpt>
      <trkpt lat="47.811733" lon="9.898254">
        <ele>659.313643</ele>
        <time>2025-05-18T16:38:39.008Z</time>
      </trkpt>
      <trkpt lat="47.812164" lon="9.899573">
        <ele>658.440191</ele>
        <time>2025-05-18T16:38:58.059Z</time>
      </trkpt>
      <trkpt lat="47.812179" lon="9.899669">
        <ele>658.381500</ele>
        <time>2025-05-18T16:38:59.376Z</time>
      </trkpt>
      <trkpt lat="47.812945" lon="9.903090">
        <ele>655.452906</ele>
        <time>2025-05-18T16:39:45.297Z</time>
      </trkpt>
      <trkpt lat="47.812990" lon="9.903290">
        <ele>655.257533</ele>
        <time>2025-05-18T16:39:48.095Z</time>
      </trkpt>
      <trkpt lat="47.813186" lon="9.904115">
        <ele>654.446962</ele>
        <time>2025-05-18T16:39:59.346Z</time>
      </trkpt>
      <trkpt lat="47.813285" lon="9.904839">
        <ele>653.762594</ele>
        <time>2025-05-18T16:40:08.444Z</time>
      </trkpt>
      <trkpt lat="47.813337" lon="9.905643">
        <ele>652.811408</ele>
        <time>2025-05-18T16:40:17.942Z</time>
      </trkpt>
      <trkpt lat="47.813431" lon="9.906309">
        <ele>651.962427</ele>
        <time>2025-05-18T16:40:25.617Z</time>
      </trkpt>
      <trkpt lat="47.813413" lon="9.907125">
        <ele>650.943925</ele>
        <time>2025-05-18T16:40:34.996Z</time>
      </trkpt>
      <trkpt lat="47.813397" lon="9.907296">
        <ele>650.728544</ele>
        <time>2025-05-18T16:40:37.100Z</time>
      </trkpt>
      <trkpt lat="47.813352" lon="9.907449">
        <ele>650.520174</ele>
        <time>2025-05-18T16:40:39.206Z</time>
      </trkpt>
      <trkpt lat="47.813159" lon="9.907763">
        <ele>650.538605</ele>
        <time>2025-05-18T16:40:44.813Z</time>
      </trkpt>
      <trkpt lat="47.813117" lon="9.907916">
        <ele>650.752836</ele>
        <time>2025-05-18T16:40:47.068Z</time>
      </trkpt>
      <trkpt lat="47.813100" lon="9.908086">
        <ele>650.975602</ele>
        <time>2025-05-18T16:40:49.516Z</time>
      </trkpt>
      <trkpt lat="47.813108" lon="9.908428">
        <ele>651.419136</ele>
        <time>2025-05-18T16:40:54.598Z</time>
      </trkpt>
      <trkpt lat="47.813187" lon="9.909559">
        <ele>652.892930</ele>
        <time>2025-05-18T16:41:12.800Z</time>
      </trkpt>
      <trkpt lat="47.813151" lon="9.910320">
        <ele>654.060318</ele>
        <time>2025-05-18T16:41:25.863Z</time>
      </trkpt>
      <trkpt lat="47.813212" lon="9.910817">
        <ele>655.486266</ele>
        <time>2025-05-18T16:41:34.616Z</time>
      </trkpt>
      <trkpt lat="47.813347" lon="9.911252">
        <ele>656.838753</ele>
        <time>2025-05-18T16:41:42.970Z</time>
      </trkpt>
      <trkpt lat="47.813896" lon="9.912595">
        <ele>661.276187</ele>
        <time>2025-05-18T16:42:10.064Z</time>
      </trkpt>
      <trkpt lat="47.814670" lon="9.915414">
        <ele>668.896829</ele>
        <time>2025-05-18T16:43:02.413Z</time>
      </trkpt>
      <trkpt lat="47.814940" lon="9.916011">
        <ele>669.632288</ele>
        <time>2025-05-18T16:43:13.738Z</time>
      </trkpt>
      <trkpt lat="47.815677" lon="9.917396">
        <ele>671.010547</ele>
        <time>2025-05-18T16:43:39.852Z</time>
      </trkpt>
      <trkpt lat="47.815828" lon="9.917752">
        <ele>670.388041</ele>
        <time>2025-05-18T16:43:45.707Z</time>
      </trkpt>
      <trkpt lat="47.815958" lon="9.917772">
        <ele>670.100314</ele>
        <time>2025-05-18T16:43:48.373Z</time>
      </trkpt>
      <trkpt lat="47.816095" lon="9.917744">
        <ele>669.795872</ele>
        <time>2025-05-18T16:43:51.094Z</time>
      </trkpt>
      <trkpt lat="47.816517" lon="9.917529">
        <ele>668.813943</ele>
        <time>2025-05-18T16:43:59.089Z</time>
      </trkpt>
      <trkpt lat="47.816611" lon="9.917525">
        <ele>668.606911</ele>
        <time>2025-05-18T16:44:00.653Z</time>
      </trkpt>
      <trkpt lat="47.816808" lon="9.917677">
        <ele>668.118446</ele>
        <time>2025-05-18T16:44:04.290Z</time>
      </trkpt>
      <trkpt lat="47.816915" lon="9.917810">
        <ele>667.811603</ele>
        <time>2025-05-18T16:44:06.499Z</time>
      </trkpt>
      <trkpt lat="47.817314" lon="9.918448">
        <ele>665.059839</ele>
        <time>2025-05-18T16:44:15.202Z</time>
      </trkpt>
      <trkpt lat="47.818366" lon="9.919624">
        <ele>656.737529</ele>
        <time>2025-05-18T16:44:33.903Z</time>
      </trkpt>
      <trkpt lat="47.818550" lon="9.919767">
        <ele>655.702241</ele>
        <time>2025-05-18T16:44:36.961Z</time>
      </trkpt>
      <trkpt lat="47.818824" lon="9.919865">
        <ele>654.911373</ele>
        <time>2025-05-18T16:44:41.210Z</time>
      </trkpt>
      <trkpt lat="47.819102" lon="9.919899">
        <ele>654.128519</ele>
        <time>2025-05-18T16:44:45.586Z</time>
      </trkpt>
      <trkpt lat="47.819380" lon="9.919887">
        <ele>653.347964</ele>
        <time>2025-05-18T16:44:50.162Z</time>
      </trkpt>
      <trkpt lat="47.819960" lon="9.919810">
        <ele>651.713696</ele>
        <time>2025-05-18T16:45:00.764Z</time>
      </trkpt>
      <trkpt lat="47.821899" lon="9.919702">
        <ele>651.051642</ele>
        <time>2025-05-18T16:45:42.032Z</time>
      </trkpt>
      <trkpt lat="47.822789" lon="9.919482">
        <ele>651.233570</ele>
        <time>2025-05-18T16:46:02.235Z</time>
      </trkpt>
      <trkpt lat="47.823058" lon="9.919410">
        <ele>651.294120</ele>
        <time>2025-05-18T16:46:08.323Z</time>
      </trkpt>
      <trkpt lat="47.823971" lon="9.919405">
        <ele>651.345405</ele>
        <time>2025-05-18T16:46:27.092Z</time>
      </trkpt>
      <trkpt lat="47.824770" lon="9.919418">
        <ele>650.615213</ele>
        <time>2025-05-18T16:46:42.062Z</time>
      </trkpt>
      <trkpt lat="47.825120" lon="9.919374">
        <ele>650.294236</ele>
        <time>2025-05-18T16:46:48.490Z</time>
      </trkpt>
      <trkpt lat="47.825241" lon="9.919329">
        <ele>650.180268</ele>
        <time>2025-05-18T16:46:50.801Z</time>
      </trkpt>
      <trkpt lat="47.825642" lon="9.919090">
        <ele>649.885386</ele>
        <time>2025-05-18T16:46:59.305Z</time>
      </trkpt>
      <trkpt lat="47.825929" lon="9.918918">
        <ele>650.351042</ele>
        <time>2025-05-18T16:47:05.950Z</time>
      </trkpt>
      <trkpt lat="47.826360" lon="9.918720">
        <ele>651.029948</ele>
        <time>2025-05-18T16:47:16.118Z</time>
      </trkpt>
      <trkpt lat="47.826586" lon="9.918674">
        <ele>651.373289</ele>
        <time>2025-05-18T16:47:21.378Z</time>
      </trkpt>
      <trkpt lat="47.826828" lon="9.918387">
        <ele>651.838914</ele>
        <time>2025-05-18T16:47:28.648Z</time>
      </trkpt>
      <trkpt lat="47.827611" lon="9.918362">
        <ele>653.574788</ele>
        <time>2025-05-18T16:47:47.622Z</time>
      </trkpt>
      <trkpt lat="47.828577" lon="9.918513">
        <ele>656.708558</ele>
        <time>2025-05-18T16:48:11.657Z</time>
      </trkpt>
      <trkpt lat="47.829090" lon="9.918470">
        <ele>658.348898</ele>
        <time>2025-05-18T16:48:24.329Z</time>
      </trkpt>
      <trkpt lat="47.829649" lon="9.918355">
        <ele>659.198269</ele>
        <time>2025-05-18T16:48:38.024Z</time>
      </trkpt>
      <trkpt lat="47.830194" lon="9.918062">
        <ele>660.070373</ele>
        <time>2025-05-18T16:48:51.629Z</time>
      </trkpt>
      <trkpt lat="47.830720" lon="9.917619">
        <ele>660.979869</ele>
        <time>2025-05-18T16:49:04.680Z</time>
      </trkpt>
      <trkpt lat="47.831096" lon="9.917385">
        <ele>660.334774</ele>
        <time>2025-05-18T16:49:12.192Z</time>
      </trkpt>
      <trkpt lat="47.831611" lon="9.917091">
        <ele>659.273367</ele>
        <time>2025-05-18T16:49:21.443Z</time>
      </trkpt>
      <trkpt lat="47.832181" lon="9.916892">
        <ele>658.146679</ele>
        <time>2025-05-18T16:49:31.340Z</time>
      </trkpt>
      <trkpt lat="47.832474" lon="9.916750">
        <ele>657.563963</ele>
        <time>2025-05-18T16:49:36.750Z</time>
      </trkpt>
      <trkpt lat="47.832734" lon="9.916522">
        <ele>657.214678</ele>
        <time>2025-05-18T16:49:42.158Z</time>
      </trkpt>
      <trkpt lat="47.833303" lon="9.916027">
        <ele>656.451845</ele>
        <time>2025-05-18T16:49:54.620Z</time>
      </trkpt>
      <trkpt lat="47.833864" lon="9.915472">
        <ele>655.672200</ele>
        <time>2025-05-18T16:50:08.051Z</time>
      </trkpt>
      <trkpt lat="47.834083" lon="9.915322">
        <ele>655.529962</ele>
        <time>2025-05-18T16:50:12.789Z</time>
      </trkpt>
      <trkpt lat="47.834200" lon="9.915288">
        <ele>655.573494</ele>
        <time>2025-05-18T16:50:15.169Z</time>
      </trkpt>
      <trkpt lat="47.834524" lon="9.915342">
        <ele>655.692551</ele>
        <time>2025-05-18T16:50:21.712Z</time>
      </trkpt>
      <trkpt lat="47.835008" lon="9.915127">
        <ele>655.876991</ele>
        <time>2025-05-18T16:50:32.501Z</time>
      </trkpt>
      <trkpt lat="47.835134" lon="9.915109">
        <ele>655.923215</ele>
        <time>2025-05-18T16:50:35.223Z</time>
      </trkpt>
      <trkpt lat="47.835218" lon="9.914860">
        <ele>655.991528</ele>
        <time>2025-05-18T16:50:39.501Z</time>
      </trkpt>
      <trkpt lat="47.835724" lon="9.914191">
        <ele>656.690522</ele>
        <time>2025-05-18T16:50:54.984Z</time>
      </trkpt>
      <trkpt lat="47.835888" lon="9.914045">
        <ele>657.132999</ele>
        <time>2025-05-18T16:50:59.514Z</time>
      </trkpt>
      <trkpt lat="47.836116" lon="9.913899">
        <ele>657.707763</ele>
        <time>2025-05-18T16:51:05.448Z</time>
      </trkpt>
      <trkpt lat="47.836619" lon="9.913719">
        <ele>658.905853</ele>
        <time>2025-05-18T16:51:17.828Z</time>
      </trkpt>
      <trkpt lat="47.836771" lon="9.913679">
        <ele>659.263336</ele>
        <time>2025-05-18T16:51:21.492Z</time>
      </trkpt>
      <trkpt lat="47.837619" lon="9.913451">
        <ele>660.757997</ele>
        <time>2025-05-18T16:51:42.024Z</time>
      </trkpt>
      <trkpt lat="47.837900" lon="9.913502">
        <ele>661.063920</ele>
        <time>2025-05-18T16:51:48.712Z</time>
      </trkpt>
      <trkpt lat="47.838215" lon="9.913569">
        <ele>661.407794</ele>
        <time>2025-05-18T16:51:55.966Z</time>
      </trkpt>
      <trkpt lat="47.838664" lon="9.913493">
        <ele>661.896153</ele>
        <time>2025-05-18T16:52:05.748Z</time>
      </trkpt>
      <trkpt lat="47.838905" lon="9.913329">
        <ele>662.182486</ele>
        <time>2025-05-18T16:52:11.109Z</time>
      </trkpt>
      <trkpt lat="47.839139" lon="9.913057">
        <ele>662.064701</ele>
        <time>2025-05-18T16:52:17.038Z</time>
      </trkpt>
      <trkpt lat="47.839185" lon="9.912910">
        <ele>661.967173</ele>
        <time>2025-05-18T16:52:19.164Z</time>
      </trkpt>
      <trkpt lat="47.839237" lon="9.912444">
        <ele>661.683113</ele>
        <time>2025-05-18T16:52:25.332Z</time>
      </trkpt>
      <trkpt lat="47.839302" lon="9.912120">
        <ele>661.479770</ele>
        <time>2025-05-18T16:52:29.606Z</time>
      </trkpt>
      <trkpt lat="47.839360" lon="9.911928">
        <ele>661.353163</ele>
        <time>2025-05-18T16:52:32.171Z</time>
      </trkpt>
      <trkpt lat="47.839466" lon="9.911754">
        <ele>661.211866</ele>
        <time>2025-05-18T16:52:34.963Z</time>
      </trkpt>
      <trkpt lat="47.839757" lon="9.911416">
        <ele>660.881304</ele>
        <time>2025-05-18T16:52:41.682Z</time>
      </trkpt>
      <trkpt lat="47.840321" lon="9.910997">
        <ele>661.276829</ele>
        <time>2025-05-18T16:52:54.628Z</time>
      </trkpt>
      <trkpt lat="47.840583" lon="9.910704">
        <ele>661.823440</ele>
        <time>2025-05-18T16:53:02.134Z</time>
      </trkpt>
      <trkpt lat="47.840862" lon="9.910290">
        <ele>662.480466</ele>
        <time>2025-05-18T16:53:11.429Z</time>
      </trkpt>
      <trkpt lat="47.841149" lon="9.909920">
        <ele>663.113728</ele>
        <time>2025-05-18T16:53:20.537Z</time>
      </trkpt>
      <trkpt lat="47.841532" lon="9.909558">
        <ele>663.999899</ele>
        <time>2025-05-18T16:53:31.495Z</time>
      </trkpt>
      <trkpt lat="47.841706" lon="9.909427">
        <ele>664.518867</ele>
        <time>2025-05-18T16:53:36.216Z</time>
      </trkpt>
      <trkpt lat="47.841898" lon="9.909349">
        <ele>665.048633</ele>
        <time>2025-05-18T16:53:41.081Z</time>
      </trkpt>
      <trkpt lat="47.842281" lon="9.909293">
        <ele>666.073082</ele>
        <time>2025-05-18T16:53:50.410Z</time>
      </trkpt>
      <trkpt lat="47.842681" lon="9.909320">
        <ele>667.138980</ele>
        <time>2025-05-18T16:53:59.947Z</time>
      </trkpt>
      <trkpt lat="47.843277" lon="9.909176">
        <ele>668.638568</ele>
        <time>2025-05-18T16:54:14.207Z</time>
      </trkpt>
      <trkpt lat="47.843529" lon="9.908986">
        <ele>669.124926</ele>
        <time>2025-05-18T16:54:20.895Z</time>
      </trkpt>
      <trkpt lat="47.844300" lon="9.907929">
        <ele>670.929152</ele>
        <time>2025-05-18T16:54:45.264Z</time>
      </trkpt>
      <trkpt lat="47.844623" lon="9.907554">
        <ele>671.559199</ele>
        <time>2025-05-18T16:54:54.492Z</time>
      </trkpt>
      <trkpt lat="47.845511" lon="9.906243">
        <ele>672.021974</ele>
        <time>2025-05-18T16:55:21.546Z</time>
      </trkpt>
      <trkpt lat="47.845868" lon="9.905898">
        <ele>672.179497</ele>
        <time>2025-05-18T16:55:30.703Z</time>
      </trkpt>
      <trkpt lat="47.846189" lon="9.905513">
        <ele>671.854498</ele>
        <time>2025-05-18T16:55:39.434Z</time>
      </trkpt>
      <trkpt lat="47.846328" lon="9.905332">
        <ele>671.666998</ele>
        <time>2025-05-18T16:55:43.236Z</time>
      </trkpt>
      <trkpt lat="47.846697" lon="9.904719">
        <ele>671.105675</ele>
        <time>2025-05-18T16:55:54.221Z</time>
      </trkpt>
      <trkpt lat="47.846808" lon="9.904585">
        <ele>670.960572</ele>
        <time>2025-05-18T16:55:56.925Z</time>
      </trkpt>
      <trkpt lat="47.847278" lon="9.904234">
        <ele>670.426582</ele>
        <time>2025-05-18T16:56:06.213Z</time>
      </trkpt>
      <trkpt lat="47.847517" lon="9.903979">
        <ele>669.999343</ele>
        <time>2025-05-18T16:56:11.122Z</time>
      </trkpt>
      <trkpt lat="47.848121" lon="9.902772">
        <ele>668.443905</ele>
        <time>2025-05-18T16:56:28.351Z</time>
      </trkpt>
      <trkpt lat="47.848394" lon="9.902445">
        <ele>667.904705</ele>
        <time>2025-05-18T16:56:35.110Z</time>
      </trkpt>
      <trkpt lat="47.848862" lon="9.902000">
        <ele>668.479656</ele>
        <time>2025-05-18T16:56:47.445Z</time>
      </trkpt>
      <trkpt lat="47.849212" lon="9.901713">
        <ele>669.438368</ele>
        <time>2025-05-18T16:56:57.055Z</time>
      </trkpt>
      <trkpt lat="47.849663" lon="9.901463">
        <ele>670.593146</ele>
        <time>2025-05-18T16:57:09.080Z</time>
      </trkpt>
      <trkpt lat="47.850010" lon="9.901223">
        <ele>671.511209</ele>
        <time>2025-05-18T16:57:18.579Z</time>
      </trkpt>
      <trkpt lat="47.850189" lon="9.901062">
        <ele>671.941909</ele>
        <time>2025-05-18T16:57:23.674Z</time>
      </trkpt>
      <trkpt lat="47.850590" lon="9.900735">
        <ele>672.151180</ele>
        <time>2025-05-18T16:57:34.510Z</time>
      </trkpt>
      <trkpt lat="47.850625" lon="9.900720">
        <ele>672.167852</ele>
        <time>2025-05-18T16:57:35.354Z</time>
      </trkpt>
      <trkpt lat="47.850998" lon="9.900329">
        <ele>672.376632</ele>
        <time>2025-05-18T16:57:45.585Z</time>
      </trkpt>
      <trkpt lat="47.851215" lon="9.899931">
        <ele>672.534174</ele>
        <time>2025-05-18T16:57:52.544Z</time>
      </trkpt>
      <trkpt lat="47.851496" lon="9.899588">
        <ele>672.700466</ele>
        <time>2025-05-18T16:57:59.177Z</time>
      </trkpt>
      <trkpt lat="47.852437" lon="9.898936">
        <ele>671.192851</ele>
        <time>2025-05-18T16:58:17.060Z</time>
      </trkpt>
      <trkpt lat="47.852917" lon="9.898529">
        <ele>670.271609</ele>
        <time>2025-05-18T16:58:26.856Z</time>
      </trkpt>
      <trkpt lat="47.853170" lon="9.898465">
        <ele>669.843535</ele>
        <time>2025-05-18T16:58:31.765Z</time>
      </trkpt>
      <trkpt lat="47.853334" lon="9.898504">
        <ele>669.773008</ele>
        <time>2025-05-18T16:58:35.051Z</time>
      </trkpt>
      <trkpt lat="47.853548" lon="9.898523">
        <ele>669.821798</ele>
        <time>2025-05-18T16:58:39.497Z</time>
      </trkpt>
      <trkpt lat="47.853787" lon="9.898511">
        <ele>669.876222</ele>
        <time>2025-05-18T16:58:44.701Z</time>
      </trkpt>
      <trkpt lat="47.853812" lon="9.898411">
        <ele>669.892519</ele>
        <time>2025-05-18T16:58:46.261Z</time>
      </trkpt>
      <trkpt lat="47.853886" lon="9.898325">
        <ele>669.913876</ele>
        <time>2025-05-18T16:58:48.324Z</time>
      </trkpt>
      <trkpt lat="47.854308" lon="9.898094">
        <ele>670.016192</ele>
        <time>2025-05-18T16:58:58.250Z</time>
      </trkpt>
      <trkpt lat="47.854471" lon="9.897922">
        <ele>670.061646</ele>
        <time>2025-05-18T16:59:02.640Z</time>
      </trkpt>
      <trkpt lat="47.854539" lon="9.897758">
        <ele>670.091087</ele>
        <time>2025-05-18T16:59:05.494Z</time>
      </trkpt>
      <trkpt lat="47.854571" lon="9.897614">
        <ele>670.114252</ele>
        <time>2025-05-18T16:59:07.733Z</time>
      </trkpt>
      <trkpt lat="47.854520" lon="9.896621">
        <ele>670.440262</ele>
        <time>2025-05-18T16:59:22.570Z</time>
      </trkpt>
      <trkpt lat="47.854538" lon="9.896480">
        <ele>670.497226</ele>
        <time>2025-05-18T16:59:24.671Z</time>
      </trkpt>
      <trkpt lat="47.854621" lon="9.896244">
        <ele>670.602976</ele>
        <time>2025-05-18T16:59:28.548Z</time>
      </trkpt>
      <trkpt lat="47.854826" lon="9.895976">
        <ele>670.764269</ele>
        <time>2025-05-18T16:59:34.317Z</time>
      </trkpt>
      <trkpt lat="47.854924" lon="9.895848">
        <ele>670.841343</ele>
        <time>2025-05-18T16:59:37.121Z</time>
      </trkpt>
      <trkpt lat="47.855140" lon="9.895804">
        <ele>670.970288</ele>
        <time>2025-05-18T16:59:41.924Z</time>
      </trkpt>
      <trkpt lat="47.855232" lon="9.895771">
        <ele>671.026257</ele>
        <time>2025-05-18T16:59:44.047Z</time>
      </trkpt>
      <trkpt lat="47.855392" lon="9.895803">
        <ele>671.121741</ele>
        <time>2025-05-18T16:59:47.689Z</time>
      </trkpt>
      <trkpt lat="47.855505" lon="9.895941">
        <ele>671.208151</ele>
        <time>2025-05-18T16:59:50.999Z</time>
      </trkpt>
      <trkpt lat="47.855680" lon="9.896433">
        <ele>671.258129</ele>
        <time>2025-05-18T16:59:59.455Z</time>
      </trkpt>
      <trkpt lat="47.855815" lon="9.896842">
        <ele>671.290109</ele>
        <time>2025-05-18T17:00:06.254Z</time>
      </trkpt>
      <trkpt lat="47.855929" lon="9.897038">
        <ele>671.308308</ele>
        <time>2025-05-18T17:00:10.048Z</time>
      </trkpt>
      <trkpt lat="47.856087" lon="9.897218">
        <ele>671.329103</ele>
        <time>2025-05-18T17:00:14.328Z</time>
      </trkpt>
      <trkpt lat="47.856065" lon="9.897325">
        <ele>671.336955</ele>
        <time>2025-05-18T17:00:15.938Z</time>
      </trkpt>
      <trkpt lat="47.856218" lon="9.897400">
        <ele>671.353796</ele>
        <time>2025-05-18T17:00:19.315Z</time>
      </trkpt>
      <trkpt lat="47.856842" lon="9.897516">
        <ele>671.249338</ele>
        <time>2025-05-18T17:00:31.850Z</time>
      </trkpt>
      <trkpt lat="47.858634" lon="9.897652">
        <ele>668.276328</ele>
        <time>2025-05-18T17:01:03.776Z</time>
      </trkpt>
      <trkpt lat="47.858964" lon="9.897724">
        <ele>667.754366</ele>
        <time>2025-05-18T17:01:09.767Z</time>
      </trkpt>
      <trkpt lat="47.859259" lon="9.897841">
        <ele>667.276617</ele>
        <time>2025-05-18T17:01:15.321Z</time>
      </trkpt>
      <trkpt lat="47.859503" lon="9.897969">
        <ele>666.871787</ele>
        <time>2025-05-18T17:01:20.061Z</time>
      </trkpt>
      <trkpt lat="47.859906" lon="9.898259">
        <ele>666.171418</ele>
        <time>2025-05-18T17:01:28.329Z</time>
      </trkpt>
      <trkpt lat="47.859943" lon="9.898195">
        <ele>666.082708</ele>
        <time>2025-05-18T17:01:29.387Z</time>
      </trkpt>
      <trkpt lat="47.859969" lon="9.898128">
        <ele>666.001436</ele>
        <time>2025-05-18T17:01:30.368Z</time>
      </trkpt>
      <trkpt lat="47.860242" lon="9.898385">
        <ele>665.494805</ele>
        <time>2025-05-18T17:01:36.392Z</time>
      </trkpt>
      <trkpt lat="47.860889" lon="9.899162">
        <ele>664.179100</ele>
        <time>2025-05-18T17:01:51.624Z</time>
      </trkpt>
      <trkpt lat="47.861228" lon="9.899484">
        <ele>663.542558</ele>
        <time>2025-05-18T17:01:58.914Z</time>
      </trkpt>
      <trkpt lat="47.861615" lon="9.899755">
        <ele>662.865485</ele>
        <time>2025-05-18T17:02:06.684Z</time>
      </trkpt>
      <trkpt lat="47.862091" lon="9.899974">
        <ele>662.045000</ele>
        <time>2025-05-18T17:02:15.566Z</time>
      </trkpt>
      <trkpt lat="47.862446" lon="9.900071">
        <ele>661.446919</ele>
        <time>2025-05-18T17:02:22.006Z</time>
      </trkpt>
      <trkpt lat="47.863184" lon="9.900247">
        <ele>660.208408</ele>
        <time>2025-05-18T17:02:35.487Z</time>
      </trkpt>
      <trkpt lat="47.863600" lon="9.900395">
        <ele>659.583134</ele>
        <time>2025-05-18T17:02:43.318Z</time>
      </trkpt>
      <trkpt lat="47.864061" lon="9.900669">
        <ele>659.008419</ele>
        <time>2025-05-18T17:02:52.650Z</time>
      </trkpt>
      <trkpt lat="47.864216" lon="9.900781">
        <ele>658.808950</ele>
        <time>2025-05-18T17:02:55.999Z</time>
      </trkpt>
      <trkpt lat="47.864272" lon="9.900695">
        <ele>658.715842</ele>
        <time>2025-05-18T17:02:57.549Z</time>
      </trkpt>
      <trkpt lat="47.864385" lon="9.900690">
        <ele>658.584930</ele>
        <time>2025-05-18T17:02:59.759Z</time>
      </trkpt>
      <trkpt lat="47.865346" lon="9.900853">
        <ele>657.491356</ele>
        <time>2025-05-18T17:03:18.471Z</time>
      </trkpt>
      <trkpt lat="47.866326" lon="9.901112">
        <ele>656.471915</ele>
        <time>2025-05-18T17:03:37.564Z</time>
      </trkpt>
      <trkpt lat="47.866859" lon="9.901181">
        <ele>655.923923</ele>
        <time>2025-05-18T17:03:47.839Z</time>
      </trkpt>
      <trkpt lat="47.868307" lon="9.901344">
        <ele>655.275846</ele>
        <time>2025-05-18T17:04:16.827Z</time>
      </trkpt>
      <trkpt lat="47.869316" lon="9.901404">
        <ele>655.474799</ele>
        <time>2025-05-18T17:04:38.781Z</time>
      </trkpt>
      <trkpt lat="47.870198" lon="9.901319">
        <ele>656.030711</ele>
        <time>2025-05-18T17:04:58.653Z</time>
      </trkpt>
      <trkpt lat="47.870571" lon="9.901390">
        <ele>656.254232</ele>
        <time>2025-05-18T17:05:07.034Z</time>
      </trkpt>
      <trkpt lat="47.872365" lon="9.901234">
        <ele>656.978252</ele>
        <time>2025-05-18T17:05:45.803Z</time>
      </trkpt>
      <trkpt lat="47.872998" lon="9.901183">
        <ele>657.547565</ele>
        <time>2025-05-18T17:05:59.713Z</time>
      </trkpt>
      <trkpt lat="47.873538" lon="9.900844">
        <ele>658.073771</ele>
        <time>2025-05-18T17:06:12.884Z</time>
      </trkpt>
      <trkpt lat="47.873671" lon="9.900827">
        <ele>658.193653</ele>
        <time>2025-05-18T17:06:15.922Z</time>
      </trkpt>
      <trkpt lat="47.874231" lon="9.900870">
        <ele>658.686852</ele>
        <time>2025-05-18T17:06:28.782Z</time>
      </trkpt>
      <trkpt lat="47.875106" lon="9.901065">
        <ele>659.426598</ele>
        <time>2025-05-18T17:06:48.878Z</time>
      </trkpt>
      <trkpt lat="47.875228" lon="9.901117">
        <ele>659.532693</ele>
        <time>2025-05-18T17:06:51.678Z</time>
      </trkpt>
      <trkpt lat="47.875360" lon="9.901220">
        <ele>659.657266</ele>
        <time>2025-05-18T17:06:54.978Z</time>
      </trkpt>
      <trkpt lat="47.875991" lon="9.901856">
        <ele>660.086594</ele>
        <time>2025-05-18T17:07:11.241Z</time>
      </trkpt>
      <trkpt lat="47.876299" lon="9.902073">
        <ele>660.128806</ele>
        <time>2025-05-18T17:07:18.216Z</time>
      </trkpt>
      <trkpt lat="47.877099" lon="9.902489">
        <ele>660.233794</ele>
        <time>2025-05-18T17:07:36.638Z</time>
      </trkpt>
      <trkpt lat="47.877360" lon="9.902717">
        <ele>660.271278</ele>
        <time>2025-05-18T17:07:43.108Z</time>
      </trkpt>
      <trkpt lat="47.877517" lon="9.902529">
        <ele>660.123179</ele>
        <time>2025-05-18T17:07:47.358Z</time>
      </trkpt>
      <trkpt lat="47.877943" lon="9.902704">
        <ele>659.763553</ele>
        <time>2025-05-18T17:07:56.246Z</time>
      </trkpt>
      <trkpt lat="47.879215" lon="9.902882">
        <ele>658.819622</ele>
        <time>2025-05-18T17:08:20.376Z</time>
      </trkpt>
      <trkpt lat="47.879500" lon="9.902873">
        <ele>658.846982</ele>
        <time>2025-05-18T17:08:25.946Z</time>
      </trkpt>
      <trkpt lat="47.880332" lon="9.902743">
        <ele>658.927272</ele>
        <time>2025-05-18T17:08:43.814Z</time>
      </trkpt>
      <trkpt lat="47.880806" lon="9.902763">
        <ele>658.972783</ele>
        <time>2025-05-18T17:08:54.476Z</time>
      </trkpt>
      <trkpt lat="47.881180" lon="9.902707">
        <ele>659.173544</ele>
        <time>2025-05-18T17:09:02.921Z</time>
      </trkpt>
      <trkpt lat="47.881523" lon="9.902535">
        <ele>659.422341</ele>
        <time>2025-05-18T17:09:11.036Z</time>
      </trkpt>
      <trkpt lat="47.883723" lon="9.901857">
        <ele>660.093121</ele>
        <time>2025-05-18T17:10:00.400Z</time>
      </trkpt>
      <trkpt lat="47.884401" lon="9.901736">
        <ele>660.014295</ele>
        <time>2025-05-18T17:10:13.814Z</time>
      </trkpt>
      <trkpt lat="47.885005" lon="9.901643">
        <ele>659.197184</ele>
        <time>2025-05-18T17:10:24.952Z</time>
      </trkpt>
      <trkpt lat="47.885239" lon="9.901642">
        <ele>658.868550</ele>
        <time>2025-05-18T17:10:29.155Z</time>
      </trkpt>
      <trkpt lat="47.885535" lon="9.901691">
        <ele>658.450290</ele>
        <time>2025-05-18T17:10:34.489Z</time>
      </trkpt>
      <trkpt lat="47.885740" lon="9.901853">
        <ele>658.124455</ele>
        <time>2025-05-18T17:10:38.654Z</time>
      </trkpt>
      <trkpt lat="47.886166" lon="9.902399">
        <ele>657.419999</ele>
        <time>2025-05-18T17:10:49.260Z</time>
      </trkpt>
      <trkpt lat="47.886357" lon="9.902553">
        <ele>657.287301</ele>
        <time>2025-05-18T17:10:53.402Z</time>
      </trkpt>
      <trkpt lat="47.886592" lon="9.902625">
        <ele>657.140682</ele>
        <time>2025-05-18T17:10:58.039Z</time>
      </trkpt>
      <trkpt lat="47.886810" lon="9.902617">
        <ele>657.007412</ele>
        <time>2025-05-18T17:11:02.366Z</time>
      </trkpt>
      <trkpt lat="47.887602" lon="9.902308">
        <ele>656.507095</ele>
        <time>2025-05-18T17:11:19.240Z</time>
      </trkpt>
      <trkpt lat="47.887748" lon="9.902280">
        <ele>656.417133</ele>
        <time>2025-05-18T17:11:22.355Z</time>
      </trkpt>
      <trkpt lat="47.887904" lon="9.902346">
        <ele>656.321251</ele>
        <time>2025-05-18T17:11:25.767Z</time>
      </trkpt>
      <trkpt lat="47.888046" lon="9.902493">
        <ele>656.220622</ele>
        <time>2025-05-18T17:11:29.380Z</time>
      </trkpt>
      <trkpt lat="47.888375" lon="9.902951">
        <ele>655.958619</ele>
        <time>2025-05-18T17:11:38.571Z</time>
      </trkpt>
      <trkpt lat="47.888663" lon="9.903303">
        <ele>655.741850</ele>
        <time>2025-05-18T17:11:45.981Z</time>
      </trkpt>
      <trkpt lat="47.888891" lon="9.903467">
        <ele>655.594490</ele>
        <time>2025-05-18T17:11:50.913Z</time>
      </trkpt>
      <trkpt lat="47.889316" lon="9.903702">
        <ele>655.332013</ele>
        <time>2025-05-18T17:11:59.709Z</time>
      </trkpt>
      <trkpt lat="47.889952" lon="9.903173">
        <ele>654.980252</ele>
        <time>2025-05-18T17:12:14.025Z</time>
      </trkpt>
      <trkpt lat="47.890860" lon="9.902559">
        <ele>654.498678</ele>
        <time>2025-05-18T17:12:34.564Z</time>
      </trkpt>
      <trkpt lat="47.890892" lon="9.902393">
        <ele>654.433057</ele>
        <time>2025-05-18T17:12:37.029Z</time>
      </trkpt>
      <trkpt lat="47.890946" lon="9.902332">
        <ele>654.388714</ele>
        <time>2025-05-18T17:12:38.470Z</time>
      </trkpt>
      <trkpt lat="47.891311" lon="9.902044">
        <ele>654.118415</ele>
        <time>2025-05-18T17:12:47.141Z</time>
      </trkpt>
      <trkpt lat="47.891387" lon="9.902230">
        <ele>654.022813</ele>
        <time>2025-05-18T17:12:50.138Z</time>
      </trkpt>
      <trkpt lat="47.891442" lon="9.902209">
        <ele>653.985650</ele>
        <time>2025-05-18T17:12:51.313Z</time>
      </trkpt>
      <trkpt lat="47.891473" lon="9.902304">
        <ele>653.939277</ele>
        <time>2025-05-18T17:12:52.745Z</time>
      </trkpt>
      <trkpt lat="47.891496" lon="9.902437">
        <ele>653.878991</ele>
        <time>2025-05-18T17:12:54.604Z</time>
      </trkpt>
      <trkpt lat="47.891992" lon="9.902006">
        <ele>653.503230</ele>
        <time>2025-05-18T17:13:05.799Z</time>
      </trkpt>
      <trkpt lat="47.892522" lon="9.901406">
        <ele>652.849724</ele>
        <time>2025-05-18T17:13:18.362Z</time>
      </trkpt>
      <trkpt lat="47.893172" lon="9.900360">
        <ele>651.617346</ele>
        <time>2025-05-18T17:13:35.614Z</time>
      </trkpt>
      <trkpt lat="47.893669" lon="9.899383">
        <ele>650.942440</ele>
        <time>2025-05-18T17:13:51.643Z</time>
      </trkpt>
      <trkpt lat="47.894037" lon="9.898717">
        <ele>650.884913</ele>
        <time>2025-05-18T17:14:03.741Z</time>
      </trkpt>
      <trkpt lat="47.894565" lon="9.897976">
        <ele>650.812836</ele>
        <time>2025-05-18T17:14:19.417Z</time>
      </trkpt>
      <trkpt lat="47.895716" lon="9.896244">
        <ele>651.541353</ele>
        <time>2025-05-18T17:14:55.064Z</time>
      </trkpt>
      <trkpt lat="47.896139" lon="9.895737">
        <ele>651.704301</ele>
        <time>2025-05-18T17:15:07.159Z</time>
      </trkpt>
      <trkpt lat="47.896423" lon="9.895546">
        <ele>651.692736</ele>
        <time>2025-05-18T17:15:14.076Z</time>
      </trkpt>
      <trkpt lat="47.896773" lon="9.895476">
        <ele>651.679628</ele>
        <time>2025-05-18T17:15:21.868Z</time>
      </trkpt>
      <trkpt lat="47.897134" lon="9.895471">
        <ele>651.666227</ele>
        <time>2025-05-18T17:15:29.554Z</time>
      </trkpt>
      <trkpt lat="47.897396" lon="9.895568">
        <ele>651.656206</ele>
        <time>2025-05-18T17:15:34.983Z</time>
      </trkpt>
      <trkpt lat="47.897894" lon="9.896036">
        <ele>651.238597</ele>
        <time>2025-05-18T17:15:46.061Z</time>
      </trkpt>
      <trkpt lat="47.898474" lon="9.896842">
        <ele>650.139321</ele>
        <time>2025-05-18T17:16:00.235Z</time>
      </trkpt>
      <trkpt lat="47.898739" lon="9.897274">
        <ele>649.594940</ele>
        <time>2025-05-18T17:16:07.417Z</time>
      </trkpt>
      <trkpt lat="47.899124" lon="9.897714">
        <ele>649.168454</ele>
        <time>2025-05-18T17:16:16.623Z</time>
      </trkpt>
      <trkpt lat="47.899343" lon="9.897887">
        <ele>649.194602</ele>
        <time>2025-05-18T17:16:21.551Z</time>
      </trkpt>
      <trkpt lat="47.899727" lon="9.898038">
        <ele>649.236503</ele>
        <time>2025-05-18T17:16:29.783Z</time>
      </trkpt>
      <trkpt lat="47.899770" lon="9.898183">
        <ele>649.247718</ele>
        <time>2025-05-18T17:16:32.063Z</time>
      </trkpt>
      <trkpt lat="47.899867" lon="9.898162">
        <ele>649.258060</ele>
        <time>2025-05-18T17:16:34.195Z</time>
      </trkpt>
      <trkpt lat="47.899909" lon="9.898209">
        <ele>649.263600</ele>
        <time>2025-05-18T17:16:35.333Z</time>
      </trkpt>
      <trkpt lat="47.899975" lon="9.898445">
        <ele>649.281689</ele>
        <time>2025-05-18T17:16:39.088Z</time>
      </trkpt>
      <trkpt lat="47.900050" lon="9.898612">
        <ele>649.295908</ele>
        <time>2025-05-18T17:16:42.062Z</time>
      </trkpt>
      <trkpt lat="47.900080" lon="9.898635">
        <ele>649.299467</ele>
        <time>2025-05-18T17:16:42.824Z</time>
      </trkpt>
      <trkpt lat="47.900235" lon="9.898551">
        <ele>649.316867</ele>
        <time>2025-05-18T17:16:46.502Z</time>
      </trkpt>
      <trkpt lat="47.900287" lon="9.898345">
        <ele>649.332438</ele>
        <time>2025-05-18T17:16:49.862Z</time>
      </trkpt>
      <trkpt lat="47.900793" lon="9.897930">
        <ele>649.757141</ele>
        <time>2025-05-18T17:17:03.015Z</time>
      </trkpt>
      <trkpt lat="47.900911" lon="9.897652">
        <ele>649.941585</ele>
        <time>2025-05-18T17:17:08.047Z</time>
      </trkpt>
      <trkpt lat="47.900915" lon="9.897503">
        <ele>650.025176</ele>
        <time>2025-05-18T17:17:10.302Z</time>
      </trkpt>
      <trkpt lat="47.900873" lon="9.897171">
        <ele>650.214566</ele>
        <time>2025-05-18T17:17:15.419Z</time>
      </trkpt>
      <trkpt lat="47.901311" lon="9.896427">
        <ele>650.769598</ele>
        <time>2025-05-18T17:17:30.092Z</time>
      </trkpt>
      <trkpt lat="47.901465" lon="9.896214">
        <ele>650.854282</ele>
        <time>2025-05-18T17:17:34.639Z</time>
      </trkpt>
      <trkpt lat="47.901583" lon="9.896117">
        <ele>650.864970</ele>
        <time>2025-05-18T17:17:37.497Z</time>
      </trkpt>
      <trkpt lat="47.901611" lon="9.895996">
        <ele>650.871778</ele>
        <time>2025-05-18T17:17:39.280Z</time>
      </trkpt>
      <trkpt lat="47.901573" lon="9.895891">
        <ele>650.878124</ele>
        <time>2025-05-18T17:17:40.913Z</time>
      </trkpt>
      <trkpt lat="47.901792" lon="9.895605">
        <ele>650.901214</ele>
        <time>2025-05-18T17:17:46.901Z</time>
      </trkpt>
      <trkpt lat="47.902443" lon="9.894961">
        <ele>650.963183</ele>
        <time>2025-05-18T17:18:03.467Z</time>
      </trkpt>
      <trkpt lat="47.902970" lon="9.894484">
        <ele>650.977472</ele>
        <time>2025-05-18T17:18:16.485Z</time>
      </trkpt>
      <trkpt lat="47.903092" lon="9.894447">
        <ele>650.973479</ele>
        <time>2025-05-18T17:18:19.112Z</time>
      </trkpt>
      <trkpt lat="47.903178" lon="9.894472">
        <ele>650.970668</ele>
        <time>2025-05-18T17:18:20.978Z</time>
      </trkpt>
      <trkpt lat="47.903280" lon="9.894549">
        <ele>650.967002</ele>
        <time>2025-05-18T17:18:23.401Z</time>
      </trkpt>
      <trkpt lat="47.903587" lon="9.894679">
        <ele>650.956766</ele>
        <time>2025-05-18T17:18:30.154Z</time>
      </trkpt>
      <trkpt lat="47.903697" lon="9.894703">
        <ele>650.953200</ele>
        <time>2025-05-18T17:18:32.493Z</time>
      </trkpt>
      <trkpt lat="47.903759" lon="9.894638">
        <ele>650.950770</ele>
        <time>2025-05-18T17:18:34.068Z</time>
      </trkpt>
      <trkpt lat="47.903824" lon="9.894658">
        <ele>650.948641</ele>
        <time>2025-05-18T17:18:35.467Z</time>
      </trkpt>
      <trkpt lat="47.904265" lon="9.894795">
        <ele>650.934193</ele>
        <time>2025-05-18T17:18:44.797Z</time>
      </trkpt>
      <trkpt lat="47.904623" lon="9.894995">
        <ele>650.971323</ele>
        <time>2025-05-18T17:18:52.792Z</time>
      </trkpt>
      <trkpt lat="47.904765" lon="9.895085">
        <ele>650.997647</ele>
        <time>2025-05-18T17:18:56.015Z</time>
      </trkpt>
      <trkpt lat="47.905296" lon="9.895605">
        <ele>651.106025</ele>
        <time>2025-05-18T17:19:09.425Z</time>
      </trkpt>
      <trkpt lat="47.905455" lon="9.895772">
        <ele>651.139204</ele>
        <time>2025-05-18T17:19:13.593Z</time>
      </trkpt>
      <trkpt lat="47.905720" lon="9.896052">
        <ele>651.194611</ele>
        <time>2025-05-18T17:19:20.666Z</time>
      </trkpt>
      <trkpt lat="47.905925" lon="9.896243">
        <ele>651.235850</ele>
        <time>2025-05-18T17:19:25.971Z</time>
      </trkpt>
      <trkpt lat="47.906133" lon="9.896432">
        <ele>651.416653</ele>
        <time>2025-05-18T17:19:31.327Z</time>
      </trkpt>
      <trkpt lat="47.906213" lon="9.896459">
        <ele>651.478445</ele>
        <time>2025-05-18T17:19:33.129Z</time>
      </trkpt>
      <trkpt lat="47.906584" lon="9.896437">
        <ele>651.758161</ele>
        <time>2025-05-18T17:19:41.395Z</time>
      </trkpt>
      <trkpt lat="47.907052" lon="9.896361">
        <ele>652.112814</ele>
        <time>2025-05-18T17:19:51.939Z</time>
      </trkpt>
      <trkpt lat="47.907277" lon="9.896320">
        <ele>652.283579</ele>
        <time>2025-05-18T17:19:57.070Z</time>
      </trkpt>
      <trkpt lat="47.907461" lon="9.896295">
        <ele>652.422771</ele>
        <time>2025-05-18T17:20:01.384Z</time>
      </trkpt>
      <trkpt lat="47.907587" lon="9.896308">
        <ele>652.517920</ele>
        <time>2025-05-18T17:20:04.210Z</time>
      </trkpt>
      <trkpt lat="47.907711" lon="9.896339">
        <ele>652.592140</ele>
        <time>2025-05-18T17:20:07.000Z</time>
      </trkpt>
      <trkpt lat="47.907755" lon="9.896385">
        <ele>652.593080</ele>
        <time>2025-05-18T17:20:08.189Z</time>
      </trkpt>
      <trkpt lat="47.908068" lon="9.896533">
        <ele>652.598822</ele>
        <time>2025-05-18T17:20:15.395Z</time>
      </trkpt>
      <trkpt lat="47.908154" lon="9.896565">
        <ele>652.600371</ele>
        <time>2025-05-18T17:20:17.865Z</time>
      </trkpt>
      <trkpt lat="47.908408" lon="9.896517">
        <ele>652.604849</ele>
        <time>2025-05-18T17:20:24.959Z</time>
      </trkpt>
      <trkpt lat="47.908536" lon="9.896471">
        <ele>652.607151</ele>
        <time>2025-05-18T17:20:28.575Z</time>
      </trkpt>
      <trkpt lat="47.908580" lon="9.896607">
        <ele>652.608921</ele>
        <time>2025-05-18T17:20:31.326Z</time>
      </trkpt>
      <trkpt lat="47.908732" lon="9.897095">
        <ele>652.615229</ele>
        <time>2025-05-18T17:20:41.054Z</time>
      </trkpt>
      <trkpt lat="47.908798" lon="9.897270">
        <ele>652.617582</ele>
        <time>2025-05-18T17:20:43.729Z</time>
      </trkpt>
      <trkpt lat="47.908939" lon="9.897633">
        <ele>652.622500</ele>
        <time>2025-05-18T17:20:49.438Z</time>
      </trkpt>
      <trkpt lat="47.908996" lon="9.897777">
        <ele>652.644943</ele>
        <time>2025-05-18T17:20:51.687Z</time>
      </trkpt>
      <trkpt lat="47.909043" lon="9.897895">
        <ele>652.670880</ele>
        <time>2025-05-18T17:20:53.617Z</time>
      </trkpt>
      <trkpt lat="47.909164" lon="9.898423">
        <ele>652.776321</ele>
        <time>2025-05-18T17:21:01.325Z</time>
      </trkpt>
      <trkpt lat="47.909171" lon="9.898502">
        <ele>652.791379</ele>
        <time>2025-05-18T17:21:02.472Z</time>
      </trkpt>
      <trkpt lat="47.909174" lon="9.898530">
        <ele>652.796737</ele>
        <time>2025-05-18T17:21:02.885Z</time>
      </trkpt>
      <trkpt lat="47.909171" lon="9.898502">
        <ele>652.802095</ele>
        <time>2025-05-18T17:21:03.276Z</time>
      </trkpt>
      <trkpt lat="47.909164" lon="9.898423">
        <ele>652.817153</ele>
        <time>2025-05-18T17:21:04.350Z</time>
      </trkpt>
      <trkpt lat="47.909043" lon="9.897895">
        <ele>652.922594</ele>
        <time>2025-05-18T17:21:12.436Z</time>
      </trkpt>
      <trkpt lat="47.908939" lon="9.897633">
        <ele>652.980131</ele>
        <time>2025-05-18T17:21:16.892Z</time>
      </trkpt>
      <trkpt lat="47.908798" lon="9.897270">
        <ele>653.059409</ele>
        <time>2025-05-18T17:21:23.229Z</time>
      </trkpt>
      <trkpt lat="47.908732" lon="9.897095">
        <ele>653.097352</ele>
        <time>2025-05-18T17:21:26.267Z</time>
      </trkpt>
      <trkpt lat="47.908580" lon="9.896607">
        <ele>653.146393</ele>
        <time>2025-05-18T17:21:36.374Z</time>
      </trkpt>
      <trkpt lat="47.908536" lon="9.896471">
        <ele>653.153123</ele>
        <time>2025-05-18T17:21:39.206Z</time>
      </trkpt>
      <trkpt lat="47.908406" lon="9.896007">
        <ele>653.175536</ele>
        <time>2025-05-18T17:21:48.610Z</time>
      </trkpt>
      <trkpt lat="47.908370" lon="9.895863">
        <ele>653.182385</ele>
        <time>2025-05-18T17:21:50.849Z</time>
      </trkpt>
      <trkpt lat="47.908315" lon="9.895530">
        <ele>653.197670</ele>
        <time>2025-05-18T17:21:55.743Z</time>
      </trkpt>
      <trkpt lat="47.908211" lon="9.895006">
        <ele>653.222026</ele>
        <time>2025-05-18T17:22:03.289Z</time>
      </trkpt>
      <trkpt lat="47.908716" lon="9.894696">
        <ele>653.160592</ele>
        <time>2025-05-18T17:22:13.987Z</time>
      </trkpt>
      <trkpt lat="47.909131" lon="9.894444">
        <ele>652.851873</ele>
        <time>2025-05-18T17:22:22.585Z</time>
      </trkpt>
      <trkpt lat="47.909171" lon="9.894413">
        <ele>652.820816</ele>
        <time>2025-05-18T17:22:23.463Z</time>
      </trkpt>
      <trkpt lat="47.909201" lon="9.894345">
        <ele>652.783218</ele>
        <time>2025-05-18T17:22:24.502Z</time>
      </trkpt>
      <trkpt lat="47.909225" lon="9.894159">
        <ele>652.695737</ele>
        <time>2025-05-18T17:22:26.939Z</time>
      </trkpt>
      <trkpt lat="47.909190" lon="9.893862">
        <ele>652.556465</ele>
        <time>2025-05-18T17:22:30.835Z</time>
      </trkpt>
      <trkpt lat="47.909078" lon="9.893476">
        <ele>652.362205</ele>
        <time>2025-05-18T17:22:36.332Z</time>
      </trkpt>
      <trkpt lat="47.909070" lon="9.893448">
        <ele>652.348148</ele>
        <time>2025-05-18T17:22:36.726Z</time>
      </trkpt>
      <trkpt lat="47.908619" lon="9.891895">
        <ele>652.110365</ele>
        <time>2025-05-18T17:23:00.495Z</time>
      </trkpt>
      <trkpt lat="47.908497" lon="9.891472">
        <ele>652.158229</ele>
        <time>2025-05-18T17:23:07.243Z</time>
      </trkpt>
      <trkpt lat="47.908570" lon="9.891419">
        <ele>652.170818</ele>
        <time>2025-05-18T17:23:09.013Z</time>
      </trkpt>
      <trkpt lat="47.909034" lon="9.891138">
        <ele>652.248469</ele>
        <time>2025-05-18T17:23:19.912Z</time>
      </trkpt>
      <trkpt lat="47.909102" lon="9.891099">
        <ele>652.259766</ele>
        <time>2025-05-18T17:23:21.499Z</time>
      </trkpt>
      <trkpt lat="47.909667" lon="9.890771">
        <ele>652.199433</ele>
        <time>2025-05-18T17:23:34.458Z</time>
      </trkpt>
      <trkpt lat="47.910210" lon="9.890424">
        <ele>652.071591</ele>
        <time>2025-05-18T17:23:46.699Z</time>
      </trkpt>
      <trkpt lat="47.910316" lon="9.890808">
        <ele>652.011348</ele>
        <time>2025-05-18T17:23:52.392Z</time>
      </trkpt>
      <trkpt lat="47.910559" lon="9.891687">
        <ele>651.829773</ele>
        <time>2025-05-18T17:24:05.234Z</time>
      </trkpt>
      <trkpt lat="47.910791" lon="9.892530">
        <ele>651.481279</ele>
        <time>2025-05-18T17:24:17.372Z</time>
      </trkpt>
      <trkpt lat="47.910832" lon="9.892678">
        <ele>651.420038</ele>
        <time>2025-05-18T17:24:19.526Z</time>
      </trkpt>
      <trkpt lat="47.910868" lon="9.892878">
        <ele>651.340845</ele>
        <time>2025-05-18T17:24:22.315Z</time>
      </trkpt>
      <trkpt lat="47.911099" lon="9.892900">
        <ele>651.208784</ele>
        <time>2025-05-18T17:24:26.941Z</time>
      </trkpt>
      <trkpt lat="47.911355" lon="9.892965">
        <ele>651.060629</ele>
        <time>2025-05-18T17:24:32.128Z</time>
      </trkpt>
      <trkpt lat="47.911627" lon="9.893001">
        <ele>650.904836</ele>
        <time>2025-05-18T17:24:37.611Z</time>
      </trkpt>
      <trkpt lat="47.911836" lon="9.892985">
        <ele>650.818881</ele>
        <time>2025-05-18T17:24:41.892Z</time>
      </trkpt>
      <trkpt lat="47.911955" lon="9.892921">
        <ele>650.773991</ele>
        <time>2025-05-18T17:24:44.510Z</time>
      </trkpt>
      <trkpt lat="47.912375" lon="9.892696">
        <ele>650.615626</ele>
        <time>2025-05-18T17:24:53.567Z</time>
      </trkpt>
      <trkpt lat="47.912607" lon="9.892546">
        <ele>650.525897</ele>
        <time>2025-05-18T17:24:58.718Z</time>
      </trkpt>
      <trkpt lat="47.912629" lon="9.892522">
        <ele>650.516225</ele>
        <time>2025-05-18T17:24:59.266Z</time>
      </trkpt>
      <trkpt lat="47.912714" lon="9.892433">
        <ele>650.479373</ele>
        <time>2025-05-18T17:25:01.379Z</time>
      </trkpt>
      <trkpt lat="47.912672" lon="9.892343">
        <ele>650.453288</ele>
        <time>2025-05-18T17:25:02.898Z</time>
      </trkpt>
      <trkpt lat="47.912674" lon="9.892187">
        <ele>650.416176</ele>
        <time>2025-05-18T17:25:05.039Z</time>
      </trkpt>
      <trkpt lat="47.912718" lon="9.892123">
        <ele>650.394368</ele>
        <time>2025-05-18T17:25:06.305Z</time>
      </trkpt>
      <trkpt lat="47.912825" lon="9.891999">
        <ele>650.346287</ele>
        <time>2025-05-18T17:25:09.090Z</time>
      </trkpt>
      <trkpt lat="47.912900" lon="9.891957">
        <ele>650.317859</ele>
        <time>2025-05-18T17:25:10.748Z</time>
      </trkpt>
      <trkpt lat="47.912980" lon="9.892047">
        <ele>650.282302</ele>
        <time>2025-05-18T17:25:13.080Z</time>
      </trkpt>
      <trkpt lat="47.913043" lon="9.892065">
        <ele>650.259539</ele>
        <time>2025-05-18T17:25:14.557Z</time>
      </trkpt>
      <trkpt lat="47.913068" lon="9.892072">
        <ele>650.250512</ele>
        <time>2025-05-18T17:25:15.161Z</time>
      </trkpt>
      <trkpt lat="47.913182" lon="9.892023">
        <ele>650.197633</ele>
        <time>2025-05-18T17:25:17.901Z</time>
      </trkpt>
      <trkpt lat="47.913252" lon="9.891948">
        <ele>650.154936</ele>
        <time>2025-05-18T17:25:19.922Z</time>
      </trkpt>
      <trkpt lat="47.913311" lon="9.891859">
        <ele>650.113368</ele>
        <time>2025-05-18T17:25:21.875Z</time>
      </trkpt>
      <trkpt lat="47.914294" lon="9.891262">
        <ele>649.587546</ele>
        <time>2025-05-18T17:25:45.533Z</time>
      </trkpt>
      <trkpt lat="47.914380" lon="9.891203">
        <ele>649.540650</ele>
        <time>2025-05-18T17:25:48.812Z</time>
      </trkpt>
      <trkpt lat="47.914426" lon="9.891172">
        <ele>649.515642</ele>
        <time>2025-05-18T17:25:49.854Z</time>
      </trkpt>
      <trkpt lat="47.914539" lon="9.891205">
        <ele>649.458595</ele>
        <time>2025-05-18T17:25:52.172Z</time>
      </trkpt>
      <trkpt lat="47.914732" lon="9.891125">
        <ele>649.359353</ele>
        <time>2025-05-18T17:25:56.735Z</time>
      </trkpt>
      <trkpt lat="47.916050" lon="9.890305">
        <ele>648.850064</ele>
        <time>2025-05-18T17:26:29.395Z</time>
      </trkpt>
      <trkpt lat="47.916612" lon="9.890007">
        <ele>648.608143</ele>
        <time>2025-05-18T17:26:42.968Z</time>
      </trkpt>
      <trkpt lat="47.916867" lon="9.889944">
        <ele>648.475834</ele>
        <time>2025-05-18T17:26:48.788Z</time>
      </trkpt>
      <trkpt lat="47.917179" lon="9.889937">
        <ele>648.316107</ele>
        <time>2025-05-18T17:26:55.744Z</time>
      </trkpt>
      <trkpt lat="47.917316" lon="9.889926">
        <ele>648.245876</ele>
        <time>2025-05-18T17:26:58.469Z</time>
      </trkpt>
      <trkpt lat="47.918225" lon="9.889825">
        <ele>647.783758</ele>
        <time>2025-05-18T17:27:19.063Z</time>
      </trkpt>
      <trkpt lat="47.920380" lon="9.889658">
        <ele>647.354467</ele>
        <time>2025-05-18T17:28:08.683Z</time>
      </trkpt>
      <trkpt lat="47.920512" lon="9.889600">
        <ele>647.353009</ele>
        <time>2025-05-18T17:28:11.887Z</time>
      </trkpt>
      <trkpt lat="47.920647" lon="9.889584">
        <ele>647.351574</ele>
        <time>2025-05-18T17:28:15.026Z</time>
      </trkpt>
      <trkpt lat="47.921194" lon="9.889598">
        <ele>647.345776</ele>
        <time>2025-05-18T17:28:27.787Z</time>
      </trkpt>
      <trkpt lat="47.922152" lon="9.889551">
        <ele>647.412291</ele>
        <time>2025-05-18T17:28:50.417Z</time>
      </trkpt>
      <trkpt lat="47.922439" lon="9.889502">
        <ele>647.471510</ele>
        <time>2025-05-18T17:28:57.280Z</time>
      </trkpt>
      <trkpt lat="47.923480" lon="9.889466">
        <ele>647.684973</ele>
        <time>2025-05-18T17:29:22.020Z</time>
      </trkpt>
      <trkpt lat="47.923798" lon="9.889408">
        <ele>647.710323</ele>
        <time>2025-05-18T17:29:29.614Z</time>
      </trkpt>
      <trkpt lat="47.925939" lon="9.889283">
        <ele>647.718911</ele>
        <time>2025-05-18T17:30:19.538Z</time>
      </trkpt>
      <trkpt lat="47.926269" lon="9.889238">
        <ele>647.713880</ele>
        <time>2025-05-18T17:30:27.244Z</time>
      </trkpt>
      <trkpt lat="47.926685" lon="9.889246">
        <ele>647.707563</ele>
        <time>2025-05-18T17:30:36.891Z</time>
      </trkpt>
      <trkpt lat="47.927754" lon="9.889185">
        <ele>647.813172</ele>
        <time>2025-05-18T17:31:01.936Z</time>
      </trkpt>
      <trkpt lat="47.927936" lon="9.889120">
        <ele>647.850333</ele>
        <time>2025-05-18T17:31:06.329Z</time>
      </trkpt>
      <trkpt lat="47.928163" lon="9.889095">
        <ele>647.895532</ele>
        <time>2025-05-18T17:31:11.715Z</time>
      </trkpt>
      <trkpt lat="47.928590" lon="9.889132">
        <ele>647.980467</ele>
        <time>2025-05-18T17:31:21.881Z</time>
      </trkpt>
      <trkpt lat="47.931241" lon="9.888977">
        <ele>649.083484</ele>
        <time>2025-05-18T17:32:25.412Z</time>
      </trkpt>
      <trkpt lat="47.931447" lon="9.889013">
        <ele>649.203554</ele>
        <time>2025-05-18T17:32:30.436Z</time>
      </trkpt>
      <trkpt lat="47.932579" lon="9.888870">
        <ele>649.859324</ele>
        <time>2025-05-18T17:32:57.902Z</time>
      </trkpt>
      <trkpt lat="47.933154" lon="9.888873">
        <ele>650.108544</ele>
        <time>2025-05-18T17:33:11.781Z</time>
      </trkpt>
      <trkpt lat="47.933475" lon="9.888878">
        <ele>650.247681</ele>
        <time>2025-05-18T17:33:19.524Z</time>
      </trkpt>
      <trkpt lat="47.933963" lon="9.889056">
        <ele>650.465417</ele>
        <time>2025-05-18T17:33:31.521Z</time>
      </trkpt>
      <trkpt lat="47.934359" lon="9.889289">
        <ele>650.661275</ele>
        <time>2025-05-18T17:33:41.569Z</time>
      </trkpt>
      <trkpt lat="47.934496" lon="9.889410">
        <ele>650.777300</ele>
        <time>2025-05-18T17:33:45.294Z</time>
      </trkpt>
      <trkpt lat="47.935070" lon="9.889612">
        <ele>651.207132</ele>
        <time>2025-05-18T17:33:59.120Z</time>
      </trkpt>
      <trkpt lat="47.935468" lon="9.889700">
        <ele>651.500381</ele>
        <time>2025-05-18T17:34:08.830Z</time>
      </trkpt>
      <trkpt lat="47.935899" lon="9.889690">
        <ele>651.814554</ele>
        <time>2025-05-18T17:34:19.429Z</time>
      </trkpt>
      <trkpt lat="47.936166" lon="9.889641">
        <ele>652.118596</ele>
        <time>2025-05-18T17:34:25.621Z</time>
      </trkpt>
      <trkpt lat="47.937003" lon="9.889243">
        <ele>653.799253</ele>
        <time>2025-05-18T17:34:46.247Z</time>
      </trkpt>
      <trkpt lat="47.937515" lon="9.888767">
        <ele>654.953284</ele>
        <time>2025-05-18T17:35:00.466Z</time>
      </trkpt>
      <trkpt lat="47.937954" lon="9.888191">
        <ele>655.772246</ele>
        <time>2025-05-18T17:35:13.942Z</time>
      </trkpt>
      <trkpt lat="47.938138" lon="9.887800">
        <ele>656.117553</ele>
        <time>2025-05-18T17:35:21.210Z</time>
      </trkpt>
      <trkpt lat="47.938703" lon="9.886830">
        <ele>657.046437</ele>
        <time>2025-05-18T17:35:40.338Z</time>
      </trkpt>
      <trkpt lat="47.939096" lon="9.886022">
        <ele>657.800177</ele>
        <time>2025-05-18T17:35:55.261Z</time>
      </trkpt>
      <trkpt lat="47.939164" lon="9.885937">
        <ele>657.902809</ele>
        <time>2025-05-18T17:35:57.230Z</time>
      </trkpt>
      <trkpt lat="47.939352" lon="9.885699">
        <ele>658.188053</ele>
        <time>2025-05-18T17:36:02.813Z</time>
      </trkpt>
      <trkpt lat="47.939541" lon="9.885441">
        <ele>658.484414</ele>
        <time>2025-05-18T17:36:08.601Z</time>
      </trkpt>
      <trkpt lat="47.940162" lon="9.884801">
        <ele>659.357630</ele>
        <time>2025-05-18T17:36:25.852Z</time>
      </trkpt>
      <trkpt lat="47.941401" lon="9.884007">
        <ele>661.824708</ele>
        <time>2025-05-18T17:36:56.947Z</time>
      </trkpt>
      <trkpt lat="47.941626" lon="9.883801">
        <ele>662.313441</ele>
        <time>2025-05-18T17:37:03.084Z</time>
      </trkpt>
      <trkpt lat="47.941772" lon="9.883715">
        <ele>662.604064</ele>
        <time>2025-05-18T17:37:06.811Z</time>
      </trkpt>
      <trkpt lat="47.941968" lon="9.883665">
        <ele>663.146652</ele>
        <time>2025-05-18T17:37:11.572Z</time>
      </trkpt>
      <trkpt lat="47.942488" lon="9.883311">
        <ele>664.990485</ele>
        <time>2025-05-18T17:37:25.471Z</time>
      </trkpt>
      <trkpt lat="47.942869" lon="9.883106">
        <ele>666.297070</ele>
        <time>2025-05-18T17:37:35.344Z</time>
      </trkpt>
      <trkpt lat="47.943302" lon="9.882733">
        <ele>667.909908</ele>
        <time>2025-05-18T17:37:47.600Z</time>
      </trkpt>
      <trkpt lat="47.943517" lon="9.882497">
        <ele>668.847741</ele>
        <time>2025-05-18T17:37:54.377Z</time>
      </trkpt>
      <trkpt lat="47.943904" lon="9.881892">
        <ele>671.257783</ele>
        <time>2025-05-18T17:38:09.102Z</time>
      </trkpt>
      <trkpt lat="47.944157" lon="9.881373">
        <ele>673.107011</ele>
        <time>2025-05-18T17:38:20.608Z</time>
      </trkpt>
      <trkpt lat="47.944281" lon="9.881039">
        <ele>674.207149</ele>
        <time>2025-05-18T17:38:27.478Z</time>
      </trkpt>
      <trkpt lat="47.944834" lon="9.880056">
        <ele>676.766719</ele>
        <time>2025-05-18T17:38:49.236Z</time>
      </trkpt>
      <trkpt lat="47.946177" lon="9.878536">
        <ele>678.986455</ele>
        <time>2025-05-18T17:39:25.852Z</time>
      </trkpt>
      <trkpt lat="47.946292" lon="9.878289">
        <ele>679.274825</ele>
        <time>2025-05-18T17:39:30.193Z</time>
      </trkpt>
      <trkpt lat="47.946426" lon="9.878149">
        <ele>679.508902</ele>
        <time>2025-05-18T17:39:33.808Z</time>
      </trkpt>
      <trkpt lat="47.946501" lon="9.878025">
        <ele>679.669065</ele>
        <time>2025-05-18T17:39:36.325Z</time>
      </trkpt>
      <trkpt lat="47.946694" lon="9.877564">
        <ele>680.190222</ele>
        <time>2025-05-18T17:39:44.631Z</time>
      </trkpt>
      <trkpt lat="47.946836" lon="9.877069">
        <ele>680.706439</ele>
        <time>2025-05-18T17:39:53.086Z</time>
      </trkpt>
      <trkpt lat="47.947030" lon="9.876188">
        <ele>681.963083</ele>
        <time>2025-05-18T17:40:07.965Z</time>
      </trkpt>
      <trkpt lat="47.947600" lon="9.874260">
        <ele>685.773449</ele>
        <time>2025-05-18T17:40:42.152Z</time>
      </trkpt>
      <trkpt lat="47.947755" lon="9.873656">
        <ele>686.035535</ele>
        <time>2025-05-18T17:40:52.371Z</time>
      </trkpt>
      <trkpt lat="47.947849" lon="9.873430">
        <ele>686.035445</ele>
        <time>2025-05-18T17:40:56.486Z</time>
      </trkpt>
      <trkpt lat="47.948029" lon="9.873108">
        <ele>686.035303</ele>
        <time>2025-05-18T17:41:02.818Z</time>
      </trkpt>
      <trkpt lat="47.948159" lon="9.872954">
        <ele>686.035219</ele>
        <time>2025-05-18T17:41:06.463Z</time>
      </trkpt>
      <trkpt lat="47.948263" lon="9.873080">
        <ele>686.035151</ele>
        <time>2025-05-18T17:41:09.290Z</time>
      </trkpt>
      <trkpt lat="47.948367" lon="9.872985">
        <ele>686.035090</ele>
        <time>2025-05-18T17:41:11.767Z</time>
      </trkpt>
      <trkpt lat="47.949155" lon="9.872508">
        <ele>685.332597</ele>
        <time>2025-05-18T17:41:26.407Z</time>
      </trkpt>
      <trkpt lat="47.949471" lon="9.872150">
        <ele>684.295814</ele>
        <time>2025-05-18T17:41:32.602Z</time>
      </trkpt>
      <trkpt lat="47.949554" lon="9.871985">
        <ele>683.934573</ele>
        <time>2025-05-18T17:41:34.768Z</time>
      </trkpt>
      <trkpt lat="47.949665" lon="9.871599">
        <ele>683.199196</ele>
        <time>2025-05-18T17:41:39.311Z</time>
      </trkpt>
      <trkpt lat="47.949708" lon="9.871301">
        <ele>682.665550</ele>
        <time>2025-05-18T17:41:42.687Z</time>
      </trkpt>
      <trkpt lat="47.949828" lon="9.871256">
        <ele>682.342168</ele>
        <time>2025-05-18T17:41:44.771Z</time>
      </trkpt>
      <trkpt lat="47.949878" lon="9.871210">
        <ele>682.188666</ele>
        <time>2025-05-18T17:41:45.759Z</time>
      </trkpt>
      <trkpt lat="47.950129" lon="9.870788">
        <ele>681.461385</ele>
        <time>2025-05-18T17:41:52.416Z</time>
      </trkpt>
      <trkpt lat="47.950251" lon="9.870702">
        <ele>681.799696</ele>
        <time>2025-05-18T17:41:55.055Z</time>
      </trkpt>
      <trkpt lat="47.950311" lon="9.870704">
        <ele>681.950190</ele>
        <time>2025-05-18T17:41:56.261Z</time>
      </trkpt>
      <trkpt lat="47.950742" lon="9.871020">
        <ele>683.154247</ele>
        <time>2025-05-18T17:42:07.041Z</time>
      </trkpt>
      <trkpt lat="47.950856" lon="9.871153">
        <ele>683.517037</ele>
        <time>2025-05-18T17:42:10.515Z</time>
      </trkpt>
      <trkpt lat="47.950938" lon="9.871315">
        <ele>683.858078</ele>
        <time>2025-05-18T17:42:13.870Z</time>
      </trkpt>
      <trkpt lat="47.951198" lon="9.872001">
        <ele>685.181899</ele>
        <time>2025-05-18T17:42:27.589Z</time>
      </trkpt>
      <trkpt lat="47.951310" lon="9.871900">
        <ele>685.510002</ele>
        <time>2025-05-18T17:42:31.085Z</time>
      </trkpt>
      <trkpt lat="47.951529" lon="9.871518">
        <ele>687.037599</ele>
        <time>2025-05-18T17:42:40.252Z</time>
      </trkpt>
      <trkpt lat="47.951721" lon="9.871174">
        <ele>688.795987</ele>
        <time>2025-05-18T17:42:48.840Z</time>
      </trkpt>
      <trkpt lat="47.951901" lon="9.870913">
        <ele>690.267097</ele>
        <time>2025-05-18T17:42:56.173Z</time>
      </trkpt>
      <trkpt lat="47.952019" lon="9.870793">
        <ele>691.104165</ele>
        <time>2025-05-18T17:43:00.379Z</time>
      </trkpt>
      <trkpt lat="47.952189" lon="9.870787">
        <ele>692.101159</ele>
        <time>2025-05-18T17:43:05.410Z</time>
      </trkpt>
      <trkpt lat="47.952639" lon="9.870900">
        <ele>694.776576</ele>
        <time>2025-05-18T17:43:18.668Z</time>
      </trkpt>
      <trkpt lat="47.953832" lon="9.871108">
        <ele>699.978142</ele>
        <time>2025-05-18T17:43:50.690Z</time>
      </trkpt>
      <trkpt lat="47.954262" lon="9.871239">
        <ele>701.678895</ele>
        <time>2025-05-18T17:44:01.693Z</time>
      </trkpt>
      <trkpt lat="47.954642" lon="9.871439">
        <ele>703.240353</ele>
        <time>2025-05-18T17:44:11.241Z</time>
      </trkpt>
      <trkpt lat="47.954950" lon="9.871645">
        <ele>703.473862</ele>
        <time>2025-05-18T17:44:18.888Z</time>
      </trkpt>
      <trkpt lat="47.955197" lon="9.871849">
        <ele>703.578705</ele>
        <time>2025-05-18T17:44:25.044Z</time>
      </trkpt>
      <trkpt lat="47.955461" lon="9.871993">
        <ele>703.683100</ele>
        <time>2025-05-18T17:44:30.916Z</time>
      </trkpt>
      <trkpt lat="47.955765" lon="9.872058">
        <ele>703.797168</ele>
        <time>2025-05-18T17:44:37.236Z</time>
      </trkpt>
      <trkpt lat="47.956429" lon="9.872007">
        <ele>704.035724</ele>
        <time>2025-05-18T17:44:50.554Z</time>
      </trkpt>
      <trkpt lat="47.958163" lon="9.871522">
        <ele>704.331420</ele>
        <time>2025-05-18T17:45:29.081Z</time>
      </trkpt>
      <trkpt lat="47.958403" lon="9.871478">
        <ele>703.901765</ele>
        <time>2025-05-18T17:45:34.188Z</time>
      </trkpt>
      <trkpt lat="47.958711" lon="9.871498">
        <ele>703.353965</ele>
        <time>2025-05-18T17:45:40.320Z</time>
      </trkpt>
      <trkpt lat="47.959273" lon="9.871605">
        <ele>702.347269</ele>
        <time>2025-05-18T17:45:50.500Z</time>
      </trkpt>
      <trkpt lat="47.960457" lon="9.871942">
        <ele>700.045701</ele>
        <time>2025-05-18T17:46:10.042Z</time>
      </trkpt>
      <trkpt lat="47.961058" lon="9.872178">
        <ele>698.754797</ele>
        <time>2025-05-18T17:46:20.277Z</time>
      </trkpt>
      <trkpt lat="47.961509" lon="9.872233">
        <ele>697.814812</ele>
        <time>2025-05-18T17:46:28.989Z</time>
      </trkpt>
      <trkpt lat="47.961765" lon="9.872357">
        <ele>697.568831</ele>
        <time>2025-05-18T17:46:34.687Z</time>
      </trkpt>
      <trkpt lat="47.961964" lon="9.872511">
        <ele>698.020150</ele>
        <time>2025-05-18T17:46:39.619Z</time>
      </trkpt>
      <trkpt lat="47.962087" lon="9.872659">
        <ele>698.338218</ele>
        <time>2025-05-18T17:46:43.174Z</time>
      </trkpt>
      <trkpt lat="47.962504" lon="9.873113">
        <ele>699.377355</ele>
        <time>2025-05-18T17:46:55.169Z</time>
      </trkpt>
      <trkpt lat="47.962620" lon="9.873180">
        <ele>699.627797</ele>
        <time>2025-05-18T17:46:58.216Z</time>
      </trkpt>
      <trkpt lat="47.962930" lon="9.873100">
        <ele>700.261273</ele>
        <time>2025-05-18T17:47:06.099Z</time>
      </trkpt>
      <trkpt lat="47.963071" lon="9.873130">
        <ele>700.548062</ele>
        <time>2025-05-18T17:47:09.647Z</time>
      </trkpt>
      <trkpt lat="47.963220" lon="9.873291">
        <ele>700.918391</ele>
        <time>2025-05-18T17:47:14.142Z</time>
      </trkpt>
      <trkpt lat="47.963238" lon="9.873356">
        <ele>701.013232</ele>
        <time>2025-05-18T17:47:15.285Z</time>
      </trkpt>
      <trkpt lat="47.963383" lon="9.873526">
        <ele>701.458570</ele>
        <time>2025-05-18T17:47:19.754Z</time>
      </trkpt>
      <trkpt lat="47.963658" lon="9.873870">
        <ele>702.334831</ele>
        <time>2025-05-18T17:47:28.387Z</time>
      </trkpt>
      <trkpt lat="47.963782" lon="9.874133">
        <ele>702.860945</ele>
        <time>2025-05-18T17:47:33.522Z</time>
      </trkpt>
      <trkpt lat="47.963824" lon="9.874426">
        <ele>703.351046</ele>
        <time>2025-05-18T17:47:38.324Z</time>
      </trkpt>
      <trkpt lat="47.963880" lon="9.874669">
        <ele>703.771388</ele>
        <time>2025-05-18T17:47:42.464Z</time>
      </trkpt>
      <trkpt lat="47.964024" lon="9.875102">
        <ele>704.562159</ele>
        <time>2025-05-18T17:47:50.130Z</time>
      </trkpt>
      <trkpt lat="47.964239" lon="9.875672">
        <ele>705.556691</ele>
        <time>2025-05-18T17:48:00.176Z</time>
      </trkpt>
      <trkpt lat="47.964292" lon="9.875809">
        <ele>705.718784</ele>
        <time>2025-05-18T17:48:02.570Z</time>
      </trkpt>
      <trkpt lat="47.964571" lon="9.876534">
        <ele>706.575443</ele>
        <time>2025-05-18T17:48:15.402Z</time>
      </trkpt>
      <trkpt lat="47.964684" lon="9.876763">
        <ele>706.866866</ele>
        <time>2025-05-18T17:48:19.780Z</time>
      </trkpt>
      <trkpt lat="47.965767" lon="9.878041">
        <ele>708.683749</ele>
        <time>2025-05-18T17:48:51.510Z</time>
      </trkpt>
      <trkpt lat="47.966316" lon="9.878654">
        <ele>709.344287</ele>
        <time>2025-05-18T17:49:06.831Z</time>
      </trkpt>
      <trkpt lat="47.967119" lon="9.879267">
        <ele>710.294999</ele>
        <time>2025-05-18T17:49:26.640Z</time>
      </trkpt>
      <trkpt lat="47.967903" lon="9.880395">
        <ele>711.631503</ele>
        <time>2025-05-18T17:49:51.255Z</time>
      </trkpt>
      <trkpt lat="47.968079" lon="9.880588">
        <ele>711.899569</ele>
        <time>2025-05-18T17:49:56.304Z</time>
      </trkpt>
      <trkpt lat="47.968215" lon="9.880825">
        <ele>712.185130</ele>
        <time>2025-05-18T17:50:01.192Z</time>
      </trkpt>
      <trkpt lat="47.969181" lon="9.883860">
        <ele>716.602712</ele>
        <time>2025-05-18T17:50:54.610Z</time>
      </trkpt>
      <trkpt lat="47.969265" lon="9.884069">
        <ele>716.710233</ele>
        <time>2025-05-18T17:50:58.454Z</time>
      </trkpt>
      <trkpt lat="47.970206" lon="9.885608">
        <ele>716.703685</ele>
        <time>2025-05-18T17:51:28.125Z</time>
      </trkpt>
      <trkpt lat="47.971015" lon="9.886807">
        <ele>713.020205</ele>
        <time>2025-05-18T17:51:45.875Z</time>
      </trkpt>
      <trkpt lat="47.971516" lon="9.887468">
        <ele>710.908101</ele>
        <time>2025-05-18T17:51:56.226Z</time>
      </trkpt>
      <trkpt lat="47.972526" lon="9.888234">
        <ele>707.468544</ele>
        <time>2025-05-18T17:52:15.294Z</time>
      </trkpt>
      <trkpt lat="47.972777" lon="9.888367">
        <ele>706.659847</ele>
        <time>2025-05-18T17:52:19.817Z</time>
      </trkpt>
      <trkpt lat="47.973127" lon="9.888583">
        <ele>705.492288</ele>
        <time>2025-05-18T17:52:26.111Z</time>
      </trkpt>
      <trkpt lat="47.973523" lon="9.888932">
        <ele>704.060327</ele>
        <time>2025-05-18T17:52:33.644Z</time>
      </trkpt>
      <trkpt lat="47.973707" lon="9.889016">
        <ele>703.461115</ele>
        <time>2025-05-18T17:52:36.742Z</time>
      </trkpt>
      <trkpt lat="47.975508" lon="9.889233">
        <ele>697.929011</ele>
        <time>2025-05-18T17:53:06.125Z</time>
      </trkpt>
      <trkpt lat="47.975770" lon="9.890785">
        <ele>694.943156</ele>
        <time>2025-05-18T17:53:23.858Z</time>
      </trkpt>
      <trkpt lat="47.976056" lon="9.891504">
        <ele>694.087279</ele>
        <time>2025-05-18T17:53:33.638Z</time>
      </trkpt>
      <trkpt lat="47.976935" lon="9.893404">
        <ele>692.104940</ele>
        <time>2025-05-18T17:54:03.850Z</time>
      </trkpt>
      <trkpt lat="47.976998" lon="9.893673">
        <ele>691.968938</ele>
        <time>2025-05-18T17:54:07.636Z</time>
      </trkpt>
      <trkpt lat="47.977026" lon="9.894034">
        <ele>691.795510</ele>
        <time>2025-05-18T17:54:12.466Z</time>
      </trkpt>
      <trkpt lat="47.977047" lon="9.894084">
        <ele>691.767341</ele>
        <time>2025-05-18T17:54:13.253Z</time>
      </trkpt>
      <trkpt lat="47.977134" lon="9.894304">
        <ele>691.645403</ele>
        <time>2025-05-18T17:54:16.647Z</time>
      </trkpt>
      <trkpt lat="47.977532" lon="9.894706">
        <ele>691.302908</ele>
        <time>2025-05-18T17:54:26.191Z</time>
      </trkpt>
      <trkpt lat="47.978256" lon="9.895357">
        <ele>690.953389</ele>
        <time>2025-05-18T17:54:43.285Z</time>
      </trkpt>
      <trkpt lat="47.979410" lon="9.896270">
        <ele>690.248649</ele>
        <time>2025-05-18T17:55:10.871Z</time>
      </trkpt>
      <trkpt lat="47.979825" lon="9.896650">
        <ele>689.123572</ele>
        <time>2025-05-18T17:55:20.046Z</time>
      </trkpt>
      <trkpt lat="47.980008" lon="9.896677">
        <ele>688.698530</ele>
        <time>2025-05-18T17:55:23.251Z</time>
      </trkpt>
      <trkpt lat="47.980154" lon="9.896294">
        <ele>688.016593</ele>
        <time>2025-05-18T17:55:28.193Z</time>
      </trkpt>
      <trkpt lat="47.980237" lon="9.896165">
        <ele>687.739751</ele>
        <time>2025-05-18T17:55:30.137Z</time>
      </trkpt>
      <trkpt lat="47.981102" lon="9.895297">
        <ele>685.157286</ele>
        <time>2025-05-18T17:55:46.564Z</time>
      </trkpt>
      <trkpt lat="47.981379" lon="9.895142">
        <ele>684.365203</ele>
        <time>2025-05-18T17:55:51.371Z</time>
      </trkpt>
      <trkpt lat="47.982338" lon="9.895192">
        <ele>681.795603</ele>
        <time>2025-05-18T17:56:08.297Z</time>
      </trkpt>
      <trkpt lat="47.982601" lon="9.895114">
        <ele>681.081059</ele>
        <time>2025-05-18T17:56:13.174Z</time>
      </trkpt>
      <trkpt lat="47.982988" lon="9.894917">
        <ele>679.993338</ele>
        <time>2025-05-18T17:56:20.342Z</time>
      </trkpt>
      <trkpt lat="47.983350" lon="9.894609">
        <ele>678.885025</ele>
        <time>2025-05-18T17:56:27.421Z</time>
      </trkpt>
      <trkpt lat="47.983596" lon="9.894189">
        <ele>677.891186</ele>
        <time>2025-05-18T17:56:33.511Z</time>
      </trkpt>
      <trkpt lat="47.983723" lon="9.893863">
        <ele>677.219493</ele>
        <time>2025-05-18T17:56:37.545Z</time>
      </trkpt>
      <trkpt lat="47.984636" lon="9.893260">
        <ele>674.724418</ele>
        <time>2025-05-18T17:56:53.725Z</time>
      </trkpt>
      <trkpt lat="47.986047" lon="9.892432">
        <ele>671.466593</ele>
        <time>2025-05-18T17:57:20.927Z</time>
      </trkpt>
      <trkpt lat="47.986495" lon="9.892199">
        <ele>670.702537</ele>
        <time>2025-05-18T17:57:29.786Z</time>
      </trkpt>
      <trkpt lat="47.986813" lon="9.892076">
        <ele>670.173454</ele>
        <time>2025-05-18T17:57:35.800Z</time>
      </trkpt>
      <trkpt lat="47.986992" lon="9.892041">
        <ele>669.882683</ele>
        <time>2025-05-18T17:57:39.077Z</time>
      </trkpt>
      <trkpt lat="47.987470" lon="9.891920">
        <ele>669.183710</ele>
        <time>2025-05-18T17:57:47.799Z</time>
      </trkpt>
      <trkpt lat="47.987673" lon="9.891919">
        <ele>668.926762</ele>
        <time>2025-05-18T17:57:51.432Z</time>
      </trkpt>
      <trkpt lat="47.988949" lon="9.892315">
        <ele>667.277199</ele>
        <time>2025-05-18T17:58:15.827Z</time>
      </trkpt>
      <trkpt lat="47.989222" lon="9.892489">
        <ele>667.258038</ele>
        <time>2025-05-18T17:58:21.849Z</time>
      </trkpt>
      <trkpt lat="47.989362" lon="9.892628">
        <ele>667.293069</ele>
        <time>2025-05-18T17:58:25.392Z</time>
      </trkpt>
      <trkpt lat="47.989483" lon="9.892817">
        <ele>667.329551</ele>
        <time>2025-05-18T17:58:29.165Z</time>
      </trkpt>
      <trkpt lat="47.989875" lon="9.893629">
        <ele>667.469201</ele>
        <time>2025-05-18T17:58:43.984Z</time>
      </trkpt>
      <trkpt lat="47.990141" lon="9.894241">
        <ele>667.570985</ele>
        <time>2025-05-18T17:58:54.803Z</time>
      </trkpt>
      <trkpt lat="47.990480" lon="9.894964">
        <ele>667.526184</ele>
        <time>2025-05-18T17:59:07.644Z</time>
      </trkpt>
      <trkpt lat="47.990857" lon="9.895619">
        <ele>667.465400</ele>
        <time>2025-05-18T17:59:19.681Z</time>
      </trkpt>
      <trkpt lat="47.991543" lon="9.896902">
        <ele>667.019159</ele>
        <time>2025-05-18T17:59:41.831Z</time>
      </trkpt>
      <trkpt lat="47.991827" lon="9.897349">
        <ele>666.646425</ele>
        <time>2025-05-18T17:59:49.792Z</time>
      </trkpt>
      <trkpt lat="47.992043" lon="9.897602">
        <ele>666.398424</ele>
        <time>2025-05-18T17:59:55.018Z</time>
      </trkpt>
      <trkpt lat="47.992785" lon="9.897415">
        <ele>665.757939</ele>
        <time>2025-05-18T18:00:09.453Z</time>
      </trkpt>
      <trkpt lat="47.992826" lon="9.897495">
        <ele>665.745461</ele>
        <time>2025-05-18T18:00:10.782Z</time>
      </trkpt>
      <trkpt lat="47.993050" lon="9.897260">
        <ele>665.694815</ele>
        <time>2025-05-18T18:00:16.124Z</time>
      </trkpt>
      <trkpt lat="47.993235" lon="9.897129">
        <ele>665.656933</ele>
        <time>2025-05-18T18:00:20.170Z</time>
      </trkpt>
      <trkpt lat="47.993743" lon="9.896772">
        <ele>665.553054</ele>
        <time>2025-05-18T18:00:31.796Z</time>
      </trkpt>
      <trkpt lat="47.994082" lon="9.896533">
        <ele>665.483693</ele>
        <time>2025-05-18T18:00:40.034Z</time>
      </trkpt>
      <trkpt lat="47.994391" lon="9.896293">
        <ele>665.428299</ele>
        <time>2025-05-18T18:00:47.735Z</time>
      </trkpt>
      <trkpt lat="47.994570" lon="9.896094">
        <ele>665.410325</ele>
        <time>2025-05-18T18:00:52.634Z</time>
      </trkpt>
      <trkpt lat="47.994957" lon="9.895445">
        <ele>665.363460</ele>
        <time>2025-05-18T18:01:05.276Z</time>
      </trkpt>
      <trkpt lat="47.995089" lon="9.895215">
        <ele>665.347125</ele>
        <time>2025-05-18T18:01:09.625Z</time>
      </trkpt>
      <trkpt lat="47.995271" lon="9.894945">
        <ele>665.326464</ele>
        <time>2025-05-18T18:01:15.090Z</time>
      </trkpt>
      <trkpt lat="47.995506" lon="9.894600">
        <ele>665.299923</ele>
        <time>2025-05-18T18:01:21.643Z</time>
      </trkpt>
      <trkpt lat="47.995695" lon="9.894270">
        <ele>665.097222</ele>
        <time>2025-05-18T18:01:27.092Z</time>
      </trkpt>
      <trkpt lat="47.995809" lon="9.893984">
        <ele>664.847206</ele>
        <time>2025-05-18T18:01:31.044Z</time>
      </trkpt>
      <trkpt lat="47.995908" lon="9.893767">
        <ele>664.649958</ele>
        <time>2025-05-18T18:01:34.158Z</time>
      </trkpt>
      <trkpt lat="47.995971" lon="9.893688">
        <ele>664.557656</ele>
        <time>2025-05-18T18:01:35.602Z</time>
      </trkpt>
      <trkpt lat="47.996358" lon="9.893325">
        <ele>664.044845</ele>
        <time>2025-05-18T18:01:43.666Z</time>
      </trkpt>
      <trkpt lat="47.996696" lon="9.892937">
        <ele>663.566497</ele>
        <time>2025-05-18T18:01:51.690Z</time>
      </trkpt>
      <trkpt lat="47.996774" lon="9.892861">
        <ele>663.461992</ele>
        <time>2025-05-18T18:01:53.539Z</time>
      </trkpt>
      <trkpt lat="47.996837" lon="9.892793">
        <ele>663.374771</ele>
        <time>2025-05-18T18:01:55.072Z</time>
      </trkpt>
      <trkpt lat="47.996898" lon="9.892726">
        <ele>663.289806</ele>
        <time>2025-05-18T18:01:56.579Z</time>
      </trkpt>
      <trkpt lat="47.996988" lon="9.892881">
        <ele>663.745745</ele>
        <time>2025-05-18T18:01:59.364Z</time>
      </trkpt>
      <trkpt lat="47.997102" lon="9.893029">
        <ele>664.336354</ele>
        <time>2025-05-18T18:02:02.667Z</time>
      </trkpt>
      <trkpt lat="47.997307" lon="9.893109">
        <ele>665.165001</ele>
        <time>2025-05-18T18:02:07.563Z</time>
      </trkpt>
      <trkpt lat="47.997748" lon="9.893141">
        <ele>666.891797</ele>
        <time>2025-05-18T18:02:18.635Z</time>
      </trkpt>
      <trkpt lat="47.997946" lon="9.893196">
        <ele>667.679444</ele>
        <time>2025-05-18T18:02:24.153Z</time>
      </trkpt>
      <trkpt lat="47.998134" lon="9.893209">
        <ele>668.415504</ele>
        <time>2025-05-18T18:02:29.600Z</time>
      </trkpt>
      <trkpt lat="47.998344" lon="9.893137">
        <ele>669.258158</ele>
        <time>2025-05-18T18:02:36.068Z</time>
      </trkpt>
      <trkpt lat="47.998888" lon="9.892516">
        <ele>672.408836</ele>
        <time>2025-05-18T18:02:56.028Z</time>
      </trkpt>
      <trkpt lat="47.999140" lon="9.892195">
        <ele>674.080137</ele>
        <time>2025-05-18T18:03:05.722Z</time>
      </trkpt>
      <trkpt lat="47.999696" lon="9.891593">
        <ele>677.545620</ele>
        <time>2025-05-18T18:03:23.796Z</time>
      </trkpt>
      <trkpt lat="47.999997" lon="9.891305">
        <ele>679.349589</ele>
        <time>2025-05-18T18:03:32.534Z</time>
      </trkpt>
      <trkpt lat="48.000558" lon="9.890864">
        <ele>681.772239</ele>
        <time>2025-05-18T18:03:47.800Z</time>
      </trkpt>
      <trkpt lat="48.000801" lon="9.890591">
        <ele>682.929988</ele>
        <time>2025-05-18T18:03:55.310Z</time>
      </trkpt>
      <trkpt lat="48.000953" lon="9.890632">
        <ele>683.518211</ele>
        <time>2025-05-18T18:03:59.167Z</time>
      </trkpt>
      <trkpt lat="48.002310" lon="9.890159">
        <ele>689.317514</ele>
        <time>2025-05-18T18:04:35.453Z</time>
      </trkpt>
      <trkpt lat="48.003649" lon="9.889667">
        <ele>694.802422</ele>
        <time>2025-05-18T18:05:11.932Z</time>
      </trkpt>
      <trkpt lat="48.004187" lon="9.889388">
        <ele>695.710200</ele>
        <time>2025-05-18T18:05:25.426Z</time>
      </trkpt>
      <trkpt lat="48.004596" lon="9.889085">
        <ele>696.437880</ele>
        <time>2025-05-18T18:05:35.706Z</time>
      </trkpt>
      <trkpt lat="48.004915" lon="9.888788">
        <ele>697.036986</ele>
        <time>2025-05-18T18:05:43.620Z</time>
      </trkpt>
      <trkpt lat="48.005731" lon="9.887870">
        <ele>694.807471</ele>
        <time>2025-05-18T18:06:02.681Z</time>
      </trkpt>
      <trkpt lat="48.006193" lon="9.887527">
        <ele>693.380816</ele>
        <time>2025-05-18T18:06:11.201Z</time>
      </trkpt>
      <trkpt lat="48.006748" lon="9.887177">
        <ele>690.669231</ele>
        <time>2025-05-18T18:06:20.274Z</time>
      </trkpt>
      <trkpt lat="48.007166" lon="9.886929">
        <ele>687.125040</ele>
        <time>2025-05-18T18:06:26.656Z</time>
      </trkpt>
      <trkpt lat="48.007533" lon="9.886710">
        <ele>684.010824</ele>
        <time>2025-05-18T18:06:32.150Z</time>
      </trkpt>
      <trkpt lat="48.007820" lon="9.886620">
        <ele>681.699802</ele>
        <time>2025-05-18T18:06:36.184Z</time>
      </trkpt>
      <trkpt lat="48.008288" lon="9.886477">
        <ele>677.932283</ele>
        <time>2025-05-18T18:06:42.742Z</time>
      </trkpt>
      <trkpt lat="48.008567" lon="9.886254">
        <ele>675.394318</ele>
        <time>2025-05-18T18:06:47.096Z</time>
      </trkpt>
      <trkpt lat="48.008782" lon="9.886024">
        <ele>673.273439</ele>
        <time>2025-05-18T18:06:50.744Z</time>
      </trkpt>
      <trkpt lat="48.009514" lon="9.884922">
        <ele>664.939426</ele>
        <time>2025-05-18T18:07:05.397Z</time>
      </trkpt>
      <trkpt lat="48.010690" lon="9.883661">
        <ele>656.257639</ele>
        <time>2025-05-18T18:07:26.333Z</time>
      </trkpt>
      <trkpt lat="48.010720" lon="9.883593">
        <ele>655.944203</ele>
        <time>2025-05-18T18:07:27.149Z</time>
      </trkpt>
      <trkpt lat="48.010727" lon="9.883422">
        <ele>655.284973</ele>
        <time>2025-05-18T18:07:28.896Z</time>
      </trkpt>
      <trkpt lat="48.010769" lon="9.883412">
        <ele>655.040349</ele>
        <time>2025-05-18T18:07:29.546Z</time>
      </trkpt>
      <trkpt lat="48.011013" lon="9.883304">
        <ele>653.576658</ele>
        <time>2025-05-18T18:07:33.529Z</time>
      </trkpt>
      <trkpt lat="48.011205" lon="9.883174">
        <ele>653.005961</ele>
        <time>2025-05-18T18:07:36.922Z</time>
      </trkpt>
      <trkpt lat="48.011609" lon="9.882739">
        <ele>652.041729</ele>
        <time>2025-05-18T18:07:45.402Z</time>
      </trkpt>
      <trkpt lat="48.013098" lon="9.880955">
        <ele>648.278744</ele>
        <time>2025-05-18T18:08:21.969Z</time>
      </trkpt>
      <trkpt lat="48.013282" lon="9.880685">
        <ele>647.756999</ele>
        <time>2025-05-18T18:08:26.508Z</time>
      </trkpt>
      <trkpt lat="48.013544" lon="9.880202">
        <ele>646.915235</ele>
        <time>2025-05-18T18:08:33.564Z</time>
      </trkpt>
      <trkpt lat="48.013764" lon="9.879699">
        <ele>646.068148</ele>
        <time>2025-05-18T18:08:40.163Z</time>
      </trkpt>
      <trkpt lat="48.013866" lon="9.879367">
        <ele>645.418459</ele>
        <time>2025-05-18T18:08:44.100Z</time>
      </trkpt>
      <trkpt lat="48.014083" lon="9.878375">
        <ele>643.562452</ele>
        <time>2025-05-18T18:08:55.432Z</time>
      </trkpt>
      <trkpt lat="48.014279" lon="9.877621">
        <ele>642.123935</ele>
        <time>2025-05-18T18:09:04.613Z</time>
      </trkpt>
      <trkpt lat="48.014403" lon="9.877305">
        <ele>641.472446</ele>
        <time>2025-05-18T18:09:08.893Z</time>
      </trkpt>
      <trkpt lat="48.014763" lon="9.876686">
        <ele>641.380172</ele>
        <time>2025-05-18T18:09:19.256Z</time>
      </trkpt>
      <trkpt lat="48.015104" lon="9.876145">
        <ele>641.336097</ele>
        <time>2025-05-18T18:09:29.528Z</time>
      </trkpt>
      <trkpt lat="48.015749" lon="9.875012">
        <ele>641.689175</ele>
        <time>2025-05-18T18:09:51.902Z</time>
      </trkpt>
      <trkpt lat="48.016090" lon="9.874304">
        <ele>642.779453</ele>
        <time>2025-05-18T18:10:05.645Z</time>
      </trkpt>
      <trkpt lat="48.016819" lon="9.872694">
        <ele>644.804411</ele>
        <time>2025-05-18T18:10:36.087Z</time>
      </trkpt>
      <trkpt lat="48.016960" lon="9.872432">
        <ele>644.931917</ele>
        <time>2025-05-18T18:10:41.313Z</time>
      </trkpt>
      <trkpt lat="48.017187" lon="9.872089">
        <ele>645.114872</ele>
        <time>2025-05-18T18:10:48.809Z</time>
      </trkpt>
      <trkpt lat="48.017567" lon="9.871683">
        <ele>645.379634</ele>
        <time>2025-05-18T18:10:59.163Z</time>
      </trkpt>
      <trkpt lat="48.017964" lon="9.871340">
        <ele>645.639555</ele>
        <time>2025-05-18T18:11:08.229Z</time>
      </trkpt>
      <trkpt lat="48.018461" lon="9.871064">
        <ele>644.125030</ele>
        <time>2025-05-18T18:11:17.066Z</time>
      </trkpt>
      <trkpt lat="48.018663" lon="9.870875">
        <ele>643.421506</ele>
        <time>2025-05-18T18:11:20.950Z</time>
      </trkpt>
      <trkpt lat="48.018707" lon="9.870810">
        <ele>643.238886</ele>
        <time>2025-05-18T18:11:21.925Z</time>
      </trkpt>
      <trkpt lat="48.018749" lon="9.870663">
        <ele>642.923225</ele>
        <time>2025-05-18T18:11:23.611Z</time>
      </trkpt>
      <trkpt lat="48.018757" lon="9.870337">
        <ele>642.279026</ele>
        <time>2025-05-18T18:11:26.996Z</time>
      </trkpt>
      <trkpt lat="48.018785" lon="9.870235">
        <ele>642.061299</ele>
        <time>2025-05-18T18:11:28.145Z</time>
      </trkpt>
      <trkpt lat="48.018855" lon="9.870133">
        <ele>641.772717</ele>
        <time>2025-05-18T18:11:29.663Z</time>
      </trkpt>
      <trkpt lat="48.018942" lon="9.870086">
        <ele>641.499614</ele>
        <time>2025-05-18T18:11:31.134Z</time>
      </trkpt>
      <trkpt lat="48.019076" lon="9.870059">
        <ele>641.100431</ele>
        <time>2025-05-18T18:11:33.291Z</time>
      </trkpt>
      <trkpt lat="48.019276" lon="9.870086">
        <ele>640.507572</ele>
        <time>2025-05-18T18:11:36.557Z</time>
      </trkpt>
      <trkpt lat="48.019611" lon="9.870166">
        <ele>639.864511</ele>
        <time>2025-05-18T18:11:42.140Z</time>
      </trkpt>
      <trkpt lat="48.019641" lon="9.870171">
        <ele>639.813811</ele>
        <time>2025-05-18T18:11:42.655Z</time>
      </trkpt>
      <trkpt lat="48.019667" lon="9.870175">
        <ele>639.769911</ele>
        <time>2025-05-18T18:11:43.112Z</time>
      </trkpt>
      <trkpt lat="48.020055" lon="9.870262">
        <ele>639.110938</ele>
        <time>2025-05-18T18:11:50.636Z</time>
      </trkpt>
      <trkpt lat="48.020669" lon="9.870498">
        <ele>638.046129</ele>
        <time>2025-05-18T18:12:02.725Z</time>
      </trkpt>
      <trkpt lat="48.020744" lon="9.870504">
        <ele>637.919979</ele>
        <time>2025-05-18T18:12:04.172Z</time>
      </trkpt>
      <trkpt lat="48.021009" lon="9.870433">
        <ele>637.467795</ele>
        <time>2025-05-18T18:12:09.228Z</time>
      </trkpt>
      <trkpt lat="48.021206" lon="9.870281">
        <ele>637.385461</ele>
        <time>2025-05-18T18:12:13.318Z</time>
      </trkpt>
      <trkpt lat="48.021514" lon="9.869957">
        <ele>637.582327</ele>
        <time>2025-05-18T18:12:20.348Z</time>
      </trkpt>
      <trkpt lat="48.022003" lon="9.869355">
        <ele>637.913457</ele>
        <time>2025-05-18T18:12:33.242Z</time>
      </trkpt>
      <trkpt lat="48.022098" lon="9.869234">
        <ele>637.978696</ele>
        <time>2025-05-18T18:12:36.080Z</time>
      </trkpt>
      <trkpt lat="48.022403" lon="9.868820">
        <ele>638.194040</ele>
        <time>2025-05-18T18:12:45.807Z</time>
      </trkpt>
      <trkpt lat="48.022785" lon="9.868404">
        <ele>639.831096</ele>
        <time>2025-05-18T18:12:57.621Z</time>
      </trkpt>
      <trkpt lat="48.023380" lon="9.867951">
        <ele>642.813747</ele>
        <time>2025-05-18T18:13:15.159Z</time>
      </trkpt>
      <trkpt lat="48.023677" lon="9.867659">
        <ele>644.401596</ele>
        <time>2025-05-18T18:13:24.686Z</time>
      </trkpt>
      <trkpt lat="48.024000" lon="9.867306">
        <ele>646.188806</ele>
        <time>2025-05-18T18:13:35.468Z</time>
      </trkpt>
      <trkpt lat="48.024309" lon="9.867066">
        <ele>647.825292</ele>
        <time>2025-05-18T18:13:44.842Z</time>
      </trkpt>
      <trkpt lat="48.025091" lon="9.866548">
        <ele>651.859112</ele>
        <time>2025-05-18T18:14:07.706Z</time>
      </trkpt>
      <trkpt lat="48.026636" lon="9.865197">
        <ele>658.285920</ele>
        <time>2025-05-18T18:14:53.482Z</time>
      </trkpt>
      <trkpt lat="48.027138" lon="9.864850">
        <ele>659.943423</ele>
        <time>2025-05-18T18:15:06.197Z</time>
      </trkpt>
      <trkpt lat="48.027845" lon="9.864340">
        <ele>660.277546</ele>
        <time>2025-05-18T18:15:22.698Z</time>
      </trkpt>
      <trkpt lat="48.028401" lon="9.863811">
        <ele>660.381905</ele>
        <time>2025-05-18T18:15:36.008Z</time>
      </trkpt>
      <trkpt lat="48.029066" lon="9.863295">
        <ele>660.850289</ele>
        <time>2025-05-18T18:15:52.145Z</time>
      </trkpt>
      <trkpt lat="48.029932" lon="9.862658">
        <ele>662.055860</ele>
        <time>2025-05-18T18:16:14.092Z</time>
      </trkpt>
      <trkpt lat="48.030612" lon="9.862065">
        <ele>663.179913</ele>
        <time>2025-05-18T18:16:32.551Z</time>
      </trkpt>
      <trkpt lat="48.031575" lon="9.860966">
        <ele>665.314726</ele>
        <time>2025-05-18T18:17:01.044Z</time>
      </trkpt>
      <trkpt lat="48.031940" lon="9.860596">
        <ele>665.747022</ele>
        <time>2025-05-18T18:17:10.946Z</time>
      </trkpt>
      <trkpt lat="48.032437" lon="9.860180">
        <ele>665.216422</ele>
        <time>2025-05-18T18:17:22.763Z</time>
      </trkpt>
      <trkpt lat="48.032660" lon="9.860052">
        <ele>664.993897</ele>
        <time>2025-05-18T18:17:27.368Z</time>
      </trkpt>
      <trkpt lat="48.033602" lon="9.859737">
        <ele>663.934682</ele>
        <time>2025-05-18T18:17:44.432Z</time>
      </trkpt>
      <trkpt lat="48.034508" lon="9.859346">
        <ele>661.592082</ele>
        <time>2025-05-18T18:18:00.503Z</time>
      </trkpt>
      <trkpt lat="48.035210" lon="9.858963">
        <ele>659.735692</ele>
        <time>2025-05-18T18:18:13.043Z</time>
      </trkpt>
      <trkpt lat="48.035686" lon="9.858663">
        <ele>658.169548</ele>
        <time>2025-05-18T18:18:21.625Z</time>
      </trkpt>
      <trkpt lat="48.037523" lon="9.857467">
        <ele>651.996196</ele>
        <time>2025-05-18T18:18:54.444Z</time>
      </trkpt>
      <trkpt lat="48.037762" lon="9.857356">
        <ele>651.205508</ele>
        <time>2025-05-18T18:18:58.678Z</time>
      </trkpt>
      <trkpt lat="48.037976" lon="9.857298">
        <ele>650.518367</ele>
        <time>2025-05-18T18:19:02.340Z</time>
      </trkpt>
      <trkpt lat="48.038427" lon="9.857281">
        <ele>649.092989</ele>
        <time>2025-05-18T18:19:09.745Z</time>
      </trkpt>
      <trkpt lat="48.038739" lon="9.857339">
        <ele>647.793089</ele>
        <time>2025-05-18T18:19:14.747Z</time>
      </trkpt>
      <trkpt lat="48.039285" lon="9.857660">
        <ele>644.745994</ele>
        <time>2025-05-18T18:19:23.681Z</time>
      </trkpt>
      <trkpt lat="48.039740" lon="9.858113">
        <ele>641.907054</ele>
        <time>2025-05-18T18:19:31.776Z</time>
      </trkpt>
      <trkpt lat="48.039903" lon="9.858108">
        <ele>641.060273</ele>
        <time>2025-05-18T18:19:34.176Z</time>
      </trkpt>
      <trkpt lat="48.040011" lon="9.858008">
        <ele>640.400539</ele>
        <time>2025-05-18T18:19:36.061Z</time>
      </trkpt>
      <trkpt lat="48.040179" lon="9.857214">
        <ele>636.801926</ele>
        <time>2025-05-18T18:19:44.188Z</time>
      </trkpt>
      <trkpt lat="48.040260" lon="9.857062">
        <ele>635.850523</ele>
        <time>2025-05-18T18:19:46.062Z</time>
      </trkpt>
      <trkpt lat="48.040395" lon="9.856924">
        <ele>634.653437</ele>
        <time>2025-05-18T18:19:48.410Z</time>
      </trkpt>
      <trkpt lat="48.040511" lon="9.856742">
        <ele>633.422683</ele>
        <time>2025-05-18T18:19:50.829Z</time>
      </trkpt>
      <trkpt lat="48.040571" lon="9.856547">
        <ele>632.371993</ele>
        <time>2025-05-18T18:19:52.897Z</time>
      </trkpt>
      <trkpt lat="48.040616" lon="9.856037">
        <ele>629.854048</ele>
        <time>2025-05-18T18:19:57.794Z</time>
      </trkpt>
      <trkpt lat="48.040689" lon="9.855919">
        <ele>629.067159</ele>
        <time>2025-05-18T18:19:59.317Z</time>
      </trkpt>
      <trkpt lat="48.040795" lon="9.855829">
        <ele>628.174835</ele>
        <time>2025-05-18T18:20:01.030Z</time>
      </trkpt>
      <trkpt lat="48.041142" lon="9.855685">
        <ele>625.233263</ele>
        <time>2025-05-18T18:20:06.041Z</time>
      </trkpt>
      <trkpt lat="48.041279" lon="9.855579">
        <ele>623.450850</ele>
        <time>2025-05-18T18:20:08.144Z</time>
      </trkpt>
      <trkpt lat="48.041408" lon="9.855424">
        <ele>621.538723</ele>
        <time>2025-05-18T18:20:10.389Z</time>
      </trkpt>
      <trkpt lat="48.041518" lon="9.855199">
        <ele>619.385204</ele>
        <time>2025-05-18T18:20:12.913Z</time>
      </trkpt>
      <trkpt lat="48.041606" lon="9.855018">
        <ele>617.656148</ele>
        <time>2025-05-18T18:20:14.924Z</time>
      </trkpt>
      <trkpt lat="48.041819" lon="9.854726">
        <ele>614.317319</ele>
        <time>2025-05-18T18:20:18.804Z</time>
      </trkpt>
      <trkpt lat="48.042481" lon="9.854147">
        <ele>605.455556</ele>
        <time>2025-05-18T18:20:28.891Z</time>
      </trkpt>
      <trkpt lat="48.042726" lon="9.853809">
        <ele>601.269365</ele>
        <time>2025-05-18T18:20:33.223Z</time>
      </trkpt>
      <trkpt lat="48.042927" lon="9.853402">
        <ele>597.004415</ele>
        <time>2025-05-18T18:20:37.645Z</time>
      </trkpt>
      <trkpt lat="48.042985" lon="9.853181">
        <ele>595.003278</ele>
        <time>2025-05-18T18:20:39.736Z</time>
      </trkpt>
      <trkpt lat="48.043017" lon="9.852983">
        <ele>593.286312</ele>
        <time>2025-05-18T18:20:41.531Z</time>
      </trkpt>
      <trkpt lat="48.043019" lon="9.852666">
        <ele>590.614272</ele>
        <time>2025-05-18T18:20:44.332Z</time>
      </trkpt>
      <trkpt lat="48.042948" lon="9.852322">
        <ele>587.579753</ele>
        <time>2025-05-18T18:20:47.543Z</time>
      </trkpt>
      <trkpt lat="48.042797" lon="9.852013">
        <ele>584.353705</ele>
        <time>2025-05-18T18:20:50.969Z</time>
      </trkpt>
      <trkpt lat="48.042649" lon="9.851826">
        <ele>582.139740</ele>
        <time>2025-05-18T18:20:53.563Z</time>
      </trkpt>
      <trkpt lat="48.042246" lon="9.851462">
        <ele>578.156561</ele>
        <time>2025-05-18T18:20:59.976Z</time>
      </trkpt>
      <trkpt lat="48.042190" lon="9.851365">
        <ele>577.431601</ele>
        <time>2025-05-18T18:21:01.161Z</time>
      </trkpt>
      <trkpt lat="48.042179" lon="9.851146">
        <ele>576.189283</ele>
        <time>2025-05-18T18:21:03.201Z</time>
      </trkpt>
      <trkpt lat="48.042260" lon="9.850967">
        <ele>574.966606</ele>
        <time>2025-05-18T18:21:05.226Z</time>
      </trkpt>
      <trkpt lat="48.042350" lon="9.850900">
        <ele>574.116029</ele>
        <time>2025-05-18T18:21:06.631Z</time>
      </trkpt>
      <trkpt lat="48.042614" lon="9.850819">
        <ele>571.835869</ele>
        <time>2025-05-18T18:21:10.406Z</time>
      </trkpt>
      <trkpt lat="48.042966" lon="9.850731">
        <ele>568.816355</ele>
        <time>2025-05-18T18:21:15.447Z</time>
      </trkpt>
      <trkpt lat="48.043131" lon="9.850689">
        <ele>567.400253</ele>
        <time>2025-05-18T18:21:17.842Z</time>
      </trkpt>
      <trkpt lat="48.043475" lon="9.850618">
        <ele>566.038811</ele>
        <time>2025-05-18T18:21:22.953Z</time>
      </trkpt>
      <trkpt lat="48.043513" lon="9.850589">
        <ele>565.872363</ele>
        <time>2025-05-18T18:21:23.610Z</time>
      </trkpt>
      <trkpt lat="48.043557" lon="9.850485">
        <ele>565.551318</ele>
        <time>2025-05-18T18:21:24.877Z</time>
      </trkpt>
      <trkpt lat="48.043736" lon="9.850519">
        <ele>564.847304</ele>
        <time>2025-05-18T18:21:27.712Z</time>
      </trkpt>
      <trkpt lat="48.043833" lon="9.850495">
        <ele>564.463696</ele>
        <time>2025-05-18T18:21:29.274Z</time>
      </trkpt>
      <trkpt lat="48.043905" lon="9.850463">
        <ele>564.170634</ele>
        <time>2025-05-18T18:21:30.506Z</time>
      </trkpt>
      <trkpt lat="48.044378" lon="9.850198">
        <ele>562.199918</ele>
        <time>2025-05-18T18:21:38.933Z</time>
      </trkpt>
      <trkpt lat="48.044467" lon="9.850130">
        <ele>561.809986</ele>
        <time>2025-05-18T18:21:40.619Z</time>
      </trkpt>
      <trkpt lat="48.044581" lon="9.850040">
        <ele>561.307039</ele>
        <time>2025-05-18T18:21:42.782Z</time>
      </trkpt>
      <trkpt lat="48.044991" lon="9.849584">
        <ele>559.756330</ele>
        <time>2025-05-18T18:21:51.512Z</time>
      </trkpt>
      <trkpt lat="48.045123" lon="9.849414">
        <ele>559.361444</ele>
        <time>2025-05-18T18:21:54.483Z</time>
      </trkpt>
      <trkpt lat="48.045327" lon="9.849152">
        <ele>558.751886</ele>
        <time>2025-05-18T18:21:59.041Z</time>
      </trkpt>
      <trkpt lat="48.045728" lon="9.848634">
        <ele>557.550731</ele>
        <time>2025-05-18T18:22:08.076Z</time>
      </trkpt>
      <trkpt lat="48.045875" lon="9.848465">
        <ele>557.130418</ele>
        <time>2025-05-18T18:22:11.270Z</time>
      </trkpt>
      <trkpt lat="48.045894" lon="9.848375">
        <ele>556.987376</ele>
        <time>2025-05-18T18:22:12.351Z</time>
      </trkpt>
      <trkpt lat="48.046084" lon="9.848232">
        <ele>556.505189</ele>
        <time>2025-05-18T18:22:16.048Z</time>
      </trkpt>
      <trkpt lat="48.046329" lon="9.848182">
        <ele>556.186111</ele>
        <time>2025-05-18T18:22:20.430Z</time>
      </trkpt>
      <trkpt lat="48.046844" lon="9.848078">
        <ele>555.825170</ele>
        <time>2025-05-18T18:22:30.375Z</time>
      </trkpt>
      <trkpt lat="48.047227" lon="9.847922">
        <ele>555.549471</ele>
        <time>2025-05-18T18:22:38.403Z</time>
      </trkpt>
      <trkpt lat="48.047537" lon="9.847742">
        <ele>555.318507</ele>
        <time>2025-05-18T18:22:45.286Z</time>
      </trkpt>
      <trkpt lat="48.047857" lon="9.847509">
        <ele>555.071317</ele>
        <time>2025-05-18T18:22:52.795Z</time>
      </trkpt>
      <trkpt lat="48.048249" lon="9.847141">
        <ele>555.093602</ele>
        <time>2025-05-18T18:23:02.736Z</time>
      </trkpt>
      <trkpt lat="48.048589" lon="9.846774">
        <ele>555.143269</ele>
        <time>2025-05-18T18:23:11.672Z</time>
      </trkpt>
      <trkpt lat="48.049383" lon="9.845981">
        <ele>555.256363</ele>
        <time>2025-05-18T18:23:31.957Z</time>
      </trkpt>
      <trkpt lat="48.051131" lon="9.844609">
        <ele>555.503960</ele>
        <time>2025-05-18T18:24:14.725Z</time>
      </trkpt>
      <trkpt lat="48.051324" lon="9.844443">
        <ele>555.261675</ele>
        <time>2025-05-18T18:24:19.274Z</time>
      </trkpt>
      <trkpt lat="48.051710" lon="9.844032">
        <ele>554.746048</ele>
        <time>2025-05-18T18:24:28.663Z</time>
      </trkpt>
      <trkpt lat="48.052324" lon="9.843206">
        <ele>553.847383</ele>
        <time>2025-05-18T18:24:43.606Z</time>
      </trkpt>
      <trkpt lat="48.053138" lon="9.842032">
        <ele>551.538481</ele>
        <time>2025-05-18T18:25:03.072Z</time>
      </trkpt>
      <trkpt lat="48.053488" lon="9.841621">
        <ele>550.587348</ele>
        <time>2025-05-18T18:25:10.714Z</time>
      </trkpt>
      <trkpt lat="48.053929" lon="9.841202">
        <ele>549.713296</ele>
        <time>2025-05-18T18:25:19.967Z</time>
      </trkpt>
      <trkpt lat="48.054414" lon="9.840836">
        <ele>549.223382</ele>
        <time>2025-05-18T18:25:29.816Z</time>
      </trkpt>
      <trkpt lat="48.054893" lon="9.840516">
        <ele>548.750263</ele>
        <time>2025-05-18T18:25:39.994Z</time>
      </trkpt>
      <trkpt lat="48.055413" lon="9.840060">
        <ele>548.264571</ele>
        <time>2025-05-18T18:25:52.948Z</time>
      </trkpt>
      <trkpt lat="48.056051" lon="9.839284">
        <ele>548.220332</ele>
        <time>2025-05-18T18:26:10.757Z</time>
      </trkpt>
      <trkpt lat="48.056641" lon="9.838451">
        <ele>548.176685</ele>
        <time>2025-05-18T18:26:27.926Z</time>
      </trkpt>
      <trkpt lat="48.057005" lon="9.837865">
        <ele>547.675374</ele>
        <time>2025-05-18T18:26:38.132Z</time>
      </trkpt>
      <trkpt lat="48.057362" lon="9.837099">
        <ele>546.968137</ele>
        <time>2025-05-18T18:26:49.652Z</time>
      </trkpt>
      <trkpt lat="48.057538" lon="9.836564">
        <ele>546.516538</ele>
        <time>2025-05-18T18:26:57.201Z</time>
      </trkpt>
      <trkpt lat="48.057637" lon="9.836212">
        <ele>546.227313</ele>
        <time>2025-05-18T18:27:02.038Z</time>
      </trkpt>
      <trkpt lat="48.057702" lon="9.835983">
        <ele>546.081431</ele>
        <time>2025-05-18T18:27:05.203Z</time>
      </trkpt>
      <trkpt lat="48.057895" lon="9.835404">
        <ele>545.811908</ele>
        <time>2025-05-18T18:27:13.541Z</time>
      </trkpt>
      <trkpt lat="48.057953" lon="9.835428">
        <ele>545.774403</ele>
        <time>2025-05-18T18:27:14.784Z</time>
      </trkpt>
      <trkpt lat="48.058081" lon="9.835165">
        <ele>545.638878</ele>
        <time>2025-05-18T18:27:19.071Z</time>
      </trkpt>
      <trkpt lat="48.058184" lon="9.835011">
        <ele>545.548124</ele>
        <time>2025-05-18T18:27:21.996Z</time>
      </trkpt>
      <trkpt lat="48.058366" lon="9.834765">
        <ele>545.395259</ele>
        <time>2025-05-18T18:27:26.978Z</time>
      </trkpt>
      <trkpt lat="48.058529" lon="9.834596">
        <ele>545.271662</ele>
        <time>2025-05-18T18:27:31.055Z</time>
      </trkpt>
      <trkpt lat="48.058718" lon="9.834395">
        <ele>545.127142</ele>
        <time>2025-05-18T18:27:35.849Z</time>
      </trkpt>
      <trkpt lat="48.059292" lon="9.833860">
        <ele>545.044164</ele>
        <time>2025-05-18T18:27:50.000Z</time>
      </trkpt>
      <trkpt lat="48.059319" lon="9.833836">
        <ele>545.046189</ele>
        <time>2025-05-18T18:27:50.656Z</time>
      </trkpt>
      <trkpt lat="48.059620" lon="9.833574">
        <ele>545.068638</ele>
        <time>2025-05-18T18:27:58.009Z</time>
      </trkpt>
      <trkpt lat="48.060290" lon="9.833013">
        <ele>545.118136</ele>
        <time>2025-05-18T18:28:14.415Z</time>
      </trkpt>
      <trkpt lat="48.060639" lon="9.832785">
        <ele>545.150457</ele>
        <time>2025-05-18T18:28:22.623Z</time>
      </trkpt>
      <trkpt lat="48.060848" lon="9.832583">
        <ele>545.175214</ele>
        <time>2025-05-18T18:28:27.929Z</time>
      </trkpt>
      <trkpt lat="48.061316" lon="9.832140">
        <ele>545.230318</ele>
        <time>2025-05-18T18:28:39.584Z</time>
      </trkpt>
      <trkpt lat="48.061334" lon="9.832124">
        <ele>545.232401</ele>
        <time>2025-05-18T18:28:40.015Z</time>
      </trkpt>
      <trkpt lat="48.061605" lon="9.831883">
        <ele>545.263769</ele>
        <time>2025-05-18T18:28:46.723Z</time>
      </trkpt>
      <trkpt lat="48.061708" lon="9.831756">
        <ele>545.277050</ele>
        <time>2025-05-18T18:28:49.580Z</time>
      </trkpt>
      <trkpt lat="48.062019" lon="9.831216">
        <ele>545.315385</ele>
        <time>2025-05-18T18:28:59.821Z</time>
      </trkpt>
      <trkpt lat="48.062067" lon="9.831146">
        <ele>545.318517</ele>
        <time>2025-05-18T18:29:01.265Z</time>
      </trkpt>
      <trkpt lat="48.062242" lon="9.830951">
        <ele>545.328713</ele>
        <time>2025-05-18T18:29:05.916Z</time>
      </trkpt>
      <trkpt lat="48.062315" lon="9.830891">
        <ele>545.332605</ele>
        <time>2025-05-18T18:29:07.664Z</time>
      </trkpt>
      <trkpt lat="48.062485" lon="9.830774">
        <ele>545.341348</ele>
        <time>2025-05-18T18:29:11.606Z</time>
      </trkpt>
      <trkpt lat="48.062609" lon="9.830699">
        <ele>545.347598</ele>
        <time>2025-05-18T18:29:14.457Z</time>
      </trkpt>
      <trkpt lat="48.062640" lon="9.830681">
        <ele>545.349151</ele>
        <time>2025-05-18T18:29:15.155Z</time>
      </trkpt>
      <trkpt lat="48.062703" lon="9.830641">
        <ele>545.352349</ele>
        <time>2025-05-18T18:29:16.627Z</time>
      </trkpt>
      <trkpt lat="48.062953" lon="9.830461">
        <ele>545.365313</ele>
        <time>2025-05-18T18:29:22.570Z</time>
      </trkpt>
      <trkpt lat="48.063149" lon="9.830248">
        <ele>545.376632</ele>
        <time>2025-05-18T18:29:27.798Z</time>
      </trkpt>
      <trkpt lat="48.063275" lon="9.830077">
        <ele>545.384580</ele>
        <time>2025-05-18T18:29:31.419Z</time>
      </trkpt>
      <trkpt lat="48.063503" lon="9.829800">
        <ele>545.339896</ele>
        <time>2025-05-18T18:29:37.499Z</time>
      </trkpt>
      <trkpt lat="48.063603" lon="9.829691">
        <ele>545.296761</ele>
        <time>2025-05-18T18:29:40.005Z</time>
      </trkpt>
      <trkpt lat="48.063955" lon="9.829345">
        <ele>545.149923</ele>
        <time>2025-05-18T18:29:48.392Z</time>
      </trkpt>
      <trkpt lat="48.064015" lon="9.829290">
        <ele>545.125391</ele>
        <time>2025-05-18T18:29:49.791Z</time>
      </trkpt>
      <trkpt lat="48.064159" lon="9.829155">
        <ele>545.066145</ele>
        <time>2025-05-18T18:29:53.157Z</time>
      </trkpt>
      <trkpt lat="48.064342" lon="9.828937">
        <ele>544.984591</ele>
        <time>2025-05-18T18:29:57.884Z</time>
      </trkpt>
      <trkpt lat="48.064472" lon="9.828718">
        <ele>544.916341</ele>
        <time>2025-05-18T18:30:01.928Z</time>
      </trkpt>
      <trkpt lat="48.064584" lon="9.828402">
        <ele>544.832998</ele>
        <time>2025-05-18T18:30:06.865Z</time>
      </trkpt>
      <trkpt lat="48.064685" lon="9.828041">
        <ele>544.761333</ele>
        <time>2025-05-18T18:30:12.242Z</time>
      </trkpt>
      <trkpt lat="48.064602" lon="9.827972">
        <ele>544.756967</ele>
        <time>2025-05-18T18:30:14.184Z</time>
      </trkpt>
      <trkpt lat="48.064548" lon="9.827894">
        <ele>544.753515</ele>
        <time>2025-05-18T18:30:15.727Z</time>
      </trkpt>
      <trkpt lat="48.064331" lon="9.827393">
        <ele>544.735167</ele>
        <time>2025-05-18T18:30:24.145Z</time>
      </trkpt>
      <trkpt lat="48.064029" lon="9.826209">
        <ele>544.696218</ele>
        <time>2025-05-18T18:30:42.290Z</time>
      </trkpt>
      <trkpt lat="48.063976" lon="9.825964">
        <ele>544.688304</ele>
        <time>2025-05-18T18:30:45.895Z</time>
      </trkpt>
      <trkpt lat="48.063925" lon="9.825731">
        <ele>544.677148</ele>
        <time>2025-05-18T18:30:49.259Z</time>
      </trkpt>
      <trkpt lat="48.063869" lon="9.825477">
        <ele>544.632440</ele>
        <time>2025-05-18T18:30:52.914Z</time>
      </trkpt>
      <trkpt lat="48.063948" lon="9.825459">
        <ele>544.612453</ele>
        <time>2025-05-18T18:30:55.689Z</time>
      </trkpt>
      <trkpt lat="48.064394" lon="9.825393">
        <ele>544.500357</ele>
        <time>2025-05-18T18:31:11.213Z</time>
      </trkpt>
      <trkpt lat="48.064571" lon="9.825252">
        <ele>544.450204</ele>
        <time>2025-05-18T18:31:18.165Z</time>
      </trkpt>
      <trkpt lat="48.065072" lon="9.825057">
        <ele>544.320726</ele>
        <time>2025-05-18T18:31:36.081Z</time>
      </trkpt>
      <trkpt lat="48.065040" lon="9.824804">
        <ele>544.277686</ele>
        <time>2025-05-18T18:31:39.588Z</time>
      </trkpt>
      <trkpt lat="48.066093" lon="9.824672">
        <ele>544.049633</ele>
        <time>2025-05-18T18:32:02.013Z</time>
      </trkpt>
      <trkpt lat="48.066183" lon="9.824718">
        <ele>544.029794</ele>
        <time>2025-05-18T18:32:04.043Z</time>
      </trkpt>
      <trkpt lat="48.066324" lon="9.824033">
        <ele>543.929878</ele>
        <time>2025-05-18T18:32:14.035Z</time>
      </trkpt>
      <trkpt lat="48.066431" lon="9.823472">
        <ele>543.808851</ele>
        <time>2025-05-18T18:32:21.867Z</time>
      </trkpt>
      <trkpt lat="48.066643" lon="9.822420">
        <ele>542.892642</ele>
        <time>2025-05-18T18:32:35.999Z</time>
      </trkpt>
      <trkpt lat="48.066794" lon="9.821941">
        <ele>542.451028</ele>
        <time>2025-05-18T18:32:42.508Z</time>
      </trkpt>
      <trkpt lat="48.067090" lon="9.821205">
        <ele>541.734766</ele>
        <time>2025-05-18T18:32:52.876Z</time>
      </trkpt>
      <trkpt lat="48.067214" lon="9.820774">
        <ele>541.396412</ele>
        <time>2025-05-18T18:32:58.553Z</time>
      </trkpt>
      <trkpt lat="48.067281" lon="9.820449">
        <ele>541.168653</ele>
        <time>2025-05-18T18:33:02.815Z</time>
      </trkpt>
      <trkpt lat="48.067398" lon="9.819805">
        <ele>540.721742</ele>
        <time>2025-05-18T18:33:11.339Z</time>
      </trkpt>
      <trkpt lat="48.067552" lon="9.818983">
        <ele>540.150065</ele>
        <time>2025-05-18T18:33:22.541Z</time>
      </trkpt>
      <trkpt lat="48.067666" lon="9.818422">
        <ele>539.801963</ele>
        <time>2025-05-18T18:33:30.485Z</time>
      </trkpt>
      <trkpt lat="48.067752" lon="9.818198">
        <ele>539.775938</ele>
        <time>2025-05-18T18:33:34.017Z</time>
      </trkpt>
      <trkpt lat="48.067383" lon="9.817839">
        <ele>539.709589</ele>
        <time>2025-05-18T18:33:43.103Z</time>
      </trkpt>
      <trkpt lat="48.067479" lon="9.817626">
        <ele>539.683707</ele>
        <time>2025-05-18T18:33:46.628Z</time>
      </trkpt>
      <trkpt lat="48.068108" lon="9.817210">
        <ele>539.580038</ele>
        <time>2025-05-18T18:34:01.112Z</time>
      </trkpt>
      <trkpt lat="48.068177" lon="9.817164">
        <ele>539.568651</ele>
        <time>2025-05-18T18:34:02.729Z</time>
      </trkpt>
      <trkpt lat="48.068374" lon="9.816873">
        <ele>539.536336</ele>
        <time>2025-05-18T18:34:08.630Z</time>
      </trkpt>
      <trkpt lat="48.068509" lon="9.816560">
        <ele>539.528782</ele>
        <time>2025-05-18T18:34:13.908Z</time>
      </trkpt>
      <trkpt lat="48.068676" lon="9.816284">
        <ele>539.521232</ele>
        <time>2025-05-18T18:34:19.162Z</time>
      </trkpt>
      <trkpt lat="48.068838" lon="9.816122">
        <ele>539.515320</ele>
        <time>2025-05-18T18:34:23.286Z</time>
      </trkpt>
      <trkpt lat="48.069115" lon="9.815949">
        <ele>539.506211</ele>
        <time>2025-05-18T18:34:29.660Z</time>
      </trkpt>
      <trkpt lat="48.069097" lon="9.815873">
        <ele>539.504576</ele>
        <time>2025-05-18T18:34:30.818Z</time>
      </trkpt>
      <trkpt lat="48.069597" lon="9.815564">
        <ele>539.488161</ele>
        <time>2025-05-18T18:34:42.298Z</time>
      </trkpt>
      <trkpt lat="48.071915" lon="9.813950">
        <ele>538.389958</ele>
        <time>2025-05-18T18:35:34.339Z</time>
      </trkpt>
      <trkpt lat="48.074156" lon="9.812383">
        <ele>536.668273</ele>
        <time>2025-05-18T18:36:22.660Z</time>
      </trkpt>
      <trkpt lat="48.074273" lon="9.812316">
        <ele>536.582709</ele>
        <time>2025-05-18T18:36:25.194Z</time>
      </trkpt>
      <trkpt lat="48.074506" lon="9.812399">
        <ele>536.419117</ele>
        <time>2025-05-18T18:36:30.057Z</time>
      </trkpt>
      <trkpt lat="48.074608" lon="9.812108">
        <ele>536.367789</ele>
        <time>2025-05-18T18:36:34.550Z</time>
      </trkpt>
      <trkpt lat="48.074636" lon="9.812045">
        <ele>536.391453</ele>
        <time>2025-05-18T18:36:35.593Z</time>
      </trkpt>
      <trkpt lat="48.075471" lon="9.811458">
        <ele>536.823249</ele>
        <time>2025-05-18T18:36:55.723Z</time>
      </trkpt>
      <trkpt lat="48.075490" lon="9.811390">
        <ele>536.846300</ele>
        <time>2025-05-18T18:36:56.829Z</time>
      </trkpt>
      <trkpt lat="48.075547" lon="9.811330">
        <ele>536.878917</ele>
        <time>2025-05-18T18:36:58.378Z</time>
      </trkpt>
      <trkpt lat="48.075716" lon="9.811210">
        <ele>536.966470</ele>
        <time>2025-05-18T18:37:02.511Z</time>
      </trkpt>
      <trkpt lat="48.075700" lon="9.811165">
        <ele>536.982412</ele>
        <time>2025-05-18T18:37:03.273Z</time>
      </trkpt>
      <trkpt lat="48.075645" lon="9.811002">
        <ele>537.039519</ele>
        <time>2025-05-18T18:37:05.989Z</time>
      </trkpt>
      <trkpt lat="48.075619" lon="9.810920">
        <ele>537.067904</ele>
        <time>2025-05-18T18:37:07.363Z</time>
      </trkpt>
      <trkpt lat="48.076903" lon="9.809992">
        <ele>537.890012</ele>
        <time>2025-05-18T18:37:39.307Z</time>
      </trkpt>
      <trkpt lat="48.077237" lon="9.809862">
        <ele>538.095718</ele>
        <time>2025-05-18T18:37:46.861Z</time>
      </trkpt>
      <trkpt lat="48.077404" lon="9.809755">
        <ele>538.203997</ele>
        <time>2025-05-18T18:37:50.812Z</time>
      </trkpt>
      <trkpt lat="48.078556" lon="9.808922">
        <ele>537.574109</ele>
        <time>2025-05-18T18:38:16.599Z</time>
      </trkpt>
      <trkpt lat="48.078980" lon="9.808519">
        <ele>537.298431</ele>
        <time>2025-05-18T18:38:26.236Z</time>
      </trkpt>
      <trkpt lat="48.080300" lon="9.807574">
        <ele>536.445000</ele>
        <time>2025-05-18T18:38:55.011Z</time>
      </trkpt>
      <trkpt lat="48.084805" lon="9.804469">
        <ele>536.325146</ele>
        <time>2025-05-18T18:40:40.627Z</time>
      </trkpt>
      <trkpt lat="48.085294" lon="9.804142">
        <ele>536.223669</ele>
        <time>2025-05-18T18:40:51.384Z</time>
      </trkpt>
      <trkpt lat="48.085814" lon="9.803687">
        <ele>536.038763</ele>
        <time>2025-05-18T18:41:03.470Z</time>
      </trkpt>
      <trkpt lat="48.086861" lon="9.802958">
        <ele>535.534188</ele>
        <time>2025-05-18T18:41:27.066Z</time>
      </trkpt>
      <trkpt lat="48.086971" lon="9.802835">
        <ele>535.474192</ele>
        <time>2025-05-18T18:41:29.876Z</time>
      </trkpt>
      <trkpt lat="48.087087" lon="9.802776">
        <ele>535.420658</ele>
        <time>2025-05-18T18:41:33.200Z</time>
      </trkpt>
      <trkpt lat="48.087175" lon="9.802822">
        <ele>535.379928</ele>
        <time>2025-05-18T18:41:35.714Z</time>
      </trkpt>
      <trkpt lat="48.087262" lon="9.802747">
        <ele>535.318144</ele>
        <time>2025-05-18T18:41:37.733Z</time>
      </trkpt>
      <trkpt lat="48.087392" lon="9.802344">
        <ele>535.131420</ele>
        <time>2025-05-18T18:41:43.733Z</time>
      </trkpt>
      <trkpt lat="48.087486" lon="9.802341">
        <ele>535.072695</ele>
        <time>2025-05-18T18:41:45.619Z</time>
      </trkpt>
      <trkpt lat="48.088141" lon="9.801948">
        <ele>534.631945</ele>
        <time>2025-05-18T18:41:59.548Z</time>
      </trkpt>
      <trkpt lat="48.090175" lon="9.800497">
        <ele>533.519936</ele>
        <time>2025-05-18T18:42:44.803Z</time>
      </trkpt>
      <trkpt lat="48.090368" lon="9.800275">
        <ele>533.468228</ele>
        <time>2025-05-18T18:42:50.009Z</time>
      </trkpt>
      <trkpt lat="48.090553" lon="9.800289">
        <ele>533.498287</ele>
        <time>2025-05-18T18:42:53.976Z</time>
      </trkpt>
      <trkpt lat="48.090678" lon="9.800331">
        <ele>533.519075</ele>
        <time>2025-05-18T18:42:56.694Z</time>
      </trkpt>
      <trkpt lat="48.090731" lon="9.800334">
        <ele>533.527682</ele>
        <time>2025-05-18T18:42:57.833Z</time>
      </trkpt>
      <trkpt lat="48.090778" lon="9.800334">
        <ele>533.535309</ele>
        <time>2025-05-18T18:42:58.829Z</time>
      </trkpt>
      <trkpt lat="48.090898" lon="9.799807">
        <ele>533.595658</ele>
        <time>2025-05-18T18:43:06.723Z</time>
      </trkpt>
      <trkpt lat="48.091105" lon="9.799839">
        <ele>533.629427</ele>
        <time>2025-05-18T18:43:11.191Z</time>
      </trkpt>
      <trkpt lat="48.091318" lon="9.799822">
        <ele>533.664039</ele>
        <time>2025-05-18T18:43:15.836Z</time>
      </trkpt>
      <trkpt lat="48.091711" lon="9.799613">
        <ele>533.731716</ele>
        <time>2025-05-18T18:43:24.956Z</time>
      </trkpt>
      <trkpt lat="48.094246" lon="9.797977">
        <ele>533.588333</ele>
        <time>2025-05-18T18:44:23.718Z</time>
      </trkpt>
      <trkpt lat="48.094502" lon="9.797792">
        <ele>533.454029</ele>
        <time>2025-05-18T18:44:29.384Z</time>
      </trkpt>
      <trkpt lat="48.094780" lon="9.797645">
        <ele>533.314733</ele>
        <time>2025-05-18T18:44:35.109Z</time>
      </trkpt>
      <trkpt lat="48.095417" lon="9.797136">
        <ele>533.064361</ele>
        <time>2025-05-18T18:44:48.672Z</time>
      </trkpt>
      <trkpt lat="48.095934" lon="9.796840">
        <ele>532.934107</ele>
        <time>2025-05-18T18:44:59.791Z</time>
      </trkpt>
      <trkpt lat="48.095962" lon="9.796723">
        <ele>532.914574</ele>
        <time>2025-05-18T18:45:01.520Z</time>
      </trkpt>
      <trkpt lat="48.095924" lon="9.796138">
        <ele>532.822196</ele>
        <time>2025-05-18T18:45:09.889Z</time>
      </trkpt>
      <trkpt lat="48.095956" lon="9.796088">
        <ele>532.811312</ele>
        <time>2025-05-18T18:45:10.888Z</time>
      </trkpt>
      <trkpt lat="48.096345" lon="9.796010">
        <ele>532.768685</ele>
        <time>2025-05-18T18:45:19.538Z</time>
      </trkpt>
      <trkpt lat="48.096398" lon="9.795902">
        <ele>532.833381</ele>
        <time>2025-05-18T18:45:21.528Z</time>
      </trkpt>
      <trkpt lat="48.096246" lon="9.795171">
        <ele>533.202966</ele>
        <time>2025-05-18T18:45:33.085Z</time>
      </trkpt>
      <trkpt lat="48.096027" lon="9.794501">
        <ele>533.563056</ele>
        <time>2025-05-18T18:45:44.460Z</time>
      </trkpt>
      <trkpt lat="48.096110" lon="9.794158">
        <ele>533.739167</ele>
        <time>2025-05-18T18:45:49.748Z</time>
      </trkpt>
      <trkpt lat="48.096187" lon="9.793839">
        <ele>533.902908</ele>
        <time>2025-05-18T18:45:54.646Z</time>
      </trkpt>
      <trkpt lat="48.096223" lon="9.793429">
        <ele>534.036670</ele>
        <time>2025-05-18T18:46:00.593Z</time>
      </trkpt>
      <trkpt lat="48.096217" lon="9.793083">
        <ele>534.049479</ele>
        <time>2025-05-18T18:46:05.474Z</time>
      </trkpt>
      <trkpt lat="48.096212" lon="9.792703">
        <ele>534.063546</ele>
        <time>2025-05-18T18:46:10.796Z</time>
      </trkpt>
      <trkpt lat="48.096289" lon="9.792697">
        <ele>534.067818</ele>
        <time>2025-05-18T18:46:12.456Z</time>
      </trkpt>
      <trkpt lat="48.096509" lon="9.792623">
        <ele>534.080313</ele>
        <time>2025-05-18T18:46:17.371Z</time>
      </trkpt>
      <trkpt lat="48.096848" lon="9.792485">
        <ele>534.099780</ele>
        <time>2025-05-18T18:46:24.990Z</time>
      </trkpt>
      <trkpt lat="48.096877" lon="9.792465">
        <ele>534.101550</ele>
        <time>2025-05-18T18:46:26.094Z</time>
      </trkpt>
      <trkpt lat="48.096954" lon="9.792415">
        <ele>534.106201</ele>
        <time>2025-05-18T18:46:29.008Z</time>
      </trkpt>
      <trkpt lat="48.097024" lon="9.792405">
        <ele>534.110097</ele>
        <time>2025-05-18T18:46:31.464Z</time>
      </trkpt>
      <trkpt lat="48.097308" lon="9.792215">
        <ele>534.127334</ele>
        <time>2025-05-18T18:46:42.169Z</time>
      </trkpt>
      <trkpt lat="48.097355" lon="9.792183">
        <ele>534.130195</ele>
        <time>2025-05-18T18:46:43.966Z</time>
      </trkpt>
      <trkpt lat="48.097485" lon="9.792316">
        <ele>534.134578</ele>
        <time>2025-05-18T18:46:47.193Z</time>
      </trkpt>
      <trkpt lat="48.097599" lon="9.792433">
        <ele>534.138106</ele>
        <time>2025-05-18T18:46:50.031Z</time>
      </trkpt>
      <trkpt lat="48.097646" lon="9.792361">
        <ele>534.139822</ele>
        <time>2025-05-18T18:46:51.451Z</time>
      </trkpt>
      <trkpt lat="48.097575" lon="9.792283">
        <ele>534.142070</ele>
        <time>2025-05-18T18:46:53.251Z</time>
      </trkpt>
      <trkpt lat="48.097898" lon="9.791745">
        <ele>534.154403</ele>
        <time>2025-05-18T18:47:03.598Z</time>
      </trkpt>
      <trkpt lat="48.097978" lon="9.791642">
        <ele>534.157096</ele>
        <time>2025-05-18T18:47:05.865Z</time>
      </trkpt>
      <trkpt lat="48.098615" lon="9.791106">
        <ele>534.175747</ele>
        <time>2025-05-18T18:47:21.175Z</time>
      </trkpt>
      <trkpt lat="48.098648" lon="9.791081">
        <ele>534.176691</ele>
        <time>2025-05-18T18:47:21.930Z</time>
      </trkpt>
      <trkpt lat="48.098891" lon="9.790880">
        <ele>534.336754</ele>
        <time>2025-05-18T18:47:27.904Z</time>
      </trkpt>
      <trkpt lat="48.099087" lon="9.790787">
        <ele>534.456762</ele>
        <time>2025-05-18T18:47:32.506Z</time>
      </trkpt>
      <trkpt lat="48.099261" lon="9.790690">
        <ele>534.565133</ele>
        <time>2025-05-18T18:47:36.706Z</time>
      </trkpt>
      <trkpt lat="48.099137" lon="9.790175">
        <ele>534.778531</ele>
        <time>2025-05-18T18:47:44.983Z</time>
      </trkpt>
      <trkpt lat="48.099090" lon="9.790064">
        <ele>534.829763</ele>
        <time>2025-05-18T18:47:46.951Z</time>
      </trkpt>
      <trkpt lat="48.099050" lon="9.790028">
        <ele>534.857003</ele>
        <time>2025-05-18T18:47:47.999Z</time>
      </trkpt>
      <trkpt lat="48.098999" lon="9.789863">
        <ele>534.927876</ele>
        <time>2025-05-18T18:47:56.393Z</time>
      </trkpt>
      <trkpt lat="48.098730" lon="9.788873">
        <ele>535.112314</ele>
        <time>2025-05-18T18:48:46.000Z</time>
      </trkpt>
      <trkpt lat="48.098593" lon="9.788644">
        <ele>534.996121</ele>
        <time>2025-05-18T18:49:00.292Z</time>
      </trkpt>
      <trkpt lat="48.098730" lon="9.788873">
        <ele>534.879929</ele>
        <time>2025-05-18T18:49:14.583Z</time>
      </trkpt>
      <trkpt lat="48.098999" lon="9.789863">
        <ele>534.475999</ele>
        <time>2025-05-18T18:50:04.192Z</time>
      </trkpt>
      <trkpt lat="48.099050" lon="9.790028">
        <ele>534.407286</ele>
        <time>2025-05-18T18:50:12.586Z</time>
      </trkpt>
      <trkpt lat="48.099006" lon="9.790031">
        <ele>534.382361</ele>
        <time>2025-05-18T18:50:13.429Z</time>
      </trkpt>
      <trkpt lat="48.098890" lon="9.790159">
        <ele>534.300819</ele>
        <time>2025-05-18T18:50:16.136Z</time>
      </trkpt>
      <trkpt lat="48.098683" lon="9.790387">
        <ele>534.186551</ele>
        <time>2025-05-18T18:50:20.809Z</time>
      </trkpt>
      <trkpt lat="48.098464" lon="9.790612">
        <ele>534.123965</ele>
        <time>2025-05-18T18:50:25.772Z</time>
      </trkpt>
      <trkpt lat="48.098329" lon="9.790760">
        <ele>534.084538</ele>
        <time>2025-05-18T18:50:28.980Z</time>
      </trkpt>
      <trkpt lat="48.098178" lon="9.790846">
        <ele>534.046469</ele>
        <time>2025-05-18T18:50:32.210Z</time>
      </trkpt>
      <trkpt lat="48.097765" lon="9.790987">
        <ele>533.946650</ele>
        <time>2025-05-18T18:50:41.190Z</time>
      </trkpt>
      <trkpt lat="48.097664" lon="9.791011">
        <ele>533.922552</ele>
        <time>2025-05-18T18:50:43.421Z</time>
      </trkpt>
      <trkpt lat="48.097621" lon="9.791060">
        <ele>533.909819</ele>
        <time>2025-05-18T18:50:44.604Z</time>
      </trkpt>
      <trkpt lat="48.097607" lon="9.791098">
        <ele>533.902989</ele>
        <time>2025-05-18T18:50:45.237Z</time>
      </trkpt>
      <trkpt lat="48.097664" lon="9.791298">
        <ele>533.868767</ele>
        <time>2025-05-18T18:50:48.450Z</time>
      </trkpt>
      <trkpt lat="48.097757" lon="9.791493">
        <ele>533.831057</ele>
        <time>2025-05-18T18:50:51.999Z</time>
      </trkpt>
      <trkpt lat="48.097898" lon="9.791745">
        <ele>533.787841</ele>
        <time>2025-05-18T18:50:56.865Z</time>
      </trkpt>
      <trkpt lat="48.097575" lon="9.792283">
        <ele>533.846644</ele>
        <time>2025-05-18T18:51:07.501Z</time>
      </trkpt>
      <trkpt lat="48.097646" lon="9.792361">
        <ele>533.857361</ele>
        <time>2025-05-18T18:51:09.351Z</time>
      </trkpt>
      <trkpt lat="48.097812" lon="9.792511">
        <ele>533.880959</ele>
        <time>2025-05-18T18:51:13.417Z</time>
      </trkpt>
      <trkpt lat="48.097920" lon="9.792609">
        <ele>533.896328</ele>
        <time>2025-05-18T18:51:16.081Z</time>
      </trkpt>
      <trkpt lat="48.098265" lon="9.792786">
        <ele>533.940713</ele>
        <time>2025-05-18T18:51:23.787Z</time>
      </trkpt>
      <trkpt lat="48.098253" lon="9.792848">
        <ele>533.945960</ele>
        <time>2025-05-18T18:51:24.673Z</time>
      </trkpt>
      <trkpt lat="48.098413" lon="9.792882">
        <ele>533.965628</ele>
        <time>2025-05-18T18:51:28.009Z</time>
      </trkpt>
      <trkpt lat="48.098748" lon="9.792882">
        <ele>534.002651</ele>
        <time>2025-05-18T18:51:34.893Z</time>
      </trkpt>
      <trkpt lat="48.099351" lon="9.792870">
        <ele>533.968321</ele>
        <time>2025-05-18T18:51:47.352Z</time>
      </trkpt>
      <trkpt lat="48.099707" lon="9.792856">
        <ele>533.948048</ele>
        <time>2025-05-18T18:51:54.812Z</time>
      </trkpt>
      <trkpt lat="48.100102" lon="9.792672">
        <ele>533.924500</ele>
        <time>2025-05-18T18:52:03.898Z</time>
      </trkpt>
      <trkpt lat="48.100154" lon="9.792630">
        <ele>533.921136</ele>
        <time>2025-05-18T18:52:05.212Z</time>
      </trkpt>
      <trkpt lat="48.100365" lon="9.792443">
        <ele>533.907178</ele>
        <time>2025-05-18T18:52:10.411Z</time>
      </trkpt>
      <trkpt lat="48.100659" lon="9.792000">
        <ele>533.791361</ele>
        <time>2025-05-18T18:52:18.900Z</time>
      </trkpt>
      <trkpt lat="48.100787" lon="9.791706">
        <ele>533.709846</ele>
        <time>2025-05-18T18:52:23.527Z</time>
      </trkpt>
      <trkpt lat="48.100819" lon="9.791628">
        <ele>533.688584</ele>
        <time>2025-05-18T18:52:24.698Z</time>
      </trkpt>
      <trkpt lat="48.101088" lon="9.791050">
        <ele>533.524952</ele>
        <time>2025-05-18T18:52:33.852Z</time>
      </trkpt>
      <trkpt lat="48.101115" lon="9.790872">
        <ele>533.482556</ele>
        <time>2025-05-18T18:52:36.329Z</time>
      </trkpt>
      <trkpt lat="48.101162" lon="9.789719">
        <ele>533.219518</ele>
        <time>2025-05-18T18:52:52.680Z</time>
      </trkpt>
      <trkpt lat="48.101175" lon="9.789382">
        <ele>533.147805</ele>
        <time>2025-05-18T18:52:57.539Z</time>
      </trkpt>
      <trkpt lat="48.101179" lon="9.789087">
        <ele>533.085121</ele>
        <time>2025-05-18T18:53:01.796Z</time>
      </trkpt>
      <trkpt lat="48.101183" lon="9.788813">
        <ele>533.026897</ele>
        <time>2025-05-18T18:53:05.686Z</time>
      </trkpt>
      <trkpt lat="48.101890" lon="9.788855">
        <ele>532.801812</ele>
        <time>2025-05-18T18:53:20.093Z</time>
      </trkpt>
      <trkpt lat="48.102468" lon="9.788891">
        <ele>532.526348</ele>
        <time>2025-05-18T18:53:31.265Z</time>
      </trkpt>
      <trkpt lat="48.102482" lon="9.788892">
        <ele>532.517146</ele>
        <time>2025-05-18T18:53:31.526Z</time>
      </trkpt>
      <trkpt lat="48.102518" lon="9.788894">
        <ele>532.493493</ele>
        <time>2025-05-18T18:53:32.185Z</time>
      </trkpt>
      <trkpt lat="48.103089" lon="9.788934">
        <ele>532.118179</ele>
        <time>2025-05-18T18:53:43.221Z</time>
      </trkpt>
      <trkpt lat="48.103131" lon="9.788937">
        <ele>532.090572</ele>
        <time>2025-05-18T18:53:44.030Z</time>
      </trkpt>
      <trkpt lat="48.103746" lon="9.788981">
        <ele>531.686319</ele>
        <time>2025-05-18T18:53:56.554Z</time>
      </trkpt>
      <trkpt lat="48.104143" lon="9.789008">
        <ele>531.436345</ele>
        <time>2025-05-18T18:54:04.920Z</time>
      </trkpt>
      <trkpt lat="48.104408" lon="9.789027">
        <ele>531.281747</ele>
        <time>2025-05-18T18:54:10.427Z</time>
      </trkpt>
      <trkpt lat="48.104447" lon="9.789028">
        <ele>531.259017</ele>
        <time>2025-05-18T18:54:11.224Z</time>
      </trkpt>
      <trkpt lat="48.104659" lon="9.789042">
        <ele>531.135361</ele>
        <time>2025-05-18T18:54:15.495Z</time>
      </trkpt>
      <trkpt lat="48.104764" lon="9.789048">
        <ele>531.074130</ele>
        <time>2025-05-18T18:54:17.583Z</time>
      </trkpt>
      <trkpt lat="48.104941" lon="9.789060">
        <ele>530.970883</ele>
        <time>2025-05-18T18:54:21.068Z</time>
      </trkpt>
      <trkpt lat="48.105417" lon="9.789107">
        <ele>530.692906</ele>
        <time>2025-05-18T18:54:30.409Z</time>
      </trkpt>
      <trkpt lat="48.105816" lon="9.789232">
        <ele>530.475544</ele>
        <time>2025-05-18T18:54:38.396Z</time>
      </trkpt>
      <trkpt lat="48.106713" lon="9.789641">
        <ele>530.500216</ele>
        <time>2025-05-18T18:54:57.228Z</time>
      </trkpt>
      <trkpt lat="48.106841" lon="9.789724">
        <ele>530.503886</ele>
        <time>2025-05-18T18:55:00.238Z</time>
      </trkpt>
      <trkpt lat="48.107120" lon="9.789988">
        <ele>530.512570</ele>
        <time>2025-05-18T18:55:07.490Z</time>
      </trkpt>
      <trkpt lat="48.107474" lon="9.790448">
        <ele>530.624843</ele>
        <time>2025-05-18T18:55:18.035Z</time>
      </trkpt>
      <trkpt lat="48.107898" lon="9.790665">
        <ele>531.042506</ele>
        <time>2025-05-18T18:55:28.246Z</time>
      </trkpt>
      <trkpt lat="48.108024" lon="9.790422">
        <ele>531.233998</ele>
        <time>2025-05-18T18:55:33.069Z</time>
      </trkpt>
      <trkpt lat="48.108129" lon="9.790284">
        <ele>531.364215</ele>
        <time>2025-05-18T18:55:36.352Z</time>
      </trkpt>
      <trkpt lat="48.108314" lon="9.790516">
        <ele>531.589132</ele>
        <time>2025-05-18T18:55:41.850Z</time>
      </trkpt>
      <trkpt lat="48.108689" lon="9.790888">
        <ele>532.008406</ele>
        <time>2025-05-18T18:55:51.983Z</time>
      </trkpt>
      <trkpt lat="48.109385" lon="9.791313">
        <ele>532.090204</ele>
        <time>2025-05-18T18:56:08.008Z</time>
      </trkpt>
      <trkpt lat="48.109995" lon="9.791540">
        <ele>531.965835</ele>
        <time>2025-05-18T18:56:20.696Z</time>
      </trkpt>
      <trkpt lat="48.110535" lon="9.791676">
        <ele>531.857486</ele>
        <time>2025-05-18T18:56:31.811Z</time>
      </trkpt>
      <trkpt lat="48.110582" lon="9.791687">
        <ele>531.848073</ele>
        <time>2025-05-18T18:56:32.780Z</time>
      </trkpt>
      <trkpt lat="48.110750" lon="9.791716">
        <ele>531.810309</ele>
        <time>2025-05-18T18:56:36.204Z</time>
      </trkpt>
      <trkpt lat="48.110886" lon="9.791747">
        <ele>531.778916</ele>
        <time>2025-05-18T18:56:39.020Z</time>
      </trkpt>
      <trkpt lat="48.111450" lon="9.791822">
        <ele>531.649701</ele>
        <time>2025-05-18T18:56:50.571Z</time>
      </trkpt>
      <trkpt lat="48.112828" lon="9.791850">
        <ele>531.711214</ele>
        <time>2025-05-18T18:57:19.245Z</time>
      </trkpt>
      <trkpt lat="48.113641" lon="9.791902">
        <ele>532.245346</ele>
        <time>2025-05-18T18:57:37.521Z</time>
      </trkpt>
      <trkpt lat="48.114461" lon="9.792064">
        <ele>532.384795</ele>
        <time>2025-05-18T18:57:56.348Z</time>
      </trkpt>
      <trkpt lat="48.115343" lon="9.792337">
        <ele>531.616400</ele>
        <time>2025-05-18T18:58:14.675Z</time>
      </trkpt>
      <trkpt lat="48.116785" lon="9.792988">
        <ele>529.141251</ele>
        <time>2025-05-18T18:58:39.990Z</time>
      </trkpt>
      <trkpt lat="48.117456" lon="9.793358">
        <ele>527.558981</ele>
        <time>2025-05-18T18:58:52.387Z</time>
      </trkpt>
      <trkpt lat="48.117575" lon="9.793460">
        <ele>527.255580</ele>
        <time>2025-05-18T18:58:54.879Z</time>
      </trkpt>
      <trkpt lat="48.117671" lon="9.793620">
        <ele>527.066946</ele>
        <time>2025-05-18T18:58:57.557Z</time>
      </trkpt>
      <trkpt lat="48.117687" lon="9.793788">
        <ele>527.018277</ele>
        <time>2025-05-18T18:58:59.718Z</time>
      </trkpt>
      <trkpt lat="48.117672" lon="9.793948">
        <ele>526.971941</ele>
        <time>2025-05-18T18:59:01.807Z</time>
      </trkpt>
      <trkpt lat="48.117709" lon="9.794008">
        <ele>526.948516</ele>
        <time>2025-05-18T18:59:02.884Z</time>
      </trkpt>
      <trkpt lat="48.117750" lon="9.794093">
        <ele>526.918442</ele>
        <time>2025-05-18T18:59:04.235Z</time>
      </trkpt>
      <trkpt lat="48.117856" lon="9.794096">
        <ele>526.872898</ele>
        <time>2025-05-18T18:59:06.352Z</time>
      </trkpt>
      <trkpt lat="48.117951" lon="9.794169">
        <ele>526.827032</ele>
        <time>2025-05-18T18:59:08.493Z</time>
      </trkpt>
      <trkpt lat="48.118125" lon="9.794383">
        <ele>526.730317</ele>
        <time>2025-05-18T18:59:13.075Z</time>
      </trkpt>
      <trkpt lat="48.118225" lon="9.794454">
        <ele>526.682778</ele>
        <time>2025-05-18T18:59:15.389Z</time>
      </trkpt>
      <trkpt lat="48.119548" lon="9.795065">
        <ele>526.446308</ele>
        <time>2025-05-18T18:59:44.910Z</time>
      </trkpt>
      <trkpt lat="48.119884" lon="9.795116">
        <ele>526.520209</ele>
        <time>2025-05-18T18:59:52.216Z</time>
      </trkpt>
      <trkpt lat="48.120061" lon="9.795075">
        <ele>526.559401</ele>
        <time>2025-05-18T18:59:56.077Z</time>
      </trkpt>
      <trkpt lat="48.120469" lon="9.794840">
        <ele>526.655052</ele>
        <time>2025-05-18T19:00:05.440Z</time>
      </trkpt>
      <trkpt lat="48.120671" lon="9.794778">
        <ele>526.700173</ele>
        <time>2025-05-18T19:00:09.870Z</time>
      </trkpt>
      <trkpt lat="48.120883" lon="9.794763">
        <ele>526.940691</ele>
        <time>2025-05-18T19:00:14.463Z</time>
      </trkpt>
      <trkpt lat="48.121184" lon="9.794820">
        <ele>527.473411</ele>
        <time>2025-05-18T19:00:20.999Z</time>
      </trkpt>
      <trkpt lat="48.121523" lon="9.794967">
        <ele>528.093084</ele>
        <time>2025-05-18T19:00:28.879Z</time>
      </trkpt>
      <trkpt lat="48.122196" lon="9.795397">
        <ele>529.377773</ele>
        <time>2025-05-18T19:00:46.079Z</time>
      </trkpt>
      <trkpt lat="48.123490" lon="9.796243">
        <ele>532.419765</ele>
        <time>2025-05-18T19:01:21.312Z</time>
      </trkpt>
      <trkpt lat="48.123527" lon="9.796199">
        <ele>532.526301</ele>
        <time>2025-05-18T19:01:22.463Z</time>
      </trkpt>
      <trkpt lat="48.123827" lon="9.796385">
        <ele>533.258505</ele>
        <time>2025-05-18T19:01:29.987Z</time>
      </trkpt>
      <trkpt lat="48.124595" lon="9.796840">
        <ele>532.932723</ele>
        <time>2025-05-18T19:01:46.304Z</time>
      </trkpt>
      <trkpt lat="48.124849" lon="9.796946">
        <ele>532.431688</ele>
        <time>2025-05-18T19:01:50.729Z</time>
      </trkpt>
      <trkpt lat="48.125138" lon="9.797067">
        <ele>531.861478</ele>
        <time>2025-05-18T19:01:55.789Z</time>
      </trkpt>
      <trkpt lat="48.125910" lon="9.797390">
        <ele>530.335566</ele>
        <time>2025-05-18T19:02:09.162Z</time>
      </trkpt>
      <trkpt lat="48.126289" lon="9.797517">
        <ele>529.585916</ele>
        <time>2025-05-18T19:02:15.737Z</time>
      </trkpt>
      <trkpt lat="48.127135" lon="9.797800">
        <ele>527.912694</ele>
        <time>2025-05-18T19:02:30.970Z</time>
      </trkpt>
      <trkpt lat="48.127683" lon="9.797977">
        <ele>527.033244</ele>
        <time>2025-05-18T19:02:41.493Z</time>
      </trkpt>
      <trkpt lat="48.127950" lon="9.798021">
        <ele>527.007803</ele>
        <time>2025-05-18T19:02:46.825Z</time>
      </trkpt>
      <trkpt lat="48.128240" lon="9.798047">
        <ele>526.980288</ele>
        <time>2025-05-18T19:02:52.782Z</time>
      </trkpt>
      <trkpt lat="48.128360" lon="9.798052">
        <ele>526.968918</ele>
        <time>2025-05-18T19:02:55.316Z</time>
      </trkpt>
      <trkpt lat="48.128473" lon="9.798047">
        <ele>526.958211</ele>
        <time>2025-05-18T19:02:57.738Z</time>
      </trkpt>
      <trkpt lat="48.128588" lon="9.798038">
        <ele>526.947304</ele>
        <time>2025-05-18T19:03:00.230Z</time>
      </trkpt>
      <trkpt lat="48.128736" lon="9.798049">
        <ele>526.933270</ele>
        <time>2025-05-18T19:03:03.464Z</time>
      </trkpt>
      <trkpt lat="48.128850" lon="9.798057">
        <ele>526.922461</ele>
        <time>2025-05-18T19:03:05.943Z</time>
      </trkpt>
      <trkpt lat="48.128959" lon="9.798105">
        <ele>526.911701</ele>
        <time>2025-05-18T19:03:08.428Z</time>
      </trkpt>
      <trkpt lat="48.129064" lon="9.798017">
        <ele>526.900306</ele>
        <time>2025-05-18T19:03:11.064Z</time>
      </trkpt>
      <trkpt lat="48.129094" lon="9.797920">
        <ele>526.893547</ele>
        <time>2025-05-18T19:03:12.648Z</time>
      </trkpt>
      <trkpt lat="48.129166" lon="9.797844">
        <ele>526.885206</ele>
        <time>2025-05-18T19:03:14.575Z</time>
      </trkpt>
      <trkpt lat="48.129352" lon="9.797735">
        <ele>526.941146</ele>
        <time>2025-05-18T19:03:18.936Z</time>
      </trkpt>
      <trkpt lat="48.129682" lon="9.797595">
        <ele>527.253189</ele>
        <time>2025-05-18T19:03:26.464Z</time>
      </trkpt>
      <trkpt lat="48.129998" lon="9.797360">
        <ele>527.574159</ele>
        <time>2025-05-18T19:03:34.110Z</time>
      </trkpt>
      <trkpt lat="48.130327" lon="9.797037">
        <ele>527.932027</ele>
        <time>2025-05-18T19:03:42.913Z</time>
      </trkpt>
      <trkpt lat="48.130830" lon="9.796469">
        <ele>528.505086</ele>
        <time>2025-05-18T19:03:57.367Z</time>
      </trkpt>
      <trkpt lat="48.131535" lon="9.795587">
        <ele>528.226644</ele>
        <time>2025-05-18T19:04:18.530Z</time>
      </trkpt>
      <trkpt lat="48.131791" lon="9.795382">
        <ele>528.136656</ele>
        <time>2025-05-18T19:04:24.132Z</time>
      </trkpt>
      <trkpt lat="48.131990" lon="9.795315">
        <ele>528.073424</ele>
        <time>2025-05-18T19:04:27.669Z</time>
      </trkpt>
      <trkpt lat="48.132011" lon="9.795446">
        <ele>528.045548</ele>
        <time>2025-05-18T19:04:29.250Z</time>
      </trkpt>
      <trkpt lat="48.132100" lon="9.795635">
        <ele>527.997688</ele>
        <time>2025-05-18T19:04:31.872Z</time>
      </trkpt>
      <trkpt lat="48.132344" lon="9.795809">
        <ele>527.661386</ele>
        <time>2025-05-18T19:04:36.352Z</time>
      </trkpt>
      <trkpt lat="48.132494" lon="9.795961">
        <ele>527.234692</ele>
        <time>2025-05-18T19:04:39.323Z</time>
      </trkpt>
      <trkpt lat="48.132705" lon="9.796249">
        <ele>526.562137</ele>
        <time>2025-05-18T19:04:43.841Z</time>
      </trkpt>
      <trkpt lat="48.132780" lon="9.796314">
        <ele>526.357978</ele>
        <time>2025-05-18T19:04:45.200Z</time>
      </trkpt>
      <trkpt lat="48.132922" lon="9.796373">
        <ele>526.010752</ele>
        <time>2025-05-18T19:04:47.527Z</time>
      </trkpt>
      <trkpt lat="48.133738" lon="9.796583">
        <ele>524.059829</ele>
        <time>2025-05-18T19:05:01.863Z</time>
      </trkpt>
      <trkpt lat="48.133767" lon="9.796587">
        <ele>523.991206</ele>
        <time>2025-05-18T19:05:02.472Z</time>
      </trkpt>
      <trkpt lat="48.134029" lon="9.796584">
        <ele>523.610895</ele>
        <time>2025-05-18T19:05:07.854Z</time>
      </trkpt>
      <trkpt lat="48.134225" lon="9.796575">
        <ele>523.470874</ele>
        <time>2025-05-18T19:05:11.880Z</time>
      </trkpt>
      <trkpt lat="48.134515" lon="9.796580">
        <ele>523.263785</ele>
        <time>2025-05-18T19:05:17.771Z</time>
      </trkpt>
      <trkpt lat="48.135221" lon="9.796557">
        <ele>522.759543</ele>
        <time>2025-05-18T19:05:31.934Z</time>
      </trkpt>
      <trkpt lat="48.136893" lon="9.796499">
        <ele>521.685471</ele>
        <time>2025-05-18T19:06:04.900Z</time>
      </trkpt>
      <trkpt lat="48.137082" lon="9.796536">
        <ele>521.568287</ele>
        <time>2025-05-18T19:06:08.766Z</time>
      </trkpt>
      <trkpt lat="48.137524" lon="9.796114">
        <ele>521.304074</ele>
        <time>2025-05-18T19:06:19.493Z</time>
      </trkpt>
      <trkpt lat="48.137751" lon="9.795806">
        <ele>521.256215</ele>
        <time>2025-05-18T19:06:25.867Z</time>
      </trkpt>
      <trkpt lat="48.138733" lon="9.794475">
        <ele>521.049281</ele>
        <time>2025-05-18T19:06:53.609Z</time>
      </trkpt>
      <trkpt lat="48.139677" lon="9.793910">
        <ele>520.788592</ele>
        <time>2025-05-18T19:07:14.498Z</time>
      </trkpt>
      <trkpt lat="48.139932" lon="9.793828">
        <ele>520.720587</ele>
        <time>2025-05-18T19:07:19.794Z</time>
      </trkpt>
      <trkpt lat="48.142937" lon="9.793501">
        <ele>520.117494</ele>
        <time>2025-05-18T19:08:21.973Z</time>
      </trkpt>
      <trkpt lat="48.143896" lon="9.793402">
        <ele>520.059149</ele>
        <time>2025-05-18T19:08:42.466Z</time>
      </trkpt>
      <trkpt lat="48.147387" lon="9.793000">
        <ele>519.583626</ele>
        <time>2025-05-18T19:09:55.453Z</time>
      </trkpt>
      <trkpt lat="48.148231" lon="9.792902">
        <ele>519.413577</ele>
        <time>2025-05-18T19:10:12.630Z</time>
      </trkpt>
      <trkpt lat="48.148685" lon="9.792849">
        <ele>519.319846</ele>
        <time>2025-05-18T19:10:21.929Z</time>
      </trkpt>
      <trkpt lat="48.151388" lon="9.792534">
        <ele>519.267193</ele>
        <time>2025-05-18T19:11:19.392Z</time>
      </trkpt>
      <trkpt lat="48.151634" lon="9.794531">
        <ele>519.156542</ele>
        <time>2025-05-18T19:11:47.998Z</time>
      </trkpt>
      <trkpt lat="48.151992" lon="9.794391">
        <ele>519.099628</ele>
        <time>2025-05-18T19:12:00.803Z</time>
      </trkpt>
      <trkpt lat="48.152643" lon="9.793992">
        <ele>518.727776</ele>
        <time>2025-05-18T19:12:25.140Z</time>
      </trkpt>
      <trkpt lat="48.153485" lon="9.793365">
        <ele>518.230695</ele>
        <time>2025-05-18T19:12:57.575Z</time>
      </trkpt>
      <trkpt lat="48.154268" lon="9.793033">
        <ele>517.877707</ele>
        <time>2025-05-18T19:13:25.725Z</time>
      </trkpt>
      <trkpt lat="48.154764" lon="9.792933">
        <ele>517.666918</ele>
        <time>2025-05-18T19:13:43.058Z</time>
      </trkpt>
      <trkpt lat="48.155244" lon="9.792914">
        <ele>517.464679</ele>
        <time>2025-05-18T19:13:59.707Z</time>
      </trkpt>
      <trkpt lat="48.155708" lon="9.792949">
        <ele>517.321784</ele>
        <time>2025-05-18T19:14:15.808Z</time>
      </trkpt>
      <trkpt lat="48.156153" lon="9.793079">
        <ele>517.196413</ele>
        <time>2025-05-18T19:14:31.486Z</time>
      </trkpt>
      <trkpt lat="48.156830" lon="9.793375">
        <ele>517.001403</ele>
        <time>2025-05-18T19:14:55.919Z</time>
      </trkpt>
      <trkpt lat="48.157163" lon="9.793593">
        <ele>516.914294</ele>
        <time>2025-05-18T19:15:08.504Z</time>
      </trkpt>
      <trkpt lat="48.157492" lon="9.793845">
        <ele>516.868157</ele>
        <time>2025-05-18T19:15:21.285Z</time>
      </trkpt>
      <trkpt lat="48.157875" lon="9.794212">
        <ele>516.811392</ele>
        <time>2025-05-18T19:15:37.035Z</time>
      </trkpt>
      <trkpt lat="48.158634" lon="9.795159">
        <ele>516.687269</ele>
        <time>2025-05-18T19:16:11.211Z</time>
      </trkpt>
      <trkpt lat="48.159142" lon="9.795663">
        <ele>516.606334</ele>
        <time>2025-05-18T19:16:32.309Z</time>
      </trkpt>
      <trkpt lat="48.159408" lon="9.795856">
        <ele>516.567071</ele>
        <time>2025-05-18T19:16:42.550Z</time>
      </trkpt>
      <trkpt lat="48.159863" lon="9.796100">
        <ele>516.502869</ele>
        <time>2025-05-18T19:16:59.276Z</time>
      </trkpt>
      <trkpt lat="48.160199" lon="9.796235">
        <ele>516.458284</ele>
        <time>2025-05-18T19:17:11.323Z</time>
      </trkpt>
      <trkpt lat="48.161024" lon="9.796371">
        <ele>516.383454</ele>
        <time>2025-05-18T19:17:40.045Z</time>
      </trkpt>
      <trkpt lat="48.161526" lon="9.796545">
        <ele>516.337000</ele>
        <time>2025-05-18T19:17:57.875Z</time>
      </trkpt>
      <trkpt lat="48.162461" lon="9.797015">
        <ele>516.116725</ele>
        <time>2025-05-18T19:18:31.985Z</time>
      </trkpt>
      <trkpt lat="48.163081" lon="9.797465">
        <ele>515.896129</ele>
        <time>2025-05-18T19:18:55.851Z</time>
      </trkpt>
      <trkpt lat="48.163730" lon="9.798091">
        <ele>515.664724</ele>
        <time>2025-05-18T19:19:22.555Z</time>
      </trkpt>
      <trkpt lat="48.164029" lon="9.798438">
        <ele>515.569184</ele>
        <time>2025-05-18T19:19:35.648Z</time>
      </trkpt>
      <trkpt lat="48.164686" lon="9.799401">
        <ele>515.337021</ele>
        <time>2025-05-18T19:20:07.462Z</time>
      </trkpt>
      <trkpt lat="48.165205" lon="9.800428">
        <ele>515.712816</ele>
        <time>2025-05-18T19:20:37.177Z</time>
      </trkpt>
      <trkpt lat="48.165565" lon="9.801262">
        <ele>516.210688</ele>
        <time>2025-05-18T19:21:00.061Z</time>
      </trkpt>
      <trkpt lat="48.167066" lon="9.800052">
        <ele>520.006549</ele>
        <time>2025-05-18T19:21:57.193Z</time>
      </trkpt>
      <trkpt lat="48.167485" lon="9.799686">
        <ele>521.423602</ele>
        <time>2025-05-18T19:22:10.125Z</time>
      </trkpt>
      <trkpt lat="48.167607" lon="9.799631">
        <ele>521.795881</ele>
        <time>2025-05-18T19:22:13.488Z</time>
      </trkpt>
      <trkpt lat="48.167888" lon="9.799765">
        <ele>522.734124</ele>
        <time>2025-05-18T19:22:21.250Z</time>
      </trkpt>
      <trkpt lat="48.168369" lon="9.800086">
        <ele>524.423503</ele>
        <time>2025-05-18T19:22:34.791Z</time>
      </trkpt>
      <trkpt lat="48.169082" lon="9.800728">
        <ele>527.092167</ele>
        <time>2025-05-18T19:22:55.373Z</time>
      </trkpt>
      <trkpt lat="48.169339" lon="9.800784">
        <ele>527.605819</ele>
        <time>2025-05-18T19:23:01.695Z</time>
      </trkpt>
      <trkpt lat="48.169816" lon="9.800721">
        <ele>527.372196</ele>
        <time>2025-05-18T19:23:12.947Z</time>
      </trkpt>
      <trkpt lat="48.170301" lon="9.800724">
        <ele>527.135569</ele>
        <time>2025-05-18T19:23:23.959Z</time>
      </trkpt>
      <trkpt lat="48.170840" lon="9.800767">
        <ele>526.872227</ele>
        <time>2025-05-18T19:23:34.145Z</time>
      </trkpt>
      <trkpt lat="48.171017" lon="9.800776">
        <ele>526.785822</ele>
        <time>2025-05-18T19:23:37.067Z</time>
      </trkpt>
      <trkpt lat="48.171238" lon="9.800810">
        <ele>526.099428</ele>
        <time>2025-05-18T19:23:40.657Z</time>
      </trkpt>
      <trkpt lat="48.171415" lon="9.800786">
        <ele>525.474063</ele>
        <time>2025-05-18T19:23:43.461Z</time>
      </trkpt>
      <trkpt lat="48.171489" lon="9.800742">
        <ele>525.193948</ele>
        <time>2025-05-18T19:23:44.722Z</time>
      </trkpt>
      <trkpt lat="48.171591" lon="9.800649">
        <ele>524.773889</ele>
        <time>2025-05-18T19:23:46.616Z</time>
      </trkpt>
      <trkpt lat="48.171695" lon="9.800484">
        <ele>524.241117</ele>
        <time>2025-05-18T19:23:49.046Z</time>
      </trkpt>
      <trkpt lat="48.171760" lon="9.800602">
        <ele>523.881964</ele>
        <time>2025-05-18T19:23:50.699Z</time>
      </trkpt>
      <trkpt lat="48.172060" lon="9.801139">
        <ele>522.238077</ele>
        <time>2025-05-18T19:23:58.457Z</time>
      </trkpt>
      <trkpt lat="48.172326" lon="9.801554">
        <ele>520.887340</ele>
        <time>2025-05-18T19:24:05.010Z</time>
      </trkpt>
      <trkpt lat="48.172858" lon="9.802341">
        <ele>520.408382</ele>
        <time>2025-05-18T19:24:19.000Z</time>
      </trkpt>
      <trkpt lat="48.173078" lon="9.801996">
        <ele>520.391420</ele>
        <time>2025-05-18T19:24:25.657Z</time>
      </trkpt>
      <trkpt lat="48.173246" lon="9.802109">
        <ele>520.381610</ele>
        <time>2025-05-18T19:24:29.597Z</time>
      </trkpt>
      <trkpt lat="48.173324" lon="9.802107">
        <ele>520.377453</ele>
        <time>2025-05-18T19:24:31.277Z</time>
      </trkpt>
      <trkpt lat="48.173471" lon="9.802082">
        <ele>520.369570</ele>
        <time>2025-05-18T19:24:34.569Z</time>
      </trkpt>
      <trkpt lat="48.173846" lon="9.802003">
        <ele>520.349393</ele>
        <time>2025-05-18T19:24:43.389Z</time>
      </trkpt>
      <trkpt lat="48.173946" lon="9.802052">
        <ele>520.502945</ele>
        <time>2025-05-18T19:24:45.877Z</time>
      </trkpt>
      <trkpt lat="48.174031" lon="9.802181">
        <ele>521.058419</ele>
        <time>2025-05-18T19:24:48.749Z</time>
      </trkpt>
      <trkpt lat="48.174126" lon="9.802406">
        <ele>521.874117</ele>
        <time>2025-05-18T19:24:53.015Z</time>
      </trkpt>
      <trkpt lat="48.174278" lon="9.802543">
        <ele>522.688678</ele>
        <time>2025-05-18T19:24:57.334Z</time>
      </trkpt>
      <trkpt lat="48.174350" lon="9.802649">
        <ele>523.152123</ele>
        <time>2025-05-18T19:24:59.837Z</time>
      </trkpt>
      <trkpt lat="48.174419" lon="9.802579">
        <ele>523.534762</ele>
        <time>2025-05-18T19:25:01.979Z</time>
      </trkpt>
      <trkpt lat="48.174450" lon="9.802460">
        <ele>523.926082</ele>
        <time>2025-05-18T19:25:04.182Z</time>
      </trkpt>
      <trkpt lat="48.174498" lon="9.801381">
        <ele>527.238391</ele>
        <time>2025-05-18T19:25:23.450Z</time>
      </trkpt>
      <trkpt lat="48.174533" lon="9.801216">
        <ele>527.768735</ele>
        <time>2025-05-18T19:25:27.074Z</time>
      </trkpt>
      <trkpt lat="48.174670" lon="9.800943">
        <ele>528.975995</ele>
        <time>2025-05-18T19:25:34.344Z</time>
      </trkpt>
      <trkpt lat="48.174826" lon="9.800745">
        <ele>530.639330</ele>
        <time>2025-05-18T19:25:41.089Z</time>
      </trkpt>
      <trkpt lat="48.174856" lon="9.800726">
        <ele>530.904369</ele>
        <time>2025-05-18T19:25:42.200Z</time>
      </trkpt>
      <trkpt lat="48.175201" lon="9.800639">
        <ele>533.751590</ele>
        <time>2025-05-18T19:25:54.257Z</time>
      </trkpt>
      <trkpt lat="48.175283" lon="9.800626">
        <ele>534.422669</ele>
        <time>2025-05-18T19:25:57.299Z</time>
      </trkpt>
      <trkpt lat="48.175456" lon="9.800565">
        <ele>535.869035</ele>
        <time>2025-05-18T19:26:03.697Z</time>
      </trkpt>
      <trkpt lat="48.175912" lon="9.800481">
        <ele>539.608105</ele>
        <time>2025-05-18T19:26:19.799Z</time>
      </trkpt>
      <trkpt lat="48.176378" lon="9.800496">
        <ele>543.332522</ele>
        <time>2025-05-18T19:26:35.419Z</time>
      </trkpt>
      <trkpt lat="48.177977" lon="9.800508">
        <ele>550.596664</ele>
        <time>2025-05-18T19:27:17.352Z</time>
      </trkpt>
      <trkpt lat="48.178004" lon="9.800506">
        <ele>550.719471</ele>
        <time>2025-05-18T19:27:18.001Z</time>
      </trkpt>
      <trkpt lat="48.180087" lon="9.799697">
        <ele>555.651171</ele>
        <time>2025-05-18T19:28:11.015Z</time>
      </trkpt>
      <trkpt lat="48.180383" lon="9.799582">
        <ele>554.867019</ele>
        <time>2025-05-18T19:28:17.664Z</time>
      </trkpt>
      <trkpt lat="48.180663" lon="9.799508">
        <ele>554.137893</ele>
        <time>2025-05-18T19:28:23.118Z</time>
      </trkpt>
      <trkpt lat="48.181479" lon="9.799301">
        <ele>552.015532</ele>
        <time>2025-05-18T19:28:36.610Z</time>
      </trkpt>
      <trkpt lat="48.181994" lon="9.799276">
        <ele>549.547627</ele>
        <time>2025-05-18T19:28:44.329Z</time>
      </trkpt>
      <trkpt lat="48.182189" lon="9.799217">
        <ele>548.354590</ele>
        <time>2025-05-18T19:28:47.332Z</time>
      </trkpt>
      <trkpt lat="48.182412" lon="9.799077">
        <ele>546.904746</ele>
        <time>2025-05-18T19:28:50.809Z</time>
      </trkpt>
      <trkpt lat="48.182618" lon="9.798899">
        <ele>545.478928</ele>
        <time>2025-05-18T19:28:54.258Z</time>
      </trkpt>
      <trkpt lat="48.182937" lon="9.798561">
        <ele>543.136521</ele>
        <time>2025-05-18T19:28:59.939Z</time>
      </trkpt>
      <trkpt lat="48.183094" lon="9.798710">
        <ele>542.022268</ele>
        <time>2025-05-18T19:29:02.693Z</time>
      </trkpt>
      <trkpt lat="48.183280" lon="9.798760">
        <ele>540.888992</ele>
        <time>2025-05-18T19:29:05.526Z</time>
      </trkpt>
      <trkpt lat="48.183785" lon="9.798627">
        <ele>539.293396</ele>
        <time>2025-05-18T19:29:13.384Z</time>
      </trkpt>
      <trkpt lat="48.183913" lon="9.798626">
        <ele>538.910758</ele>
        <time>2025-05-18T19:29:15.417Z</time>
      </trkpt>
      <trkpt lat="48.184116" lon="9.798668">
        <ele>538.298180</ele>
        <time>2025-05-18T19:29:18.722Z</time>
      </trkpt>
      <trkpt lat="48.184368" lon="9.798776">
        <ele>537.514722</ele>
        <time>2025-05-18T19:29:22.990Z</time>
      </trkpt>
      <trkpt lat="48.184568" lon="9.798851">
        <ele>536.898454</ele>
        <time>2025-05-18T19:29:26.449Z</time>
      </trkpt>
      <trkpt lat="48.184738" lon="9.798882">
        <ele>536.386528</ele>
        <time>2025-05-18T19:29:29.484Z</time>
      </trkpt>
      <trkpt lat="48.184649" lon="9.798033">
        <ele>535.611217</ele>
        <time>2025-05-18T19:29:41.468Z</time>
      </trkpt>
      <trkpt lat="48.184739" lon="9.797693">
        <ele>535.840537</ele>
        <time>2025-05-18T19:29:46.800Z</time>
      </trkpt>
      <trkpt lat="48.184853" lon="9.797505">
        <ele>535.999840</ele>
        <time>2025-05-18T19:29:50.643Z</time>
      </trkpt>
      <trkpt lat="48.185147" lon="9.797234">
        <ele>536.324292</ele>
        <time>2025-05-18T19:29:58.754Z</time>
      </trkpt>
      <trkpt lat="48.184924" lon="9.796611">
        <ele>536.767554</ele>
        <time>2025-05-18T19:30:09.916Z</time>
      </trkpt>
      <trkpt lat="48.184871" lon="9.796468">
        <ele>536.870115</ele>
        <time>2025-05-18T19:30:12.530Z</time>
      </trkpt>
      <trkpt lat="48.184930" lon="9.796418">
        <ele>536.933830</ele>
        <time>2025-05-18T19:30:14.193Z</time>
      </trkpt>
      <trkpt lat="48.185226" lon="9.795948">
        <ele>536.688206</ele>
        <time>2025-05-18T19:30:24.478Z</time>
      </trkpt>
      <trkpt lat="48.185366" lon="9.795642">
        <ele>536.340945</ele>
        <time>2025-05-18T19:30:30.141Z</time>
      </trkpt>
      <trkpt lat="48.185522" lon="9.795249">
        <ele>535.912967</ele>
        <time>2025-05-18T19:30:36.696Z</time>
      </trkpt>
      <trkpt lat="48.185558" lon="9.795267">
        <ele>535.859709</ele>
        <time>2025-05-18T19:30:37.455Z</time>
      </trkpt>
      <trkpt lat="48.185901" lon="9.794579">
        <ele>535.055861</ele>
        <time>2025-05-18T19:30:47.770Z</time>
      </trkpt>
      <trkpt lat="48.186235" lon="9.794212">
        <ele>534.292570</ele>
        <time>2025-05-18T19:30:54.435Z</time>
      </trkpt>
      <trkpt lat="48.186756" lon="9.793778">
        <ele>531.524419</ele>
        <time>2025-05-18T19:31:03.700Z</time>
      </trkpt>
      <trkpt lat="48.187138" lon="9.793493">
        <ele>529.542694</ele>
        <time>2025-05-18T19:31:10.346Z</time>
      </trkpt>
      <trkpt lat="48.188542" lon="9.792571">
        <ele>524.062188</ele>
        <time>2025-05-18T19:31:35.685Z</time>
      </trkpt>
      <trkpt lat="48.188719" lon="9.791415">
        <ele>521.983267</ele>
        <time>2025-05-18T19:31:50.257Z</time>
      </trkpt>
      <trkpt lat="48.188683" lon="9.791143">
        <ele>521.497218</ele>
        <time>2025-05-18T19:31:53.990Z</time>
      </trkpt>
      <trkpt lat="48.188512" lon="9.790363">
        <ele>521.344956</ele>
        <time>2025-05-18T19:32:05.540Z</time>
      </trkpt>
      <trkpt lat="48.188035" lon="9.788675">
        <ele>521.059442</ele>
        <time>2025-05-18T19:32:32.763Z</time>
      </trkpt>
      <trkpt lat="48.187449" lon="9.786635">
        <ele>520.167560</ele>
        <time>2025-05-18T19:33:04.264Z</time>
      </trkpt>
      <trkpt lat="48.187441" lon="9.786491">
        <ele>520.108577</ele>
        <time>2025-05-18T19:33:06.028Z</time>
      </trkpt>
      <trkpt lat="48.188434" lon="9.785602">
        <ele>520.545935</ele>
        <time>2025-05-18T19:33:28.393Z</time>
      </trkpt>
      <trkpt lat="48.190234" lon="9.784782">
        <ele>523.476921</ele>
        <time>2025-05-18T19:34:14.598Z</time>
      </trkpt>
      <trkpt lat="48.190590" lon="9.784709">
        <ele>524.332401</ele>
        <time>2025-05-18T19:34:23.567Z</time>
      </trkpt>
      <trkpt lat="48.193409" lon="9.784536">
        <ele>528.274545</ele>
        <time>2025-05-18T19:35:29.942Z</time>
      </trkpt>
      <trkpt lat="48.193573" lon="9.784448">
        <ele>528.380018</ele>
        <time>2025-05-18T19:35:33.990Z</time>
      </trkpt>
      <trkpt lat="48.193731" lon="9.784152">
        <ele>528.533090</ele>
        <time>2025-05-18T19:35:39.836Z</time>
      </trkpt>
      <trkpt lat="48.193774" lon="9.783974">
        <ele>528.609516</ele>
        <time>2025-05-18T19:35:42.744Z</time>
      </trkpt>
      <trkpt lat="48.193609" lon="9.781925">
        <ele>528.049651</ele>
        <time>2025-05-18T19:36:12.337Z</time>
      </trkpt>
      <trkpt lat="48.193697" lon="9.781637">
        <ele>527.752515</ele>
        <time>2025-05-18T19:36:16.438Z</time>
      </trkpt>
      <trkpt lat="48.193871" lon="9.781419">
        <ele>527.433557</ele>
        <time>2025-05-18T19:36:20.718Z</time>
      </trkpt>
      <trkpt lat="48.193982" lon="9.781363">
        <ele>527.268792</ele>
        <time>2025-05-18T19:36:22.894Z</time>
      </trkpt>
      <trkpt lat="48.194331" lon="9.781327">
        <ele>526.776610</ele>
        <time>2025-05-18T19:36:29.181Z</time>
      </trkpt>
      <trkpt lat="48.194506" lon="9.781267">
        <ele>526.524047</ele>
        <time>2025-05-18T19:36:32.329Z</time>
      </trkpt>
      <trkpt lat="48.194810" lon="9.781051">
        <ele>525.539425</ele>
        <time>2025-05-18T19:36:38.159Z</time>
      </trkpt>
      <trkpt lat="48.195637" lon="9.780071">
        <ele>522.341720</ele>
        <time>2025-05-18T19:36:56.275Z</time>
      </trkpt>
      <trkpt lat="48.196151" lon="9.779462">
        <ele>520.395671</ele>
        <time>2025-05-18T19:37:07.433Z</time>
      </trkpt>
      <trkpt lat="48.196248" lon="9.779375">
        <ele>520.073544</ele>
        <time>2025-05-18T19:37:09.379Z</time>
      </trkpt>
      <trkpt lat="48.196451" lon="9.779320">
        <ele>519.485568</ele>
        <time>2025-05-18T19:37:12.946Z</time>
      </trkpt>
      <trkpt lat="48.196436" lon="9.779092">
        <ele>519.050271</ele>
        <time>2025-05-18T19:37:15.599Z</time>
      </trkpt>
      <trkpt lat="48.196707" lon="9.778999">
        <ele>518.257880</ele>
        <time>2025-05-18T19:37:20.227Z</time>
      </trkpt>
      <trkpt lat="48.196841" lon="9.778911">
        <ele>517.840944</ele>
        <time>2025-05-18T19:37:22.638Z</time>
      </trkpt>
      <trkpt lat="48.197559" lon="9.778370">
        <ele>515.740361</ele>
        <time>2025-05-18T19:37:36.079Z</time>
      </trkpt>
      <trkpt lat="48.197877" lon="9.778084">
        <ele>515.243215</ele>
        <time>2025-05-18T19:37:42.440Z</time>
      </trkpt>
      <trkpt lat="48.198173" lon="9.777913">
        <ele>514.817908</ele>
        <time>2025-05-18T19:37:47.984Z</time>
      </trkpt>
      <trkpt lat="48.198194" lon="9.777902">
        <ele>514.788083</ele>
        <time>2025-05-18T19:37:48.376Z</time>
      </trkpt>
      <trkpt lat="48.198268" lon="9.777867">
        <ele>514.684044</ele>
        <time>2025-05-18T19:37:49.769Z</time>
      </trkpt>
      <trkpt lat="48.198298" lon="9.777854">
        <ele>514.642174</ele>
        <time>2025-05-18T19:37:50.336Z</time>
      </trkpt>
      <trkpt lat="48.199282" lon="9.777642">
        <ele>513.696274</ele>
        <time>2025-05-18T19:38:10.267Z</time>
      </trkpt>
      <trkpt lat="48.200324" lon="9.777498">
        <ele>515.185037</ele>
        <time>2025-05-18T19:38:34.111Z</time>
      </trkpt>
      <trkpt lat="48.200611" lon="9.777426">
        <ele>515.599030</ele>
        <time>2025-05-18T19:38:40.956Z</time>
      </trkpt>
      <trkpt lat="48.200817" lon="9.777336">
        <ele>515.904286</ele>
        <time>2025-05-18T19:38:46.041Z</time>
      </trkpt>
      <trkpt lat="48.201453" lon="9.776963">
        <ele>517.570489</ele>
        <time>2025-05-18T19:39:02.494Z</time>
      </trkpt>
      <trkpt lat="48.202453" lon="9.776317">
        <ele>520.432044</ele>
        <time>2025-05-18T19:39:28.824Z</time>
      </trkpt>
      <trkpt lat="48.202272" lon="9.775682">
        <ele>520.770148</ele>
        <time>2025-05-18T19:39:39.607Z</time>
      </trkpt>
      <trkpt lat="48.202043" lon="9.775171">
        <ele>520.753561</ele>
        <time>2025-05-18T19:39:48.909Z</time>
      </trkpt>
      <trkpt lat="48.202134" lon="9.775113">
        <ele>520.749565</ele>
        <time>2025-05-18T19:39:51.067Z</time>
      </trkpt>
      <trkpt lat="48.202921" lon="9.774930">
        <ele>520.717377</ele>
        <time>2025-05-18T19:40:06.442Z</time>
      </trkpt>
      <trkpt lat="48.203098" lon="9.774889">
        <ele>520.681104</ele>
        <time>2025-05-18T19:40:09.534Z</time>
      </trkpt>
      <trkpt lat="48.204139" lon="9.774648">
        <ele>518.244859</ele>
        <time>2025-05-18T19:40:27.001Z</time>
      </trkpt>
      <trkpt lat="48.205295" lon="9.774401">
        <ele>516.075767</ele>
        <time>2025-05-18T19:40:47.452Z</time>
      </trkpt>
      <trkpt lat="48.205385" lon="9.774376">
        <ele>515.975897</ele>
        <time>2025-05-18T19:40:49.189Z</time>
      </trkpt>
      <trkpt lat="48.205588" lon="9.774356">
        <ele>515.753921</ele>
        <time>2025-05-18T19:40:53.136Z</time>
      </trkpt>
      <trkpt lat="48.207504" lon="9.774476">
        <ele>514.736344</ele>
        <time>2025-05-18T19:41:31.503Z</time>
      </trkpt>
      <trkpt lat="48.208911" lon="9.774273">
        <ele>515.830752</ele>
        <time>2025-05-18T19:42:02.976Z</time>
      </trkpt>
      <trkpt lat="48.209216" lon="9.774211">
        <ele>516.446719</ele>
        <time>2025-05-18T19:42:10.171Z</time>
      </trkpt>
      <trkpt lat="48.209342" lon="9.774163">
        <ele>516.706879</ele>
        <time>2025-05-18T19:42:13.250Z</time>
      </trkpt>
      <trkpt lat="48.211655" lon="9.772886">
        <ele>521.643043</ele>
        <time>2025-05-18T19:43:16.222Z</time>
      </trkpt>
      <trkpt lat="48.214482" lon="9.770896">
        <ele>521.177163</ele>
        <time>2025-05-18T19:44:25.548Z</time>
      </trkpt>
      <trkpt lat="48.214632" lon="9.770822">
        <ele>521.173140</ele>
        <time>2025-05-18T19:44:30.989Z</time>
      </trkpt>
      <trkpt lat="48.216145" lon="9.770322">
        <ele>522.863166</ele>
        <time>2025-05-18T19:45:23.451Z</time>
      </trkpt>
      <trkpt lat="48.216797" lon="9.770132">
        <ele>523.993283</ele>
        <time>2025-05-18T19:45:45.712Z</time>
      </trkpt>
      <trkpt lat="48.217131" lon="9.769976">
        <ele>524.659387</ele>
        <time>2025-05-18T19:45:57.447Z</time>
      </trkpt>
      <trkpt lat="48.218049" lon="9.769302">
        <ele>526.732567</ele>
        <time>2025-05-18T19:46:31.683Z</time>
      </trkpt>
      <trkpt lat="48.218220" lon="9.769206">
        <ele>527.102938</ele>
        <time>2025-05-18T19:46:37.809Z</time>
      </trkpt>
      <trkpt lat="48.218386" lon="9.769167">
        <ele>527.443791</ele>
        <time>2025-05-18T19:46:43.479Z</time>
      </trkpt>
      <trkpt lat="48.218548" lon="9.769182">
        <ele>527.773054</ele>
        <time>2025-05-18T19:46:48.982Z</time>
      </trkpt>
      <trkpt lat="48.218669" lon="9.769253">
        <ele>528.014645</ele>
        <time>2025-05-18T19:46:53.364Z</time>
      </trkpt>
      <trkpt lat="48.219217" lon="9.769718">
        <ele>529.124929</ele>
        <time>2025-05-18T19:47:14.660Z</time>
      </trkpt>
      <trkpt lat="48.219374" lon="9.769816">
        <ele>529.424823</ele>
        <time>2025-05-18T19:47:20.424Z</time>
      </trkpt>
      <trkpt lat="48.220238" lon="9.770016">
        <ele>530.966679</ele>
        <time>2025-05-18T19:47:49.777Z</time>
      </trkpt>
      <trkpt lat="48.220618" lon="9.770064">
        <ele>531.952181</ele>
        <time>2025-05-18T19:47:59.563Z</time>
      </trkpt>
      <trkpt lat="48.221129" lon="9.770078">
        <ele>533.324820</ele>
        <time>2025-05-18T19:48:12.722Z</time>
      </trkpt>
      <trkpt lat="48.221312" lon="9.770034">
        <ele>533.822576</ele>
        <time>2025-05-18T19:48:17.509Z</time>
      </trkpt>
      <trkpt lat="48.221696" lon="9.769914">
        <ele>534.876014</ele>
        <time>2025-05-18T19:48:27.631Z</time>
      </trkpt>
      <trkpt lat="48.222523" lon="9.769571">
        <ele>536.821651</ele>
        <time>2025-05-18T19:48:49.435Z</time>
      </trkpt>
      <trkpt lat="48.222876" lon="9.769469">
        <ele>537.522557</ele>
        <time>2025-05-18T19:48:58.413Z</time>
      </trkpt>
      <trkpt lat="48.223250" lon="9.769533">
        <ele>538.256494</ele>
        <time>2025-05-18T19:49:07.794Z</time>
      </trkpt>
      <trkpt lat="48.223705" lon="9.769778">
        <ele>539.198996</ele>
        <time>2025-05-18T19:49:19.797Z</time>
      </trkpt>
      <trkpt lat="48.224255" lon="9.770019">
        <ele>540.387335</ele>
        <time>2025-05-18T19:49:34.041Z</time>
      </trkpt>
      <trkpt lat="48.224767" lon="9.770134">
        <ele>541.473371</ele>
        <time>2025-05-18T19:49:46.936Z</time>
      </trkpt>
      <trkpt lat="48.225129" lon="9.770308">
        <ele>542.270763</ele>
        <time>2025-05-18T19:49:56.424Z</time>
      </trkpt>
      <trkpt lat="48.225484" lon="9.770599">
        <ele>543.119296</ele>
        <time>2025-05-18T19:50:06.732Z</time>
      </trkpt>
      <trkpt lat="48.225925" lon="9.770889">
        <ele>544.734334</ele>
        <time>2025-05-18T19:50:19.425Z</time>
      </trkpt>
      <trkpt lat="48.226473" lon="9.771064">
        <ele>546.636893</ele>
        <time>2025-05-18T19:50:34.805Z</time>
      </trkpt>
      <trkpt lat="48.226850" lon="9.771127">
        <ele>547.925028</ele>
        <time>2025-05-18T19:50:45.035Z</time>
      </trkpt>
      <trkpt lat="48.227114" lon="9.771096">
        <ele>548.824265</ele>
        <time>2025-05-18T19:50:52.061Z</time>
      </trkpt>
      <trkpt lat="48.227614" lon="9.770961">
        <ele>548.338112</ele>
        <time>2025-05-18T19:51:03.831Z</time>
      </trkpt>
      <trkpt lat="48.227804" lon="9.770866">
        <ele>547.852461</ele>
        <time>2025-05-18T19:51:07.971Z</time>
      </trkpt>
      <trkpt lat="48.228016" lon="9.770784">
        <ele>547.321554</ele>
        <time>2025-05-18T19:51:12.002Z</time>
      </trkpt>
      <trkpt lat="48.228749" lon="9.770265">
        <ele>545.356165</ele>
        <time>2025-05-18T19:51:24.476Z</time>
      </trkpt>
      <trkpt lat="48.228897" lon="9.770110">
        <ele>544.918539</ele>
        <time>2025-05-18T19:51:27.130Z</time>
      </trkpt>
      <trkpt lat="48.229047" lon="9.769708">
        <ele>542.965038</ele>
        <time>2025-05-18T19:51:31.526Z</time>
      </trkpt>
      <trkpt lat="48.229147" lon="9.769553">
        <ele>542.033783</ele>
        <time>2025-05-18T19:51:33.568Z</time>
      </trkpt>
      <trkpt lat="48.229267" lon="9.769430">
        <ele>541.092391</ele>
        <time>2025-05-18T19:51:35.640Z</time>
      </trkpt>
      <trkpt lat="48.229459" lon="9.769315">
        <ele>539.753118</ele>
        <time>2025-05-18T19:51:38.594Z</time>
      </trkpt>
      <trkpt lat="48.229703" lon="9.769252">
        <ele>538.149099</ele>
        <time>2025-05-18T19:51:42.130Z</time>
      </trkpt>
      <trkpt lat="48.229911" lon="9.769170">
        <ele>536.755831</ele>
        <time>2025-05-18T19:51:45.223Z</time>
      </trkpt>
      <trkpt lat="48.230164" lon="9.769005">
        <ele>534.968715</ele>
        <time>2025-05-18T19:51:49.195Z</time>
      </trkpt>
      <trkpt lat="48.230592" lon="9.768574">
        <ele>532.458143</ele>
        <time>2025-05-18T19:51:56.711Z</time>
      </trkpt>
      <trkpt lat="48.230844" lon="9.768213">
        <ele>531.359072</ele>
        <time>2025-05-18T19:52:02.035Z</time>
      </trkpt>
      <trkpt lat="48.231129" lon="9.767788">
        <ele>530.091552</ele>
        <time>2025-05-18T19:52:08.708Z</time>
      </trkpt>
      <trkpt lat="48.231187" lon="9.767701">
        <ele>529.832847</ele>
        <time>2025-05-18T19:52:10.147Z</time>
      </trkpt>
      <trkpt lat="48.231285" lon="9.767572">
        <ele>529.421593</ele>
        <time>2025-05-18T19:52:12.469Z</time>
      </trkpt>
      <trkpt lat="48.231431" lon="9.767341">
        <ele>528.752304</ele>
        <time>2025-05-18T19:52:16.331Z</time>
      </trkpt>
      <trkpt lat="48.231694" lon="9.766922">
        <ele>527.553171</ele>
        <time>2025-05-18T19:52:23.650Z</time>
      </trkpt>
      <trkpt lat="48.232003" lon="9.766408">
        <ele>526.682587</ele>
        <time>2025-05-18T19:52:32.831Z</time>
      </trkpt>
      <trkpt lat="48.232096" lon="9.766087">
        <ele>526.242442</ele>
        <time>2025-05-18T19:52:37.334Z</time>
      </trkpt>
      <trkpt lat="48.232168" lon="9.765837">
        <ele>525.899974</ele>
        <time>2025-05-18T19:52:40.735Z</time>
      </trkpt>
      <trkpt lat="48.232289" lon="9.765849">
        <ele>525.671072</ele>
        <time>2025-05-18T19:52:42.885Z</time>
      </trkpt>
      <trkpt lat="48.232405" lon="9.765790">
        <ele>525.439881</ele>
        <time>2025-05-18T19:52:45.027Z</time>
      </trkpt>
      <trkpt lat="48.232661" lon="9.765639">
        <ele>524.920685</ele>
        <time>2025-05-18T19:52:49.639Z</time>
      </trkpt>
      <trkpt lat="48.233008" lon="9.765504">
        <ele>524.244038</ele>
        <time>2025-05-18T19:52:55.486Z</time>
      </trkpt>
      <trkpt lat="48.233291" lon="9.765519">
        <ele>523.548603</ele>
        <time>2025-05-18T19:53:00.096Z</time>
      </trkpt>
      <trkpt lat="48.233495" lon="9.765614">
        <ele>523.005830</ele>
        <time>2025-05-18T19:53:03.642Z</time>
      </trkpt>
      <trkpt lat="48.233724" lon="9.765847">
        <ele>522.302840</ele>
        <time>2025-05-18T19:53:08.285Z</time>
      </trkpt>
      <trkpt lat="48.233837" lon="9.766007">
        <ele>521.908117</ele>
        <time>2025-05-18T19:53:10.919Z</time>
      </trkpt>
      <trkpt lat="48.234066" lon="9.766462">
        <ele>520.942818</ele>
        <time>2025-05-18T19:53:17.491Z</time>
      </trkpt>
      <trkpt lat="48.234244" lon="9.766898">
        <ele>520.077225</ele>
        <time>2025-05-18T19:53:23.455Z</time>
      </trkpt>
      <trkpt lat="48.234780" lon="9.768023">
        <ele>517.565978</ele>
        <time>2025-05-18T19:53:39.167Z</time>
      </trkpt>
      <trkpt lat="48.234944" lon="9.768237">
        <ele>516.963539</ele>
        <time>2025-05-18T19:53:42.740Z</time>
      </trkpt>
      <trkpt lat="48.235118" lon="9.768394">
        <ele>516.400694</ele>
        <time>2025-05-18T19:53:46.039Z</time>
      </trkpt>
      <trkpt lat="48.235555" lon="9.768601">
        <ele>515.130217</ele>
        <time>2025-05-18T19:53:53.474Z</time>
      </trkpt>
      <trkpt lat="48.236103" lon="9.768737">
        <ele>514.246502</ele>
        <time>2025-05-18T19:54:02.659Z</time>
      </trkpt>
      <trkpt lat="48.236492" lon="9.768777">
        <ele>513.856622</ele>
        <time>2025-05-18T19:54:09.604Z</time>
      </trkpt>
      <trkpt lat="48.237332" lon="9.768724">
        <ele>513.015947</ele>
        <time>2025-05-18T19:54:26.680Z</time>
      </trkpt>
      <trkpt lat="48.238500" lon="9.768457">
        <ele>514.300185</ele>
        <time>2025-05-18T19:54:53.681Z</time>
      </trkpt>
      <trkpt lat="48.238909" lon="9.768403">
        <ele>514.918750</ele>
        <time>2025-05-18T19:55:03.179Z</time>
      </trkpt>
      <trkpt lat="48.239418" lon="9.768415">
        <ele>515.814011</ele>
        <time>2025-05-18T19:55:15.079Z</time>
      </trkpt>
      <trkpt lat="48.239534" lon="9.768519">
        <ele>516.183171</ele>
        <time>2025-05-18T19:55:18.261Z</time>
      </trkpt>
      <trkpt lat="48.239620" lon="9.768662">
        <ele>516.533795</ele>
        <time>2025-05-18T19:55:21.280Z</time>
      </trkpt>
      <trkpt lat="48.239737" lon="9.768806">
        <ele>516.947159</ele>
        <time>2025-05-18T19:55:24.863Z</time>
      </trkpt>
      <trkpt lat="48.239879" lon="9.768832">
        <ele>517.338028</ele>
        <time>2025-05-18T19:55:28.262Z</time>
      </trkpt>
      <trkpt lat="48.240010" lon="9.768752">
        <ele>517.724441</ele>
        <time>2025-05-18T19:55:31.685Z</time>
      </trkpt>
      <trkpt lat="48.240227" lon="9.768505">
        <ele>518.468479</ele>
        <time>2025-05-18T19:55:38.364Z</time>
      </trkpt>
      <trkpt lat="48.240410" lon="9.768265">
        <ele>519.132383</ele>
        <time>2025-05-18T19:55:44.321Z</time>
      </trkpt>
      <trkpt lat="48.240514" lon="9.768143">
        <ele>519.492993</ele>
        <time>2025-05-18T19:55:47.574Z</time>
      </trkpt>
      <trkpt lat="48.240660" lon="9.768017">
        <ele>519.953117</ele>
        <time>2025-05-18T19:55:51.711Z</time>
      </trkpt>
      <trkpt lat="48.240851" lon="9.767714">
        <ele>520.583483</ele>
        <time>2025-05-18T19:55:58.514Z</time>
      </trkpt>
      <trkpt lat="48.241034" lon="9.767417">
        <ele>520.968185</ele>
        <time>2025-05-18T19:56:04.976Z</time>
      </trkpt>
      <trkpt lat="48.241190" lon="9.767231">
        <ele>521.252569</ele>
        <time>2025-05-18T19:56:09.651Z</time>
      </trkpt>
      <trkpt lat="48.241051" lon="9.766828">
        <ele>521.684074</ele>
        <time>2025-05-18T19:56:16.666Z</time>
      </trkpt>
      <trkpt lat="48.240775" lon="9.765520">
        <ele>522.988641</ele>
        <time>2025-05-18T19:56:36.879Z</time>
      </trkpt>
      <trkpt lat="48.240566" lon="9.764790">
        <ele>522.809902</ele>
        <time>2025-05-18T19:56:47.822Z</time>
      </trkpt>
      <trkpt lat="48.240615" lon="9.764748">
        <ele>522.787906</ele>
        <time>2025-05-18T19:56:48.997Z</time>
      </trkpt>
      <trkpt lat="48.240605" lon="9.764663">
        <ele>522.765495</ele>
        <time>2025-05-18T19:56:50.199Z</time>
      </trkpt>
      <trkpt lat="48.240107" lon="9.763139">
        <ele>522.324748</ele>
        <time>2025-05-18T19:57:13.047Z</time>
      </trkpt>
      <trkpt lat="48.239805" lon="9.762223">
        <ele>521.311688</ele>
        <time>2025-05-18T19:57:25.939Z</time>
      </trkpt>
      <trkpt lat="48.239158" lon="9.760655">
        <ele>519.339643</ele>
        <time>2025-05-18T19:57:47.862Z</time>
      </trkpt>
      <trkpt lat="48.240930" lon="9.759421">
        <ele>514.458526</ele>
        <time>2025-05-18T19:58:21.277Z</time>
      </trkpt>
      <trkpt lat="48.240956" lon="9.759405">
        <ele>514.366629</ele>
        <time>2025-05-18T19:58:21.729Z</time>
      </trkpt>
      <trkpt lat="48.242626" lon="9.758213">
        <ele>508.698018</ele>
        <time>2025-05-18T19:58:51.295Z</time>
      </trkpt>
      <trkpt lat="48.243432" lon="9.757867">
        <ele>507.002060</ele>
        <time>2025-05-18T19:59:05.755Z</time>
      </trkpt>
      <trkpt lat="48.245263" lon="9.757046">
        <ele>505.334494</ele>
        <time>2025-05-18T19:59:43.337Z</time>
      </trkpt>
      <trkpt lat="48.246866" lon="9.755936">
        <ele>507.126279</ele>
        <time>2025-05-18T20:00:22.975Z</time>
      </trkpt>
      <trkpt lat="48.246913" lon="9.755896">
        <ele>507.212084</ele>
        <time>2025-05-18T20:00:24.247Z</time>
      </trkpt>
      <trkpt lat="48.247528" lon="9.755557">
        <ele>508.379233</ele>
        <time>2025-05-18T20:00:40.033Z</time>
      </trkpt>
      <trkpt lat="48.248551" lon="9.755241">
        <ele>511.045406</ele>
        <time>2025-05-18T20:01:05.601Z</time>
      </trkpt>
      <trkpt lat="48.249995" lon="9.754810">
        <ele>512.758007</ele>
        <time>2025-05-18T20:01:39.543Z</time>
      </trkpt>
      <trkpt lat="48.250547" lon="9.754573">
        <ele>512.840736</ele>
        <time>2025-05-18T20:01:50.941Z</time>
      </trkpt>
      <trkpt lat="48.251116" lon="9.754248">
        <ele>512.640151</ele>
        <time>2025-05-18T20:02:01.805Z</time>
      </trkpt>
      <trkpt lat="48.251553" lon="9.753654">
        <ele>511.997472</ele>
        <time>2025-05-18T20:02:12.914Z</time>
      </trkpt>
      <trkpt lat="48.251607" lon="9.753580">
        <ele>511.917764</ele>
        <time>2025-05-18T20:02:14.321Z</time>
      </trkpt>
      <trkpt lat="48.251640" lon="9.753565">
        <ele>511.880170</ele>
        <time>2025-05-18T20:02:15.010Z</time>
      </trkpt>
      <trkpt lat="48.251882" lon="9.753369">
        <ele>511.580375</ele>
        <time>2025-05-18T20:02:20.417Z</time>
      </trkpt>
      <trkpt lat="48.252027" lon="9.753406">
        <ele>511.420005</ele>
        <time>2025-05-18T20:02:23.307Z</time>
      </trkpt>
      <trkpt lat="48.252390" lon="9.753499">
        <ele>511.018483</ele>
        <time>2025-05-18T20:02:30.590Z</time>
      </trkpt>
      <trkpt lat="48.252607" lon="9.753554">
        <ele>510.731738</ele>
        <time>2025-05-18T20:02:34.982Z</time>
      </trkpt>
      <trkpt lat="48.252771" lon="9.753597">
        <ele>510.495449</ele>
        <time>2025-05-18T20:02:38.376Z</time>
      </trkpt>
      <trkpt lat="48.253295" lon="9.753725">
        <ele>509.741953</ele>
        <time>2025-05-18T20:02:48.322Z</time>
      </trkpt>
      <trkpt lat="48.253385" lon="9.753731">
        <ele>509.614089</ele>
        <time>2025-05-18T20:02:49.952Z</time>
      </trkpt>
      <trkpt lat="48.253524" lon="9.753695">
        <ele>509.413891</ele>
        <time>2025-05-18T20:02:52.467Z</time>
      </trkpt>
      <trkpt lat="48.253789" lon="9.753477">
        <ele>508.985045</ele>
        <time>2025-05-18T20:02:57.850Z</time>
      </trkpt>
      <trkpt lat="48.254002" lon="9.753345">
        <ele>508.658005</ele>
        <time>2025-05-18T20:03:01.891Z</time>
      </trkpt>
      <trkpt lat="48.254283" lon="9.753209">
        <ele>508.247025</ele>
        <time>2025-05-18T20:03:07.160Z</time>
      </trkpt>
      <trkpt lat="48.254389" lon="9.753065">
        <ele>508.055673</ele>
        <time>2025-05-18T20:03:09.725Z</time>
      </trkpt>
      <trkpt lat="48.254399" lon="9.753026">
        <ele>508.018419</ele>
        <time>2025-05-18T20:03:10.234Z</time>
      </trkpt>
      <trkpt lat="48.254415" lon="9.752826">
        <ele>507.838857</ele>
        <time>2025-05-18T20:03:12.683Z</time>
      </trkpt>
      <trkpt lat="48.254366" lon="9.752465">
        <ele>507.510444</ele>
        <time>2025-05-18T20:03:17.307Z</time>
      </trkpt>
      <trkpt lat="48.254285" lon="9.751304">
        <ele>506.469863</ele>
        <time>2025-05-18T20:03:32.301Z</time>
      </trkpt>
      <trkpt lat="48.254202" lon="9.750851">
        <ele>506.051048</ele>
        <time>2025-05-18T20:03:38.028Z</time>
      </trkpt>
      <trkpt lat="48.254036" lon="9.750151">
        <ele>506.170194</ele>
        <time>2025-05-18T20:03:47.088Z</time>
      </trkpt>
      <trkpt lat="48.253956" lon="9.749922">
        <ele>506.248114</ele>
        <time>2025-05-18T20:03:50.539Z</time>
      </trkpt>
      <trkpt lat="48.253840" lon="9.749572">
        <ele>506.365913</ele>
        <time>2025-05-18T20:03:56.075Z</time>
      </trkpt>
      <trkpt lat="48.253830" lon="9.749370">
        <ele>506.426945</ele>
        <time>2025-05-18T20:03:59.049Z</time>
      </trkpt>
      <trkpt lat="48.253876" lon="9.749173">
        <ele>506.489847</ele>
        <time>2025-05-18T20:04:02.179Z</time>
      </trkpt>
      <trkpt lat="48.253979" lon="9.749029">
        <ele>506.553526</ele>
        <time>2025-05-18T20:04:05.404Z</time>
      </trkpt>
      <trkpt lat="48.254521" lon="9.748545">
        <ele>506.942630</ele>
        <time>2025-05-18T20:04:20.149Z</time>
      </trkpt>
      <trkpt lat="48.254720" lon="9.748258">
        <ele>507.315746</ele>
        <time>2025-05-18T20:04:26.699Z</time>
      </trkpt>
      <trkpt lat="48.254801" lon="9.748083">
        <ele>507.507659</ele>
        <time>2025-05-18T20:04:30.098Z</time>
      </trkpt>
      <trkpt lat="48.254917" lon="9.748168">
        <ele>507.682212</ele>
        <time>2025-05-18T20:04:33.209Z</time>
      </trkpt>
      <trkpt lat="48.254972" lon="9.747891">
        <ele>507.942491</ele>
        <time>2025-05-18T20:04:37.792Z</time>
      </trkpt>
      <trkpt lat="48.255012" lon="9.747808">
        <ele>508.034751</ele>
        <time>2025-05-18T20:04:39.393Z</time>
      </trkpt>
      <trkpt lat="48.256680" lon="9.746381">
        <ele>508.104084</ele>
        <time>2025-05-18T20:05:21.023Z</time>
      </trkpt>
      <trkpt lat="48.257112" lon="9.745984">
        <ele>507.563059</ele>
        <time>2025-05-18T20:05:29.816Z</time>
      </trkpt>
      <trkpt lat="48.258114" lon="9.744879">
        <ele>504.154628</ele>
        <time>2025-05-18T20:05:49.396Z</time>
      </trkpt>
      <trkpt lat="48.258828" lon="9.744061">
        <ele>501.555815</ele>
        <time>2025-05-18T20:06:04.057Z</time>
      </trkpt>
      <trkpt lat="48.260204" lon="9.742630">
        <ele>500.514960</ele>
        <time>2025-05-18T20:06:38.622Z</time>
      </trkpt>
      <trkpt lat="48.261063" lon="9.741711">
        <ele>499.761604</ele>
        <time>2025-05-18T20:07:01.272Z</time>
      </trkpt>
      <trkpt lat="48.260436" lon="9.739986">
        <ele>498.224890</ele>
        <time>2025-05-18T20:07:24.702Z</time>
      </trkpt>
      <trkpt lat="48.260056" lon="9.738936">
        <ele>496.761736</ele>
        <time>2025-05-18T20:07:38.281Z</time>
      </trkpt>
      <trkpt lat="48.259839" lon="9.738103">
        <ele>495.923502</ele>
        <time>2025-05-18T20:07:49.264Z</time>
      </trkpt>
      <trkpt lat="48.260092" lon="9.737947">
        <ele>495.978468</ele>
        <time>2025-05-18T20:07:54.639Z</time>
      </trkpt>
      <trkpt lat="48.260168" lon="9.737896">
        <ele>495.995197</ele>
        <time>2025-05-18T20:07:56.313Z</time>
      </trkpt>
      <trkpt lat="48.260342" lon="9.737748">
        <ele>496.035385</ele>
        <time>2025-05-18T20:08:00.384Z</time>
      </trkpt>
      <trkpt lat="48.260507" lon="9.737554">
        <ele>496.077498</ele>
        <time>2025-05-18T20:08:04.843Z</time>
      </trkpt>
      <trkpt lat="48.260543" lon="9.737507">
        <ele>496.087084</ele>
        <time>2025-05-18T20:08:05.880Z</time>
      </trkpt>
      <trkpt lat="48.260673" lon="9.737330">
        <ele>496.122347</ele>
        <time>2025-05-18T20:08:09.777Z</time>
      </trkpt>
      <trkpt lat="48.260697" lon="9.737297">
        <ele>496.128887</ele>
        <time>2025-05-18T20:08:10.517Z</time>
      </trkpt>
      <trkpt lat="48.261068" lon="9.736791">
        <ele>496.229601</ele>
        <time>2025-05-18T20:08:22.002Z</time>
      </trkpt>
      <trkpt lat="48.261144" lon="9.736689">
        <ele>496.250084</ele>
        <time>2025-05-18T20:08:24.361Z</time>
      </trkpt>
      <trkpt lat="48.261348" lon="9.736436">
        <ele>496.265122</ele>
        <time>2025-05-18T20:08:30.439Z</time>
      </trkpt>
      <trkpt lat="48.261589" lon="9.736151">
        <ele>496.272818</ele>
        <time>2025-05-18T20:08:37.278Z</time>
      </trkpt>
      <trkpt lat="48.261695" lon="9.736029">
        <ele>496.276168</ele>
        <time>2025-05-18T20:08:40.217Z</time>
      </trkpt>
      <trkpt lat="48.261875" lon="9.735797">
        <ele>496.282119</ele>
        <time>2025-05-18T20:08:45.228Z</time>
      </trkpt>
      <trkpt lat="48.261891" lon="9.735773">
        <ele>496.282687</ele>
        <time>2025-05-18T20:08:45.720Z</time>
      </trkpt>
      <trkpt lat="48.261965" lon="9.735512">
        <ele>496.287425</ele>
        <time>2025-05-18T20:08:49.663Z</time>
      </trkpt>
      <trkpt lat="48.261830" lon="9.735291">
        <ele>496.292435</ele>
        <time>2025-05-18T20:08:53.706Z</time>
      </trkpt>
      <trkpt lat="48.261808" lon="9.735251">
        <ele>496.293302</ele>
        <time>2025-05-18T20:08:54.379Z</time>
      </trkpt>
      <trkpt lat="48.261741" lon="9.735037">
        <ele>496.297252</ele>
        <time>2025-05-18T20:08:57.503Z</time>
      </trkpt>
      <trkpt lat="48.261769" lon="9.734727">
        <ele>496.302477</ele>
        <time>2025-05-18T20:09:01.448Z</time>
      </trkpt>
      <trkpt lat="48.261856" lon="9.734352">
        <ele>496.304811</ele>
        <time>2025-05-18T20:09:06.299Z</time>
      </trkpt>
      <trkpt lat="48.261931" lon="9.734145">
        <ele>496.304811</ele>
        <time>2025-05-18T20:09:09.165Z</time>
      </trkpt>
      <trkpt lat="48.262045" lon="9.733906">
        <ele>496.304811</ele>
        <time>2025-05-18T20:09:12.761Z</time>
      </trkpt>
      <trkpt lat="48.262179" lon="9.733715">
        <ele>496.304811</ele>
        <time>2025-05-18T20:09:16.450Z</time>
      </trkpt>
      <trkpt lat="48.262223" lon="9.733650">
        <ele>496.304811</ele>
        <time>2025-05-18T20:09:17.741Z</time>
      </trkpt>
      <trkpt lat="48.262335" lon="9.733395">
        <ele>496.304811</ele>
        <time>2025-05-18T20:09:22.149Z</time>
      </trkpt>
      <trkpt lat="48.262420" lon="9.733426">
        <ele>496.304811</ele>
        <time>2025-05-18T20:09:24.051Z</time>
      </trkpt>
      <trkpt lat="48.262468" lon="9.733420">
        <ele>496.304811</ele>
        <time>2025-05-18T20:09:25.102Z</time>
      </trkpt>
      <trkpt lat="48.262505" lon="9.733397">
        <ele>496.304811</ele>
        <time>2025-05-18T20:09:25.979Z</time>
      </trkpt>
      <trkpt lat="48.262541" lon="9.733374">
        <ele>496.304811</ele>
        <time>2025-05-18T20:09:26.834Z</time>
      </trkpt>
      <trkpt lat="48.262731" lon="9.733271">
        <ele>496.304811</ele>
        <time>2025-05-18T20:09:31.340Z</time>
      </trkpt>
      <trkpt lat="48.262972" lon="9.733120">
        <ele>496.304811</ele>
        <time>2025-05-18T20:09:37.210Z</time>
      </trkpt>
      <trkpt lat="48.263054" lon="9.733071">
        <ele>496.304811</ele>
        <time>2025-05-18T20:09:39.199Z</time>
      </trkpt>
      <trkpt lat="48.263212" lon="9.732988">
        <ele>496.304811</ele>
        <time>2025-05-18T20:09:42.966Z</time>
      </trkpt>
    </trkseg>
  </trk>
</gpx>